<?xml version="1.0" encoding="UTF-8" standalone="no" ?>
<gpx xmlns="http://www.topografix.com/GPX/1/1" xmlns:xsi="http://www.w3.org/2001/XMLSchema-instance" xsi:schemaLocation="http://www.topografix.com/GPX/1/1 http://www.topografix.com/GPX/1/1/gpx.xsd" version="1.1" creator="VisuGPX - https://www.visugpx.com">
  <metadata>
    <name>Vaux de Cernay (Yvelines 78)</name>
    <desc><![CDATA[Vaux de Cernay]]></desc>
  </metadata>
  <trk>
    <name><![CDATA[Vaux de Cernay]]></name>
    <trkseg>
      <trkpt lat="48.67907" lon="1.96638">
        <ele>34.9</ele>
        <time>2013-11-17T08:56:05.000+01:00</time>
      </trkpt>
      <trkpt lat="48.67908" lon="1.96628">
        <ele>73.6</ele>
        <time>2013-11-17T08:56:08.000+01:00</time>
      </trkpt>
      <trkpt lat="48.679" lon="1.96619">
        <ele>73.1</ele>
        <time>2013-11-17T08:56:09.000+01:00</time>
      </trkpt>
      <trkpt lat="48.67897" lon="1.96609">
        <ele>83.2</ele>
        <time>2013-11-17T08:56:11.000+01:00</time>
      </trkpt>
      <trkpt lat="48.67894" lon="1.96602">
        <ele>95.8</ele>
        <time>2013-11-17T08:56:18.000+01:00</time>
      </trkpt>
      <trkpt lat="48.67903" lon="1.96605">
        <ele>86.4</ele>
        <time>2013-11-17T08:56:22.000+01:00</time>
      </trkpt>
      <trkpt lat="48.67901" lon="1.96608">
        <ele>94.6</ele>
        <time>2013-11-17T08:56:29.000+01:00</time>
      </trkpt>
      <trkpt lat="48.67901" lon="1.96617">
        <ele>82.7</ele>
        <time>2013-11-17T08:56:34.000+01:00</time>
      </trkpt>
      <trkpt lat="48.67906" lon="1.96625">
        <ele>73.3</ele>
        <time>2013-11-17T08:56:38.000+01:00</time>
      </trkpt>
      <trkpt lat="48.67917" lon="1.96633">
        <ele>55.6</ele>
        <time>2013-11-17T08:56:41.000+01:00</time>
      </trkpt>
      <trkpt lat="48.67926" lon="1.9664">
        <ele>45</ele>
        <time>2013-11-17T08:56:43.000+01:00</time>
      </trkpt>
      <trkpt lat="48.67934" lon="1.9664">
        <ele>39.5</ele>
        <time>2013-11-17T08:56:46.000+01:00</time>
      </trkpt>
      <trkpt lat="48.67936" lon="1.96634">
        <ele>40.9</ele>
        <time>2013-11-17T08:56:57.000+01:00</time>
      </trkpt>
      <trkpt lat="48.6793" lon="1.96625">
        <ele>51.8</ele>
        <time>2013-11-17T08:57:09.000+01:00</time>
      </trkpt>
      <trkpt lat="48.67938" lon="1.96622">
        <ele>46.4</ele>
        <time>2013-11-17T08:57:16.000+01:00</time>
      </trkpt>
      <trkpt lat="48.67947" lon="1.96618">
        <ele>41.1</ele>
        <time>2013-11-17T08:57:21.000+01:00</time>
      </trkpt>
      <trkpt lat="48.67954" lon="1.96625">
        <ele>35.8</ele>
        <time>2013-11-17T08:57:28.000+01:00</time>
      </trkpt>
      <trkpt lat="48.67947" lon="1.9663">
        <ele>41</ele>
        <time>2013-11-17T08:57:34.000+01:00</time>
      </trkpt>
      <trkpt lat="48.67948" lon="1.96639">
        <ele>37.5</ele>
        <time>2013-11-17T08:57:44.000+01:00</time>
      </trkpt>
      <trkpt lat="48.67944" lon="1.9665">
        <ele>32.8</ele>
        <time>2013-11-17T08:57:51.000+01:00</time>
      </trkpt>
      <trkpt lat="48.67953" lon="1.96647">
        <ele>29.7</ele>
        <time>2013-11-17T08:57:57.000+01:00</time>
      </trkpt>
      <trkpt lat="48.67952" lon="1.96645">
        <ele>37.8</ele>
        <time>2013-11-17T08:58:13.000+01:00</time>
      </trkpt>
      <trkpt lat="48.67952" lon="1.96644">
        <ele>53.5</ele>
        <time>2013-11-17T08:58:23.000+01:00</time>
      </trkpt>
      <trkpt lat="48.67943" lon="1.96637">
        <ele>70.5</ele>
        <time>2013-11-17T08:58:31.000+01:00</time>
      </trkpt>
      <trkpt lat="48.67936" lon="1.96629">
        <ele>75.7</ele>
        <time>2013-11-17T08:58:38.000+01:00</time>
      </trkpt>
      <trkpt lat="48.67929" lon="1.96627">
        <ele>69.6</ele>
        <time>2013-11-17T08:58:47.000+01:00</time>
      </trkpt>
      <trkpt lat="48.67925" lon="1.96618">
        <ele>68.5</ele>
        <time>2013-11-17T08:58:57.000+01:00</time>
      </trkpt>
      <trkpt lat="48.67916" lon="1.96612">
        <ele>70.2</ele>
        <time>2013-11-17T08:58:59.000+01:00</time>
      </trkpt>
      <trkpt lat="48.67914" lon="1.966">
        <ele>80.5</ele>
        <time>2013-11-17T08:59:05.000+01:00</time>
      </trkpt>
      <trkpt lat="48.67923" lon="1.96609">
        <ele>84.7</ele>
        <time>2013-11-17T08:59:07.000+01:00</time>
      </trkpt>
      <trkpt lat="48.67932" lon="1.96613">
        <ele>86.7</ele>
        <time>2013-11-17T08:59:10.000+01:00</time>
      </trkpt>
      <trkpt lat="48.6793" lon="1.96607">
        <ele>100.4</ele>
        <time>2013-11-17T08:59:12.000+01:00</time>
      </trkpt>
      <trkpt lat="48.67923" lon="1.96607">
        <ele>110.9</ele>
        <time>2013-11-17T08:59:17.000+01:00</time>
      </trkpt>
      <trkpt lat="48.67913" lon="1.96607">
        <ele>120.6</ele>
        <time>2013-11-17T08:59:26.000+01:00</time>
      </trkpt>
      <trkpt lat="48.67903" lon="1.96605">
        <ele>126</ele>
        <time>2013-11-17T08:59:35.000+01:00</time>
      </trkpt>
      <trkpt lat="48.67897" lon="1.96602">
        <ele>127.3</ele>
        <time>2013-11-17T08:59:44.000+01:00</time>
      </trkpt>
      <trkpt lat="48.67895" lon="1.96593">
        <ele>125.9</ele>
        <time>2013-11-17T08:59:58.000+01:00</time>
      </trkpt>
      <trkpt lat="48.67895" lon="1.96589">
        <ele>123.5</ele>
        <time>2013-11-17T09:00:06.000+01:00</time>
      </trkpt>
      <trkpt lat="48.679" lon="1.9659">
        <ele>129.7</ele>
        <time>2013-11-17T09:00:14.000+01:00</time>
      </trkpt>
      <trkpt lat="48.679" lon="1.96591">
        <ele>129.8</ele>
        <time>2013-11-17T09:00:27.000+01:00</time>
      </trkpt>
      <trkpt lat="48.67895" lon="1.96601">
        <ele>133.1</ele>
        <time>2013-11-17T09:00:32.000+01:00</time>
      </trkpt>
      <trkpt lat="48.67894" lon="1.96594">
        <ele>131.5</ele>
        <time>2013-11-17T09:00:46.000+01:00</time>
      </trkpt>
      <trkpt lat="48.67887" lon="1.966">
        <ele>134.6</ele>
        <time>2013-11-17T09:00:53.000+01:00</time>
      </trkpt>
      <trkpt lat="48.67895" lon="1.96591">
        <ele>137</ele>
        <time>2013-11-17T09:00:58.000+01:00</time>
      </trkpt>
      <trkpt lat="48.67887" lon="1.96597">
        <ele>139</ele>
        <time>2013-11-17T09:01:06.000+01:00</time>
      </trkpt>
      <trkpt lat="48.67881" lon="1.96602">
        <ele>136.9</ele>
        <time>2013-11-17T09:01:17.000+01:00</time>
      </trkpt>
      <trkpt lat="48.6789" lon="1.96593">
        <ele>136.3</ele>
        <time>2013-11-17T09:01:22.000+01:00</time>
      </trkpt>
      <trkpt lat="48.67899" lon="1.96585">
        <ele>136.1</ele>
        <time>2013-11-17T09:01:28.000+01:00</time>
      </trkpt>
      <trkpt lat="48.679" lon="1.96587">
        <ele>133.9</ele>
        <time>2013-11-17T09:01:33.000+01:00</time>
      </trkpt>
      <trkpt lat="48.67895" lon="1.96595">
        <ele>116</ele>
        <time>2013-11-17T09:01:47.000+01:00</time>
      </trkpt>
      <trkpt lat="48.6789" lon="1.96609">
        <ele>113.8</ele>
        <time>2013-11-17T09:01:54.000+01:00</time>
      </trkpt>
      <trkpt lat="48.67896" lon="1.96612">
        <ele>111.9</ele>
        <time>2013-11-17T09:02:02.000+01:00</time>
      </trkpt>
      <trkpt lat="48.67906" lon="1.96612">
        <ele>107.2</ele>
        <time>2013-11-17T09:02:10.000+01:00</time>
      </trkpt>
      <trkpt lat="48.67915" lon="1.96615">
        <ele>104.8</ele>
        <time>2013-11-17T09:02:12.000+01:00</time>
      </trkpt>
      <trkpt lat="48.67935" lon="1.9662">
        <ele>103.2</ele>
        <time>2013-11-17T09:02:14.000+01:00</time>
      </trkpt>
      <trkpt lat="48.67945" lon="1.96625">
        <ele>97.8</ele>
        <time>2013-11-17T09:02:16.000+01:00</time>
      </trkpt>
      <trkpt lat="48.67938" lon="1.96625">
        <ele>96.3</ele>
        <time>2013-11-17T09:02:18.000+01:00</time>
      </trkpt>
      <trkpt lat="48.67929" lon="1.96622">
        <ele>98.3</ele>
        <time>2013-11-17T09:02:21.000+01:00</time>
      </trkpt>
      <trkpt lat="48.6792" lon="1.96617">
        <ele>99</ele>
        <time>2013-11-17T09:02:23.000+01:00</time>
      </trkpt>
      <trkpt lat="48.67911" lon="1.96612">
        <ele>95.8</ele>
        <time>2013-11-17T09:02:27.000+01:00</time>
      </trkpt>
      <trkpt lat="48.67907" lon="1.96608">
        <ele>97</ele>
        <time>2013-11-17T09:02:31.000+01:00</time>
      </trkpt>
      <trkpt lat="48.67911" lon="1.96611">
        <ele>91.4</ele>
        <time>2013-11-17T09:02:36.000+01:00</time>
      </trkpt>
      <trkpt lat="48.67916" lon="1.96608">
        <ele>93.2</ele>
        <time>2013-11-17T09:02:40.000+01:00</time>
      </trkpt>
      <trkpt lat="48.679" lon="1.96603">
        <ele>95.4</ele>
        <time>2013-11-17T09:02:43.000+01:00</time>
      </trkpt>
      <trkpt lat="48.67894" lon="1.96601">
        <ele>94.5</ele>
        <time>2013-11-17T09:02:45.000+01:00</time>
      </trkpt>
      <trkpt lat="48.67903" lon="1.966">
        <ele>90.9</ele>
        <time>2013-11-17T09:02:50.000+01:00</time>
      </trkpt>
      <trkpt lat="48.67904" lon="1.96593">
        <ele>92.8</ele>
        <time>2013-11-17T09:02:54.000+01:00</time>
      </trkpt>
      <trkpt lat="48.67906" lon="1.9659">
        <ele>94</ele>
        <time>2013-11-17T09:02:56.000+01:00</time>
      </trkpt>
      <trkpt lat="48.67898" lon="1.96585">
        <ele>94.4</ele>
        <time>2013-11-17T09:02:58.000+01:00</time>
      </trkpt>
      <trkpt lat="48.67902" lon="1.96576">
        <ele>98.6</ele>
        <time>2013-11-17T09:03:04.000+01:00</time>
      </trkpt>
      <trkpt lat="48.67906" lon="1.96574">
        <ele>101.1</ele>
        <time>2013-11-17T09:03:09.000+01:00</time>
      </trkpt>
      <trkpt lat="48.67917" lon="1.96569">
        <ele>102.4</ele>
        <time>2013-11-17T09:03:12.000+01:00</time>
      </trkpt>
      <trkpt lat="48.67929" lon="1.96565">
        <ele>103.2</ele>
        <time>2013-11-17T09:03:17.000+01:00</time>
      </trkpt>
      <trkpt lat="48.67939" lon="1.96562">
        <ele>103.4</ele>
        <time>2013-11-17T09:03:21.000+01:00</time>
      </trkpt>
      <trkpt lat="48.67929" lon="1.96567">
        <ele>98.3</ele>
        <time>2013-11-17T09:03:27.000+01:00</time>
      </trkpt>
      <trkpt lat="48.67914" lon="1.96563">
        <ele>99.8</ele>
        <time>2013-11-17T09:03:33.000+01:00</time>
      </trkpt>
      <trkpt lat="48.67905" lon="1.96559">
        <ele>100.3</ele>
        <time>2013-11-17T09:03:34.000+01:00</time>
      </trkpt>
      <trkpt lat="48.67914" lon="1.96555">
        <ele>101</ele>
        <time>2013-11-17T09:03:36.000+01:00</time>
      </trkpt>
      <trkpt lat="48.67906" lon="1.96558">
        <ele>97.7</ele>
        <time>2013-11-17T09:03:41.000+01:00</time>
      </trkpt>
      <trkpt lat="48.67903" lon="1.96557">
        <ele>95.9</ele>
        <time>2013-11-17T09:03:48.000+01:00</time>
      </trkpt>
      <trkpt lat="48.67913" lon="1.96561">
        <ele>92.2</ele>
        <time>2013-11-17T09:03:55.000+01:00</time>
      </trkpt>
      <trkpt lat="48.67923" lon="1.96561">
        <ele>90.3</ele>
        <time>2013-11-17T09:03:59.000+01:00</time>
      </trkpt>
      <trkpt lat="48.67918" lon="1.96563">
        <ele>78.5</ele>
        <time>2013-11-17T09:04:04.000+01:00</time>
      </trkpt>
      <trkpt lat="48.67927" lon="1.96568">
        <ele>77.7</ele>
        <time>2013-11-17T09:04:07.000+01:00</time>
      </trkpt>
      <trkpt lat="48.67944" lon="1.96571">
        <ele>74.9</ele>
        <time>2013-11-17T09:04:09.000+01:00</time>
      </trkpt>
      <trkpt lat="48.67934" lon="1.96568">
        <ele>71.9</ele>
        <time>2013-11-17T09:04:12.000+01:00</time>
      </trkpt>
      <trkpt lat="48.67923" lon="1.96563">
        <ele>71</ele>
        <time>2013-11-17T09:04:16.000+01:00</time>
      </trkpt>
      <trkpt lat="48.67923" lon="1.9656">
        <ele>70.5</ele>
        <time>2013-11-17T09:04:19.000+01:00</time>
      </trkpt>
      <trkpt lat="48.67934" lon="1.9656">
        <ele>68.1</ele>
        <time>2013-11-17T09:04:21.000+01:00</time>
      </trkpt>
      <trkpt lat="48.67949" lon="1.96561">
        <ele>67.5</ele>
        <time>2013-11-17T09:04:23.000+01:00</time>
      </trkpt>
      <trkpt lat="48.67958" lon="1.96562">
        <ele>66.9</ele>
        <time>2013-11-17T09:04:24.000+01:00</time>
      </trkpt>
      <trkpt lat="48.67968" lon="1.96562">
        <ele>65.2</ele>
        <time>2013-11-17T09:04:27.000+01:00</time>
      </trkpt>
      <trkpt lat="48.67979" lon="1.96563">
        <ele>63.2</ele>
        <time>2013-11-17T09:04:30.000+01:00</time>
      </trkpt>
      <trkpt lat="48.67974" lon="1.9656">
        <ele>61.1</ele>
        <time>2013-11-17T09:04:34.000+01:00</time>
      </trkpt>
      <trkpt lat="48.67965" lon="1.96557">
        <ele>61.7</ele>
        <time>2013-11-17T09:04:35.000+01:00</time>
      </trkpt>
      <trkpt lat="48.67951" lon="1.96554">
        <ele>65.1</ele>
        <time>2013-11-17T09:04:37.000+01:00</time>
      </trkpt>
      <trkpt lat="48.67953" lon="1.96546">
        <ele>68.9</ele>
        <time>2013-11-17T09:04:47.000+01:00</time>
      </trkpt>
      <trkpt lat="48.67959" lon="1.96537">
        <ele>70.6</ele>
        <time>2013-11-17T09:04:56.000+01:00</time>
      </trkpt>
      <trkpt lat="48.67969" lon="1.96536">
        <ele>75.3</ele>
        <time>2013-11-17T09:05:00.000+01:00</time>
      </trkpt>
      <trkpt lat="48.67965" lon="1.96525">
        <ele>83.4</ele>
        <time>2013-11-17T09:05:11.000+01:00</time>
      </trkpt>
      <trkpt lat="48.67958" lon="1.96518">
        <ele>90.6</ele>
        <time>2013-11-17T09:05:19.000+01:00</time>
      </trkpt>
      <trkpt lat="48.67957" lon="1.96507">
        <ele>97.8</ele>
        <time>2013-11-17T09:05:28.000+01:00</time>
      </trkpt>
      <trkpt lat="48.67944" lon="1.96509">
        <ele>103.6</ele>
        <time>2013-11-17T09:05:36.000+01:00</time>
      </trkpt>
      <trkpt lat="48.67949" lon="1.96516">
        <ele>102.1</ele>
        <time>2013-11-17T09:05:43.000+01:00</time>
      </trkpt>
      <trkpt lat="48.67957" lon="1.96513">
        <ele>106.3</ele>
        <time>2013-11-17T09:05:47.000+01:00</time>
      </trkpt>
      <trkpt lat="48.67961" lon="1.96516">
        <ele>103.7</ele>
        <time>2013-11-17T09:05:53.000+01:00</time>
      </trkpt>
      <trkpt lat="48.67951" lon="1.96517">
        <ele>99.4</ele>
        <time>2013-11-17T09:05:56.000+01:00</time>
      </trkpt>
      <trkpt lat="48.67958" lon="1.96523">
        <ele>102.1</ele>
        <time>2013-11-17T09:06:05.000+01:00</time>
      </trkpt>
      <trkpt lat="48.67969" lon="1.96527">
        <ele>107.5</ele>
        <time>2013-11-17T09:06:08.000+01:00</time>
      </trkpt>
      <trkpt lat="48.67982" lon="1.96532">
        <ele>106.1</ele>
        <time>2013-11-17T09:06:12.000+01:00</time>
      </trkpt>
      <trkpt lat="48.6799" lon="1.96537">
        <ele>102.1</ele>
        <time>2013-11-17T09:06:14.000+01:00</time>
      </trkpt>
      <trkpt lat="48.68002" lon="1.96543">
        <ele>103.6</ele>
        <time>2013-11-17T09:06:16.000+01:00</time>
      </trkpt>
      <trkpt lat="48.68015" lon="1.96547">
        <ele>104.5</ele>
        <time>2013-11-17T09:06:21.000+01:00</time>
      </trkpt>
      <trkpt lat="48.68028" lon="1.9655">
        <ele>105.8</ele>
        <time>2013-11-17T09:06:23.000+01:00</time>
      </trkpt>
      <trkpt lat="48.68028" lon="1.96548">
        <ele>112.8</ele>
        <time>2013-11-17T09:06:27.000+01:00</time>
      </trkpt>
      <trkpt lat="48.68013" lon="1.96543">
        <ele>115.8</ele>
        <time>2013-11-17T09:06:30.000+01:00</time>
      </trkpt>
      <trkpt lat="48.68003" lon="1.96539">
        <ele>115.1</ele>
        <time>2013-11-17T09:06:32.000+01:00</time>
      </trkpt>
      <trkpt lat="48.67988" lon="1.96536">
        <ele>115.9</ele>
        <time>2013-11-17T09:06:35.000+01:00</time>
      </trkpt>
      <trkpt lat="48.67976" lon="1.96534">
        <ele>117.2</ele>
        <time>2013-11-17T09:06:37.000+01:00</time>
      </trkpt>
      <trkpt lat="48.67963" lon="1.96531">
        <ele>120.1</ele>
        <time>2013-11-17T09:06:39.000+01:00</time>
      </trkpt>
      <trkpt lat="48.67952" lon="1.96528">
        <ele>121.2</ele>
        <time>2013-11-17T09:06:40.000+01:00</time>
      </trkpt>
      <trkpt lat="48.67942" lon="1.96527">
        <ele>121.2</ele>
        <time>2013-11-17T09:06:41.000+01:00</time>
      </trkpt>
      <trkpt lat="48.67943" lon="1.96525">
        <ele>124.9</ele>
        <time>2013-11-17T09:06:45.000+01:00</time>
      </trkpt>
      <trkpt lat="48.67938" lon="1.96516">
        <ele>128.1</ele>
        <time>2013-11-17T09:06:49.000+01:00</time>
      </trkpt>
      <trkpt lat="48.6793" lon="1.9651">
        <ele>129.7</ele>
        <time>2013-11-17T09:06:53.000+01:00</time>
      </trkpt>
      <trkpt lat="48.67929" lon="1.96506">
        <ele>131.3</ele>
        <time>2013-11-17T09:06:56.000+01:00</time>
      </trkpt>
      <trkpt lat="48.67919" lon="1.96501">
        <ele>133.3</ele>
        <time>2013-11-17T09:06:59.000+01:00</time>
      </trkpt>
      <trkpt lat="48.67912" lon="1.96499">
        <ele>134.9</ele>
        <time>2013-11-17T09:07:03.000+01:00</time>
      </trkpt>
      <trkpt lat="48.67919" lon="1.96496">
        <ele>139</ele>
        <time>2013-11-17T09:07:06.000+01:00</time>
      </trkpt>
      <trkpt lat="48.67934" lon="1.96498">
        <ele>140.2</ele>
        <time>2013-11-17T09:07:09.000+01:00</time>
      </trkpt>
      <trkpt lat="48.67937" lon="1.96498">
        <ele>142.3</ele>
        <time>2013-11-17T09:07:13.000+01:00</time>
      </trkpt>
      <trkpt lat="48.67948" lon="1.965">
        <ele>144.8</ele>
        <time>2013-11-17T09:07:16.000+01:00</time>
      </trkpt>
      <trkpt lat="48.67939" lon="1.96496">
        <ele>150.8</ele>
        <time>2013-11-17T09:07:19.000+01:00</time>
      </trkpt>
      <trkpt lat="48.67927" lon="1.96491">
        <ele>150.4</ele>
        <time>2013-11-17T09:07:21.000+01:00</time>
      </trkpt>
      <trkpt lat="48.67917" lon="1.96487">
        <ele>155.6</ele>
        <time>2013-11-17T09:07:24.000+01:00</time>
      </trkpt>
      <trkpt lat="48.67908" lon="1.96482">
        <ele>160.1</ele>
        <time>2013-11-17T09:07:28.000+01:00</time>
      </trkpt>
      <trkpt lat="48.67898" lon="1.96477">
        <ele>163</ele>
        <time>2013-11-17T09:07:33.000+01:00</time>
      </trkpt>
      <trkpt lat="48.67906" lon="1.96479">
        <ele>168.3</ele>
        <time>2013-11-17T09:07:36.000+01:00</time>
      </trkpt>
      <trkpt lat="48.67916" lon="1.96482">
        <ele>168.4</ele>
        <time>2013-11-17T09:07:39.000+01:00</time>
      </trkpt>
      <trkpt lat="48.67912" lon="1.96482">
        <ele>172.2</ele>
        <time>2013-11-17T09:07:43.000+01:00</time>
      </trkpt>
      <trkpt lat="48.67899" lon="1.96479">
        <ele>172.8</ele>
        <time>2013-11-17T09:07:45.000+01:00</time>
      </trkpt>
      <trkpt lat="48.67886" lon="1.96475">
        <ele>176.9</ele>
        <time>2013-11-17T09:07:48.000+01:00</time>
      </trkpt>
      <trkpt lat="48.67873" lon="1.96473">
        <ele>180.7</ele>
        <time>2013-11-17T09:07:50.000+01:00</time>
      </trkpt>
      <trkpt lat="48.67861" lon="1.9647">
        <ele>178.8</ele>
        <time>2013-11-17T09:07:53.000+01:00</time>
      </trkpt>
      <trkpt lat="48.67847" lon="1.96464">
        <ele>179.1</ele>
        <time>2013-11-17T09:07:55.000+01:00</time>
      </trkpt>
      <trkpt lat="48.67833" lon="1.9646">
        <ele>177</ele>
        <time>2013-11-17T09:07:57.000+01:00</time>
      </trkpt>
      <trkpt lat="48.67822" lon="1.96458">
        <ele>174</ele>
        <time>2013-11-17T09:08:00.000+01:00</time>
      </trkpt>
      <trkpt lat="48.67812" lon="1.96456">
        <ele>171.6</ele>
        <time>2013-11-17T09:08:02.000+01:00</time>
      </trkpt>
      <trkpt lat="48.67804" lon="1.96456">
        <ele>162.2</ele>
        <time>2013-11-17T09:08:09.000+01:00</time>
      </trkpt>
      <trkpt lat="48.67811" lon="1.96456">
        <ele>158.2</ele>
        <time>2013-11-17T09:08:16.000+01:00</time>
      </trkpt>
      <trkpt lat="48.67814" lon="1.96456">
        <ele>155.4</ele>
        <time>2013-11-17T09:08:21.000+01:00</time>
      </trkpt>
      <trkpt lat="48.67802" lon="1.96454">
        <ele>155</ele>
        <time>2013-11-17T09:08:23.000+01:00</time>
      </trkpt>
      <trkpt lat="48.67799" lon="1.96456">
        <ele>151.6</ele>
        <time>2013-11-17T09:08:26.000+01:00</time>
      </trkpt>
      <trkpt lat="48.67793" lon="1.96463">
        <ele>141.4</ele>
        <time>2013-11-17T09:08:33.000+01:00</time>
      </trkpt>
      <trkpt lat="48.6779" lon="1.96465">
        <ele>139.9</ele>
        <time>2013-11-17T09:08:35.000+01:00</time>
      </trkpt>
      <trkpt lat="48.67788" lon="1.96469">
        <ele>139</ele>
        <time>2013-11-17T09:08:39.000+01:00</time>
      </trkpt>
      <trkpt lat="48.67797" lon="1.96472">
        <ele>137.2</ele>
        <time>2013-11-17T09:08:44.000+01:00</time>
      </trkpt>
      <trkpt lat="48.67807" lon="1.96476">
        <ele>133.1</ele>
        <time>2013-11-17T09:08:47.000+01:00</time>
      </trkpt>
      <trkpt lat="48.67812" lon="1.96478">
        <ele>135.6</ele>
        <time>2013-11-17T09:08:50.000+01:00</time>
      </trkpt>
      <trkpt lat="48.67808" lon="1.96479">
        <ele>136.8</ele>
        <time>2013-11-17T09:08:53.000+01:00</time>
      </trkpt>
      <trkpt lat="48.67807" lon="1.96477">
        <ele>136.5</ele>
        <time>2013-11-17T09:08:58.000+01:00</time>
      </trkpt>
      <trkpt lat="48.67795" lon="1.96473">
        <ele>134.6</ele>
        <time>2013-11-17T09:09:02.000+01:00</time>
      </trkpt>
      <trkpt lat="48.67793" lon="1.9647">
        <ele>131</ele>
        <time>2013-11-17T09:09:07.000+01:00</time>
      </trkpt>
      <trkpt lat="48.67806" lon="1.96469">
        <ele>132.8</ele>
        <time>2013-11-17T09:09:14.000+01:00</time>
      </trkpt>
      <trkpt lat="48.67816" lon="1.9647">
        <ele>135.3</ele>
        <time>2013-11-17T09:09:16.000+01:00</time>
      </trkpt>
      <trkpt lat="48.67825" lon="1.96473">
        <ele>131.1</ele>
        <time>2013-11-17T09:09:20.000+01:00</time>
      </trkpt>
      <trkpt lat="48.67836" lon="1.96474">
        <ele>131.7</ele>
        <time>2013-11-17T09:09:22.000+01:00</time>
      </trkpt>
      <trkpt lat="48.67839" lon="1.96475">
        <ele>132.5</ele>
        <time>2013-11-17T09:09:25.000+01:00</time>
      </trkpt>
      <trkpt lat="48.67831" lon="1.96468">
        <ele>131</ele>
        <time>2013-11-17T09:09:30.000+01:00</time>
      </trkpt>
      <trkpt lat="48.6782" lon="1.96463">
        <ele>128.5</ele>
        <time>2013-11-17T09:09:31.000+01:00</time>
      </trkpt>
      <trkpt lat="48.67818" lon="1.96461">
        <ele>121.1</ele>
        <time>2013-11-17T09:09:35.000+01:00</time>
      </trkpt>
      <trkpt lat="48.67817" lon="1.9646">
        <ele>119</ele>
        <time>2013-11-17T09:09:37.000+01:00</time>
      </trkpt>
      <trkpt lat="48.67827" lon="1.96458">
        <ele>121.4</ele>
        <time>2013-11-17T09:09:41.000+01:00</time>
      </trkpt>
      <trkpt lat="48.67818" lon="1.96452">
        <ele>120.5</ele>
        <time>2013-11-17T09:09:45.000+01:00</time>
      </trkpt>
      <trkpt lat="48.67809" lon="1.96449">
        <ele>119.8</ele>
        <time>2013-11-17T09:09:46.000+01:00</time>
      </trkpt>
      <trkpt lat="48.67815" lon="1.96443">
        <ele>119.1</ele>
        <time>2013-11-17T09:09:50.000+01:00</time>
      </trkpt>
      <trkpt lat="48.67824" lon="1.96435">
        <ele>126.3</ele>
        <time>2013-11-17T09:09:55.000+01:00</time>
      </trkpt>
      <trkpt lat="48.67834" lon="1.96431">
        <ele>128.9</ele>
        <time>2013-11-17T09:10:00.000+01:00</time>
      </trkpt>
      <trkpt lat="48.67825" lon="1.96426">
        <ele>124</ele>
        <time>2013-11-17T09:10:05.000+01:00</time>
      </trkpt>
      <trkpt lat="48.67813" lon="1.96423">
        <ele>122.1</ele>
        <time>2013-11-17T09:10:08.000+01:00</time>
      </trkpt>
      <trkpt lat="48.67809" lon="1.96424">
        <ele>118.2</ele>
        <time>2013-11-17T09:10:12.000+01:00</time>
      </trkpt>
      <trkpt lat="48.67808" lon="1.96424">
        <ele>116.5</ele>
        <time>2013-11-17T09:10:16.000+01:00</time>
      </trkpt>
      <trkpt lat="48.67806" lon="1.96422">
        <ele>115.5</ele>
        <time>2013-11-17T09:10:22.000+01:00</time>
      </trkpt>
      <trkpt lat="48.67808" lon="1.96419">
        <ele>114.6</ele>
        <time>2013-11-17T09:10:27.000+01:00</time>
      </trkpt>
      <trkpt lat="48.67819" lon="1.9642">
        <ele>118.2</ele>
        <time>2013-11-17T09:10:29.000+01:00</time>
      </trkpt>
      <trkpt lat="48.67812" lon="1.96412">
        <ele>120.5</ele>
        <time>2013-11-17T09:10:34.000+01:00</time>
      </trkpt>
      <trkpt lat="48.67815" lon="1.96405">
        <ele>116.9</ele>
        <time>2013-11-17T09:10:41.000+01:00</time>
      </trkpt>
      <trkpt lat="48.67821" lon="1.96405">
        <ele>116.2</ele>
        <time>2013-11-17T09:10:44.000+01:00</time>
      </trkpt>
      <trkpt lat="48.67808" lon="1.96398">
        <ele>117.9</ele>
        <time>2013-11-17T09:10:49.000+01:00</time>
      </trkpt>
      <trkpt lat="48.67794" lon="1.96391">
        <ele>116.3</ele>
        <time>2013-11-17T09:10:52.000+01:00</time>
      </trkpt>
      <trkpt lat="48.67784" lon="1.96386">
        <ele>114.3</ele>
        <time>2013-11-17T09:10:55.000+01:00</time>
      </trkpt>
      <trkpt lat="48.67784" lon="1.96385">
        <ele>115.1</ele>
        <time>2013-11-17T09:10:59.000+01:00</time>
      </trkpt>
      <trkpt lat="48.67787" lon="1.96385">
        <ele>114.6</ele>
        <time>2013-11-17T09:11:02.000+01:00</time>
      </trkpt>
      <trkpt lat="48.67797" lon="1.96386">
        <ele>111.5</ele>
        <time>2013-11-17T09:11:05.000+01:00</time>
      </trkpt>
      <trkpt lat="48.67773" lon="1.96383">
        <ele>113.2</ele>
        <time>2013-11-17T09:11:07.000+01:00</time>
      </trkpt>
      <trkpt lat="48.67759" lon="1.96381">
        <ele>113.3</ele>
        <time>2013-11-17T09:11:10.000+01:00</time>
      </trkpt>
      <trkpt lat="48.67745" lon="1.96379">
        <ele>114.6</ele>
        <time>2013-11-17T09:11:12.000+01:00</time>
      </trkpt>
      <trkpt lat="48.67733" lon="1.96374">
        <ele>113.4</ele>
        <time>2013-11-17T09:11:15.000+01:00</time>
      </trkpt>
      <trkpt lat="48.67725" lon="1.96367">
        <ele>111.8</ele>
        <time>2013-11-17T09:11:18.000+01:00</time>
      </trkpt>
      <trkpt lat="48.67726" lon="1.96362">
        <ele>109.1</ele>
        <time>2013-11-17T09:11:22.000+01:00</time>
      </trkpt>
      <trkpt lat="48.67737" lon="1.96361">
        <ele>107.5</ele>
        <time>2013-11-17T09:11:24.000+01:00</time>
      </trkpt>
      <trkpt lat="48.67747" lon="1.9636">
        <ele>105</ele>
        <time>2013-11-17T09:11:26.000+01:00</time>
      </trkpt>
      <trkpt lat="48.6776" lon="1.96361">
        <ele>101.5</ele>
        <time>2013-11-17T09:11:28.000+01:00</time>
      </trkpt>
      <trkpt lat="48.67758" lon="1.96358">
        <ele>102</ele>
        <time>2013-11-17T09:11:31.000+01:00</time>
      </trkpt>
      <trkpt lat="48.67747" lon="1.96354">
        <ele>101.3</ele>
        <time>2013-11-17T09:11:32.000+01:00</time>
      </trkpt>
      <trkpt lat="48.67746" lon="1.96351">
        <ele>99.5</ele>
        <time>2013-11-17T09:11:34.000+01:00</time>
      </trkpt>
      <trkpt lat="48.67755" lon="1.96346">
        <ele>95.1</ele>
        <time>2013-11-17T09:11:38.000+01:00</time>
      </trkpt>
      <trkpt lat="48.67766" lon="1.96345">
        <ele>95.5</ele>
        <time>2013-11-17T09:11:40.000+01:00</time>
      </trkpt>
      <trkpt lat="48.67778" lon="1.96345">
        <ele>95.9</ele>
        <time>2013-11-17T09:11:41.000+01:00</time>
      </trkpt>
      <trkpt lat="48.67788" lon="1.96345">
        <ele>96.5</ele>
        <time>2013-11-17T09:11:42.000+01:00</time>
      </trkpt>
      <trkpt lat="48.67788" lon="1.96338">
        <ele>96.7</ele>
        <time>2013-11-17T09:11:46.000+01:00</time>
      </trkpt>
      <trkpt lat="48.67789" lon="1.96335">
        <ele>102.1</ele>
        <time>2013-11-17T09:11:50.000+01:00</time>
      </trkpt>
      <trkpt lat="48.678" lon="1.96335">
        <ele>102.6</ele>
        <time>2013-11-17T09:11:51.000+01:00</time>
      </trkpt>
      <trkpt lat="48.67814" lon="1.96332">
        <ele>105.3</ele>
        <time>2013-11-17T09:11:54.000+01:00</time>
      </trkpt>
      <trkpt lat="48.67822" lon="1.96328">
        <ele>108.2</ele>
        <time>2013-11-17T09:11:58.000+01:00</time>
      </trkpt>
      <trkpt lat="48.67827" lon="1.96325">
        <ele>109.5</ele>
        <time>2013-11-17T09:12:01.000+01:00</time>
      </trkpt>
      <trkpt lat="48.67834" lon="1.96324">
        <ele>111.4</ele>
        <time>2013-11-17T09:12:03.000+01:00</time>
      </trkpt>
      <trkpt lat="48.67835" lon="1.96319">
        <ele>110</ele>
        <time>2013-11-17T09:12:07.000+01:00</time>
      </trkpt>
      <trkpt lat="48.67846" lon="1.96319">
        <ele>108.1</ele>
        <time>2013-11-17T09:12:10.000+01:00</time>
      </trkpt>
      <trkpt lat="48.6786" lon="1.96319">
        <ele>110.3</ele>
        <time>2013-11-17T09:12:12.000+01:00</time>
      </trkpt>
      <trkpt lat="48.67847" lon="1.96314">
        <ele>106.4</ele>
        <time>2013-11-17T09:12:15.000+01:00</time>
      </trkpt>
      <trkpt lat="48.67833" lon="1.96311">
        <ele>101.1</ele>
        <time>2013-11-17T09:12:17.000+01:00</time>
      </trkpt>
      <trkpt lat="48.67818" lon="1.96309">
        <ele>98.7</ele>
        <time>2013-11-17T09:12:18.000+01:00</time>
      </trkpt>
      <trkpt lat="48.67806" lon="1.96307">
        <ele>97.7</ele>
        <time>2013-11-17T09:12:19.000+01:00</time>
      </trkpt>
      <trkpt lat="48.67796" lon="1.96301">
        <ele>94.2</ele>
        <time>2013-11-17T09:12:22.000+01:00</time>
      </trkpt>
      <trkpt lat="48.67789" lon="1.96294">
        <ele>92.1</ele>
        <time>2013-11-17T09:12:26.000+01:00</time>
      </trkpt>
      <trkpt lat="48.67774" lon="1.96291">
        <ele>91.7</ele>
        <time>2013-11-17T09:12:28.000+01:00</time>
      </trkpt>
      <trkpt lat="48.67759" lon="1.9629">
        <ele>91.5</ele>
        <time>2013-11-17T09:12:29.000+01:00</time>
      </trkpt>
      <trkpt lat="48.67748" lon="1.96288">
        <ele>91.1</ele>
        <time>2013-11-17T09:12:30.000+01:00</time>
      </trkpt>
      <trkpt lat="48.67752" lon="1.96281">
        <ele>88.3</ele>
        <time>2013-11-17T09:12:33.000+01:00</time>
      </trkpt>
      <trkpt lat="48.67749" lon="1.96274">
        <ele>88.8</ele>
        <time>2013-11-17T09:12:37.000+01:00</time>
      </trkpt>
      <trkpt lat="48.67737" lon="1.96273">
        <ele>88.9</ele>
        <time>2013-11-17T09:12:38.000+01:00</time>
      </trkpt>
      <trkpt lat="48.67732" lon="1.96272">
        <ele>85.9</ele>
        <time>2013-11-17T09:12:40.000+01:00</time>
      </trkpt>
      <trkpt lat="48.67742" lon="1.96273">
        <ele>84.5</ele>
        <time>2013-11-17T09:12:43.000+01:00</time>
      </trkpt>
      <trkpt lat="48.67754" lon="1.96274">
        <ele>85</ele>
        <time>2013-11-17T09:12:45.000+01:00</time>
      </trkpt>
      <trkpt lat="48.67746" lon="1.9627">
        <ele>89.2</ele>
        <time>2013-11-17T09:12:48.000+01:00</time>
      </trkpt>
      <trkpt lat="48.67739" lon="1.96266">
        <ele>92</ele>
        <time>2013-11-17T09:12:50.000+01:00</time>
      </trkpt>
      <trkpt lat="48.67756" lon="1.96262">
        <ele>91.8</ele>
        <time>2013-11-17T09:12:53.000+01:00</time>
      </trkpt>
      <trkpt lat="48.67768" lon="1.96262">
        <ele>90.7</ele>
        <time>2013-11-17T09:12:54.000+01:00</time>
      </trkpt>
      <trkpt lat="48.67777" lon="1.96262">
        <ele>89.6</ele>
        <time>2013-11-17T09:12:55.000+01:00</time>
      </trkpt>
      <trkpt lat="48.67788" lon="1.96262">
        <ele>89.2</ele>
        <time>2013-11-17T09:12:56.000+01:00</time>
      </trkpt>
      <trkpt lat="48.678" lon="1.96262">
        <ele>89.7</ele>
        <time>2013-11-17T09:12:57.000+01:00</time>
      </trkpt>
      <trkpt lat="48.67812" lon="1.96259">
        <ele>87.7</ele>
        <time>2013-11-17T09:13:00.000+01:00</time>
      </trkpt>
      <trkpt lat="48.67821" lon="1.96256">
        <ele>85.8</ele>
        <time>2013-11-17T09:13:03.000+01:00</time>
      </trkpt>
      <trkpt lat="48.67811" lon="1.96253">
        <ele>82.4</ele>
        <time>2013-11-17T09:13:06.000+01:00</time>
      </trkpt>
      <trkpt lat="48.67807" lon="1.9625">
        <ele>82.2</ele>
        <time>2013-11-17T09:13:08.000+01:00</time>
      </trkpt>
      <trkpt lat="48.67791" lon="1.96248">
        <ele>83.3</ele>
        <time>2013-11-17T09:13:09.000+01:00</time>
      </trkpt>
      <trkpt lat="48.67774" lon="1.96246">
        <ele>83.9</ele>
        <time>2013-11-17T09:13:10.000+01:00</time>
      </trkpt>
      <trkpt lat="48.67764" lon="1.96245">
        <ele>84.9</ele>
        <time>2013-11-17T09:13:11.000+01:00</time>
      </trkpt>
      <trkpt lat="48.6775" lon="1.96243">
        <ele>86</ele>
        <time>2013-11-17T09:13:12.000+01:00</time>
      </trkpt>
      <trkpt lat="48.67732" lon="1.9624">
        <ele>86.8</ele>
        <time>2013-11-17T09:13:13.000+01:00</time>
      </trkpt>
      <trkpt lat="48.67719" lon="1.96237">
        <ele>87.1</ele>
        <time>2013-11-17T09:13:14.000+01:00</time>
      </trkpt>
      <trkpt lat="48.67707" lon="1.96232">
        <ele>87.1</ele>
        <time>2013-11-17T09:13:16.000+01:00</time>
      </trkpt>
      <trkpt lat="48.67697" lon="1.96229">
        <ele>85.6</ele>
        <time>2013-11-17T09:13:18.000+01:00</time>
      </trkpt>
      <trkpt lat="48.67715" lon="1.96224">
        <ele>82.7</ele>
        <time>2013-11-17T09:13:20.000+01:00</time>
      </trkpt>
      <trkpt lat="48.6771" lon="1.96222">
        <ele>81</ele>
        <time>2013-11-17T09:13:22.000+01:00</time>
      </trkpt>
      <trkpt lat="48.67717" lon="1.9622">
        <ele>79.7</ele>
        <time>2013-11-17T09:13:24.000+01:00</time>
      </trkpt>
      <trkpt lat="48.6773" lon="1.96219">
        <ele>80.2</ele>
        <time>2013-11-17T09:13:25.000+01:00</time>
      </trkpt>
      <trkpt lat="48.67731" lon="1.96218">
        <ele>77</ele>
        <time>2013-11-17T09:13:29.000+01:00</time>
      </trkpt>
      <trkpt lat="48.67748" lon="1.96218">
        <ele>76.6</ele>
        <time>2013-11-17T09:13:30.000+01:00</time>
      </trkpt>
      <trkpt lat="48.67758" lon="1.96217">
        <ele>77.4</ele>
        <time>2013-11-17T09:13:32.000+01:00</time>
      </trkpt>
      <trkpt lat="48.67767" lon="1.96215">
        <ele>80.9</ele>
        <time>2013-11-17T09:13:34.000+01:00</time>
      </trkpt>
      <trkpt lat="48.67772" lon="1.96213">
        <ele>84</ele>
        <time>2013-11-17T09:13:38.000+01:00</time>
      </trkpt>
      <trkpt lat="48.67781" lon="1.96212">
        <ele>84.2</ele>
        <time>2013-11-17T09:13:40.000+01:00</time>
      </trkpt>
      <trkpt lat="48.67795" lon="1.96214">
        <ele>85.7</ele>
        <time>2013-11-17T09:13:41.000+01:00</time>
      </trkpt>
      <trkpt lat="48.67804" lon="1.96214">
        <ele>85.4</ele>
        <time>2013-11-17T09:13:42.000+01:00</time>
      </trkpt>
      <trkpt lat="48.67816" lon="1.96214">
        <ele>84.7</ele>
        <time>2013-11-17T09:13:43.000+01:00</time>
      </trkpt>
      <trkpt lat="48.67827" lon="1.96208">
        <ele>86.3</ele>
        <time>2013-11-17T09:13:47.000+01:00</time>
      </trkpt>
      <trkpt lat="48.67807" lon="1.96204">
        <ele>87</ele>
        <time>2013-11-17T09:13:50.000+01:00</time>
      </trkpt>
      <trkpt lat="48.67789" lon="1.96202">
        <ele>87.4</ele>
        <time>2013-11-17T09:13:51.000+01:00</time>
      </trkpt>
      <trkpt lat="48.67766" lon="1.96198">
        <ele>88.2</ele>
        <time>2013-11-17T09:13:52.000+01:00</time>
      </trkpt>
      <trkpt lat="48.67754" lon="1.96195">
        <ele>87.9</ele>
        <time>2013-11-17T09:13:53.000+01:00</time>
      </trkpt>
      <trkpt lat="48.67764" lon="1.96189">
        <ele>87.2</ele>
        <time>2013-11-17T09:13:57.000+01:00</time>
      </trkpt>
      <trkpt lat="48.67774" lon="1.96188">
        <ele>88.2</ele>
        <time>2013-11-17T09:13:58.000+01:00</time>
      </trkpt>
      <trkpt lat="48.67782" lon="1.96183">
        <ele>87.7</ele>
        <time>2013-11-17T09:14:01.000+01:00</time>
      </trkpt>
      <trkpt lat="48.67768" lon="1.96177">
        <ele>87.2</ele>
        <time>2013-11-17T09:14:05.000+01:00</time>
      </trkpt>
      <trkpt lat="48.67765" lon="1.96171">
        <ele>87.4</ele>
        <time>2013-11-17T09:14:08.000+01:00</time>
      </trkpt>
      <trkpt lat="48.67746" lon="1.96164">
        <ele>87.7</ele>
        <time>2013-11-17T09:14:10.000+01:00</time>
      </trkpt>
      <trkpt lat="48.67723" lon="1.96163">
        <ele>87.6</ele>
        <time>2013-11-17T09:14:11.000+01:00</time>
      </trkpt>
      <trkpt lat="48.67709" lon="1.96163">
        <ele>87.6</ele>
        <time>2013-11-17T09:14:12.000+01:00</time>
      </trkpt>
      <trkpt lat="48.67721" lon="1.96165">
        <ele>87.3</ele>
        <time>2013-11-17T09:14:14.000+01:00</time>
      </trkpt>
      <trkpt lat="48.67705" lon="1.96165">
        <ele>86.9</ele>
        <time>2013-11-17T09:14:16.000+01:00</time>
      </trkpt>
      <trkpt lat="48.67687" lon="1.96164">
        <ele>85.6</ele>
        <time>2013-11-17T09:14:17.000+01:00</time>
      </trkpt>
      <trkpt lat="48.67675" lon="1.96165">
        <ele>84.9</ele>
        <time>2013-11-17T09:14:18.000+01:00</time>
      </trkpt>
      <trkpt lat="48.67695" lon="1.96166">
        <ele>86.4</ele>
        <time>2013-11-17T09:14:20.000+01:00</time>
      </trkpt>
      <trkpt lat="48.67694" lon="1.96168">
        <ele>88.4</ele>
        <time>2013-11-17T09:14:23.000+01:00</time>
      </trkpt>
      <trkpt lat="48.67686" lon="1.96166">
        <ele>89.1</ele>
        <time>2013-11-17T09:14:26.000+01:00</time>
      </trkpt>
      <trkpt lat="48.67695" lon="1.96161">
        <ele>88.9</ele>
        <time>2013-11-17T09:14:29.000+01:00</time>
      </trkpt>
      <trkpt lat="48.67706" lon="1.96158">
        <ele>88.5</ele>
        <time>2013-11-17T09:14:31.000+01:00</time>
      </trkpt>
      <trkpt lat="48.67716" lon="1.96156">
        <ele>86.9</ele>
        <time>2013-11-17T09:14:36.000+01:00</time>
      </trkpt>
      <trkpt lat="48.67723" lon="1.96153">
        <ele>84.8</ele>
        <time>2013-11-17T09:14:42.000+01:00</time>
      </trkpt>
      <trkpt lat="48.67728" lon="1.96152">
        <ele>83</ele>
        <time>2013-11-17T09:14:47.000+01:00</time>
      </trkpt>
      <trkpt lat="48.67737" lon="1.96151">
        <ele>81.7</ele>
        <time>2013-11-17T09:14:51.000+01:00</time>
      </trkpt>
      <trkpt lat="48.67748" lon="1.9615">
        <ele>81.1</ele>
        <time>2013-11-17T09:14:57.000+01:00</time>
      </trkpt>
      <trkpt lat="48.67742" lon="1.96151">
        <ele>81.8</ele>
        <time>2013-11-17T09:15:00.000+01:00</time>
      </trkpt>
      <trkpt lat="48.67733" lon="1.9615">
        <ele>81.6</ele>
        <time>2013-11-17T09:15:03.000+01:00</time>
      </trkpt>
      <trkpt lat="48.67727" lon="1.96152">
        <ele>80.2</ele>
        <time>2013-11-17T09:15:08.000+01:00</time>
      </trkpt>
      <trkpt lat="48.67739" lon="1.96152">
        <ele>79.4</ele>
        <time>2013-11-17T09:15:10.000+01:00</time>
      </trkpt>
      <trkpt lat="48.67749" lon="1.96152">
        <ele>78.5</ele>
        <time>2013-11-17T09:15:12.000+01:00</time>
      </trkpt>
      <trkpt lat="48.67764" lon="1.96154">
        <ele>76.5</ele>
        <time>2013-11-17T09:15:15.000+01:00</time>
      </trkpt>
      <trkpt lat="48.67769" lon="1.9616">
        <ele>70.2</ele>
        <time>2013-11-17T09:15:21.000+01:00</time>
      </trkpt>
      <trkpt lat="48.67772" lon="1.96159">
        <ele>64.1</ele>
        <time>2013-11-17T09:15:24.000+01:00</time>
      </trkpt>
      <trkpt lat="48.67761" lon="1.96159">
        <ele>64</ele>
        <time>2013-11-17T09:15:25.000+01:00</time>
      </trkpt>
      <trkpt lat="48.67789" lon="1.96156">
        <ele>65.3</ele>
        <time>2013-11-17T09:15:27.000+01:00</time>
      </trkpt>
      <trkpt lat="48.67801" lon="1.96154">
        <ele>65.4</ele>
        <time>2013-11-17T09:15:28.000+01:00</time>
      </trkpt>
      <trkpt lat="48.67835" lon="1.96154">
        <ele>65.5</ele>
        <time>2013-11-17T09:15:29.000+01:00</time>
      </trkpt>
      <trkpt lat="48.67856" lon="1.96154">
        <ele>65.7</ele>
        <time>2013-11-17T09:15:30.000+01:00</time>
      </trkpt>
      <trkpt lat="48.67848" lon="1.96152">
        <ele>66.7</ele>
        <time>2013-11-17T09:15:32.000+01:00</time>
      </trkpt>
      <trkpt lat="48.67863" lon="1.96151">
        <ele>67.2</ele>
        <time>2013-11-17T09:15:34.000+01:00</time>
      </trkpt>
      <trkpt lat="48.67873" lon="1.96151">
        <ele>66.8</ele>
        <time>2013-11-17T09:15:35.000+01:00</time>
      </trkpt>
      <trkpt lat="48.67868" lon="1.96145">
        <ele>66.6</ele>
        <time>2013-11-17T09:15:39.000+01:00</time>
      </trkpt>
      <trkpt lat="48.67885" lon="1.96144">
        <ele>65.3</ele>
        <time>2013-11-17T09:15:42.000+01:00</time>
      </trkpt>
      <trkpt lat="48.679" lon="1.96142">
        <ele>64.3</ele>
        <time>2013-11-17T09:15:44.000+01:00</time>
      </trkpt>
      <trkpt lat="48.67914" lon="1.9614">
        <ele>63</ele>
        <time>2013-11-17T09:15:47.000+01:00</time>
      </trkpt>
      <trkpt lat="48.67926" lon="1.96137">
        <ele>62.3</ele>
        <time>2013-11-17T09:15:49.000+01:00</time>
      </trkpt>
      <trkpt lat="48.67936" lon="1.96135">
        <ele>61.7</ele>
        <time>2013-11-17T09:15:51.000+01:00</time>
      </trkpt>
      <trkpt lat="48.67941" lon="1.96134">
        <ele>60.6</ele>
        <time>2013-11-17T09:15:54.000+01:00</time>
      </trkpt>
      <trkpt lat="48.67925" lon="1.96138">
        <ele>59.7</ele>
        <time>2013-11-17T09:15:56.000+01:00</time>
      </trkpt>
      <trkpt lat="48.67928" lon="1.96137">
        <ele>58.3</ele>
        <time>2013-11-17T09:15:59.000+01:00</time>
      </trkpt>
      <trkpt lat="48.67927" lon="1.96142">
        <ele>56.5</ele>
        <time>2013-11-17T09:16:02.000+01:00</time>
      </trkpt>
      <trkpt lat="48.67886" lon="1.9615">
        <ele>51.3</ele>
        <time>2013-11-17T09:16:09.000+01:00</time>
      </trkpt>
      <trkpt lat="48.67876" lon="1.96151">
        <ele>50.8</ele>
        <time>2013-11-17T09:16:10.000+01:00</time>
      </trkpt>
      <trkpt lat="48.67863" lon="1.96152">
        <ele>50.3</ele>
        <time>2013-11-17T09:16:11.000+01:00</time>
      </trkpt>
      <trkpt lat="48.67849" lon="1.96153">
        <ele>48.8</ele>
        <time>2013-11-17T09:16:14.000+01:00</time>
      </trkpt>
      <trkpt lat="48.67838" lon="1.96153">
        <ele>47.2</ele>
        <time>2013-11-17T09:16:18.000+01:00</time>
      </trkpt>
      <trkpt lat="48.67816" lon="1.96153">
        <ele>46.6</ele>
        <time>2013-11-17T09:16:20.000+01:00</time>
      </trkpt>
      <trkpt lat="48.67807" lon="1.96152">
        <ele>46.3</ele>
        <time>2013-11-17T09:16:21.000+01:00</time>
      </trkpt>
      <trkpt lat="48.67812" lon="1.96152">
        <ele>44.9</ele>
        <time>2013-11-17T09:16:25.000+01:00</time>
      </trkpt>
      <trkpt lat="48.67824" lon="1.96151">
        <ele>44.1</ele>
        <time>2013-11-17T09:16:28.000+01:00</time>
      </trkpt>
      <trkpt lat="48.67836" lon="1.96152">
        <ele>43.1</ele>
        <time>2013-11-17T09:16:30.000+01:00</time>
      </trkpt>
      <trkpt lat="48.67854" lon="1.96152">
        <ele>42.6</ele>
        <time>2013-11-17T09:16:31.000+01:00</time>
      </trkpt>
      <trkpt lat="48.67873" lon="1.96153">
        <ele>41.5</ele>
        <time>2013-11-17T09:16:33.000+01:00</time>
      </trkpt>
      <trkpt lat="48.67867" lon="1.96153">
        <ele>40.5</ele>
        <time>2013-11-17T09:16:36.000+01:00</time>
      </trkpt>
      <trkpt lat="48.67878" lon="1.96154">
        <ele>38.9</ele>
        <time>2013-11-17T09:16:39.000+01:00</time>
      </trkpt>
      <trkpt lat="48.67889" lon="1.96153">
        <ele>37.4</ele>
        <time>2013-11-17T09:16:42.000+01:00</time>
      </trkpt>
      <trkpt lat="48.67903" lon="1.96152">
        <ele>36.4</ele>
        <time>2013-11-17T09:16:44.000+01:00</time>
      </trkpt>
      <trkpt lat="48.67913" lon="1.96152">
        <ele>34.7</ele>
        <time>2013-11-17T09:16:47.000+01:00</time>
      </trkpt>
      <trkpt lat="48.6788" lon="1.9616">
        <ele>38.1</ele>
        <time>2013-11-17T09:16:49.000+01:00</time>
      </trkpt>
      <trkpt lat="48.67862" lon="1.96159">
        <ele>41.4</ele>
        <time>2013-11-17T09:16:50.000+01:00</time>
      </trkpt>
      <trkpt lat="48.67849" lon="1.96155">
        <ele>47.4</ele>
        <time>2013-11-17T09:16:52.000+01:00</time>
      </trkpt>
      <trkpt lat="48.67834" lon="1.96151">
        <ele>72.1</ele>
        <time>2013-11-17T09:16:54.000+01:00</time>
      </trkpt>
      <trkpt lat="48.6775" lon="1.96144">
        <ele>81.7</ele>
        <time>2013-11-17T09:16:55.000+01:00</time>
      </trkpt>
      <trkpt lat="48.67714" lon="1.96141">
        <ele>87.4</ele>
        <time>2013-11-17T09:16:56.000+01:00</time>
      </trkpt>
      <trkpt lat="48.67694" lon="1.96139">
        <ele>91.4</ele>
        <time>2013-11-17T09:16:57.000+01:00</time>
      </trkpt>
      <trkpt lat="48.67679" lon="1.96138">
        <ele>95</ele>
        <time>2013-11-17T09:16:58.000+01:00</time>
      </trkpt>
      <trkpt lat="48.67669" lon="1.96133">
        <ele>101.2</ele>
        <time>2013-11-17T09:17:00.000+01:00</time>
      </trkpt>
      <trkpt lat="48.6765" lon="1.96128">
        <ele>110.9</ele>
        <time>2013-11-17T09:17:02.000+01:00</time>
      </trkpt>
      <trkpt lat="48.67638" lon="1.96126">
        <ele>113.8</ele>
        <time>2013-11-17T09:17:03.000+01:00</time>
      </trkpt>
      <trkpt lat="48.67627" lon="1.96124">
        <ele>118.4</ele>
        <time>2013-11-17T09:17:05.000+01:00</time>
      </trkpt>
      <trkpt lat="48.67614" lon="1.96122">
        <ele>129</ele>
        <time>2013-11-17T09:17:08.000+01:00</time>
      </trkpt>
      <trkpt lat="48.67598" lon="1.96124">
        <ele>137.4</ele>
        <time>2013-11-17T09:17:11.000+01:00</time>
      </trkpt>
      <trkpt lat="48.67609" lon="1.96129">
        <ele>140.1</ele>
        <time>2013-11-17T09:17:13.000+01:00</time>
      </trkpt>
      <trkpt lat="48.67622" lon="1.96131">
        <ele>140.4</ele>
        <time>2013-11-17T09:17:14.000+01:00</time>
      </trkpt>
      <trkpt lat="48.67632" lon="1.96132">
        <ele>142.9</ele>
        <time>2013-11-17T09:17:15.000+01:00</time>
      </trkpt>
      <trkpt lat="48.67648" lon="1.96133">
        <ele>145.6</ele>
        <time>2013-11-17T09:17:17.000+01:00</time>
      </trkpt>
      <trkpt lat="48.67663" lon="1.96134">
        <ele>145.4</ele>
        <time>2013-11-17T09:17:18.000+01:00</time>
      </trkpt>
      <trkpt lat="48.67677" lon="1.96135">
        <ele>146.3</ele>
        <time>2013-11-17T09:17:19.000+01:00</time>
      </trkpt>
      <trkpt lat="48.67689" lon="1.96134">
        <ele>145.3</ele>
        <time>2013-11-17T09:17:20.000+01:00</time>
      </trkpt>
      <trkpt lat="48.67706" lon="1.96135">
        <ele>143.9</ele>
        <time>2013-11-17T09:17:21.000+01:00</time>
      </trkpt>
      <trkpt lat="48.67738" lon="1.96137">
        <ele>142.8</ele>
        <time>2013-11-17T09:17:22.000+01:00</time>
      </trkpt>
      <trkpt lat="48.67748" lon="1.96137">
        <ele>141.5</ele>
        <time>2013-11-17T09:17:23.000+01:00</time>
      </trkpt>
      <trkpt lat="48.67779" lon="1.96138">
        <ele>140.3</ele>
        <time>2013-11-17T09:17:24.000+01:00</time>
      </trkpt>
      <trkpt lat="48.67769" lon="1.96135">
        <ele>132</ele>
        <time>2013-11-17T09:17:28.000+01:00</time>
      </trkpt>
      <trkpt lat="48.67755" lon="1.96133">
        <ele>129.4</ele>
        <time>2013-11-17T09:17:29.000+01:00</time>
      </trkpt>
      <trkpt lat="48.67729" lon="1.9613">
        <ele>124.6</ele>
        <time>2013-11-17T09:17:31.000+01:00</time>
      </trkpt>
      <trkpt lat="48.67705" lon="1.96128">
        <ele>122.6</ele>
        <time>2013-11-17T09:17:32.000+01:00</time>
      </trkpt>
      <trkpt lat="48.67698" lon="1.96122">
        <ele>119.9</ele>
        <time>2013-11-17T09:17:34.000+01:00</time>
      </trkpt>
      <trkpt lat="48.67679" lon="1.96119">
        <ele>118.7</ele>
        <time>2013-11-17T09:17:35.000+01:00</time>
      </trkpt>
      <trkpt lat="48.67669" lon="1.96116">
        <ele>118.8</ele>
        <time>2013-11-17T09:17:36.000+01:00</time>
      </trkpt>
      <trkpt lat="48.67647" lon="1.96113">
        <ele>118.9</ele>
        <time>2013-11-17T09:17:37.000+01:00</time>
      </trkpt>
      <trkpt lat="48.6763" lon="1.96111">
        <ele>119.2</ele>
        <time>2013-11-17T09:17:38.000+01:00</time>
      </trkpt>
      <trkpt lat="48.67616" lon="1.96109">
        <ele>119.9</ele>
        <time>2013-11-17T09:17:39.000+01:00</time>
      </trkpt>
      <trkpt lat="48.67595" lon="1.96106">
        <ele>121.1</ele>
        <time>2013-11-17T09:17:40.000+01:00</time>
      </trkpt>
      <trkpt lat="48.67586" lon="1.96103">
        <ele>120.7</ele>
        <time>2013-11-17T09:17:42.000+01:00</time>
      </trkpt>
      <trkpt lat="48.67574" lon="1.96103">
        <ele>121.1</ele>
        <time>2013-11-17T09:17:43.000+01:00</time>
      </trkpt>
      <trkpt lat="48.67574" lon="1.96095">
        <ele>123.1</ele>
        <time>2013-11-17T09:17:48.000+01:00</time>
      </trkpt>
      <trkpt lat="48.67575" lon="1.96084">
        <ele>123.3</ele>
        <time>2013-11-17T09:17:51.000+01:00</time>
      </trkpt>
      <trkpt lat="48.67579" lon="1.96075">
        <ele>119.5</ele>
        <time>2013-11-17T09:17:54.000+01:00</time>
      </trkpt>
      <trkpt lat="48.67599" lon="1.96074">
        <ele>120.4</ele>
        <time>2013-11-17T09:17:56.000+01:00</time>
      </trkpt>
      <trkpt lat="48.6763" lon="1.96074">
        <ele>119.3</ele>
        <time>2013-11-17T09:17:57.000+01:00</time>
      </trkpt>
      <trkpt lat="48.6766" lon="1.96074">
        <ele>118.4</ele>
        <time>2013-11-17T09:17:58.000+01:00</time>
      </trkpt>
      <trkpt lat="48.67689" lon="1.96074">
        <ele>118.3</ele>
        <time>2013-11-17T09:17:59.000+01:00</time>
      </trkpt>
      <trkpt lat="48.67714" lon="1.96071">
        <ele>117.6</ele>
        <time>2013-11-17T09:18:01.000+01:00</time>
      </trkpt>
      <trkpt lat="48.67722" lon="1.96064">
        <ele>115.2</ele>
        <time>2013-11-17T09:18:04.000+01:00</time>
      </trkpt>
      <trkpt lat="48.67721" lon="1.96059">
        <ele>115.6</ele>
        <time>2013-11-17T09:18:06.000+01:00</time>
      </trkpt>
      <trkpt lat="48.67705" lon="1.96054">
        <ele>116.2</ele>
        <time>2013-11-17T09:18:08.000+01:00</time>
      </trkpt>
      <trkpt lat="48.67719" lon="1.96053">
        <ele>116.5</ele>
        <time>2013-11-17T09:18:09.000+01:00</time>
      </trkpt>
      <trkpt lat="48.67741" lon="1.96049">
        <ele>117.2</ele>
        <time>2013-11-17T09:18:11.000+01:00</time>
      </trkpt>
      <trkpt lat="48.6775" lon="1.96046">
        <ele>116.8</ele>
        <time>2013-11-17T09:18:13.000+01:00</time>
      </trkpt>
      <trkpt lat="48.67775" lon="1.96045">
        <ele>115.8</ele>
        <time>2013-11-17T09:18:14.000+01:00</time>
      </trkpt>
      <trkpt lat="48.67789" lon="1.96043">
        <ele>116.5</ele>
        <time>2013-11-17T09:18:15.000+01:00</time>
      </trkpt>
      <trkpt lat="48.67772" lon="1.96039">
        <ele>118.5</ele>
        <time>2013-11-17T09:18:17.000+01:00</time>
      </trkpt>
      <trkpt lat="48.67744" lon="1.96036">
        <ele>120.1</ele>
        <time>2013-11-17T09:18:18.000+01:00</time>
      </trkpt>
      <trkpt lat="48.67726" lon="1.96033">
        <ele>122.1</ele>
        <time>2013-11-17T09:18:19.000+01:00</time>
      </trkpt>
      <trkpt lat="48.67702" lon="1.9603">
        <ele>123.1</ele>
        <time>2013-11-17T09:18:20.000+01:00</time>
      </trkpt>
      <trkpt lat="48.67674" lon="1.96027">
        <ele>122.3</ele>
        <time>2013-11-17T09:18:21.000+01:00</time>
      </trkpt>
      <trkpt lat="48.67679" lon="1.96024">
        <ele>121.5</ele>
        <time>2013-11-17T09:18:23.000+01:00</time>
      </trkpt>
      <trkpt lat="48.67691" lon="1.96022">
        <ele>121</ele>
        <time>2013-11-17T09:18:24.000+01:00</time>
      </trkpt>
      <trkpt lat="48.67717" lon="1.96022">
        <ele>118.5</ele>
        <time>2013-11-17T09:18:25.000+01:00</time>
      </trkpt>
      <trkpt lat="48.67685" lon="1.96019">
        <ele>116.7</ele>
        <time>2013-11-17T09:18:26.000+01:00</time>
      </trkpt>
      <trkpt lat="48.67688" lon="1.96008">
        <ele>116.2</ele>
        <time>2013-11-17T09:18:32.000+01:00</time>
      </trkpt>
      <trkpt lat="48.67686" lon="1.95998">
        <ele>122.6</ele>
        <time>2013-11-17T09:18:38.000+01:00</time>
      </trkpt>
      <trkpt lat="48.67676" lon="1.95989">
        <ele>138</ele>
        <time>2013-11-17T09:18:42.000+01:00</time>
      </trkpt>
      <trkpt lat="48.67678" lon="1.95979">
        <ele>136.6</ele>
        <time>2013-11-17T09:18:48.000+01:00</time>
      </trkpt>
      <trkpt lat="48.67684" lon="1.95971">
        <ele>134.9</ele>
        <time>2013-11-17T09:18:55.000+01:00</time>
      </trkpt>
      <trkpt lat="48.67685" lon="1.95958">
        <ele>129.2</ele>
        <time>2013-11-17T09:19:01.000+01:00</time>
      </trkpt>
      <trkpt lat="48.67689" lon="1.95947">
        <ele>123.2</ele>
        <time>2013-11-17T09:19:08.000+01:00</time>
      </trkpt>
      <trkpt lat="48.67691" lon="1.95935">
        <ele>124.6</ele>
        <time>2013-11-17T09:19:15.000+01:00</time>
      </trkpt>
      <trkpt lat="48.67697" lon="1.95927">
        <ele>115.8</ele>
        <time>2013-11-17T09:19:22.000+01:00</time>
      </trkpt>
      <trkpt lat="48.67707" lon="1.95921">
        <ele>108.5</ele>
        <time>2013-11-17T09:19:27.000+01:00</time>
      </trkpt>
      <trkpt lat="48.6771" lon="1.9591">
        <ele>109.2</ele>
        <time>2013-11-17T09:19:34.000+01:00</time>
      </trkpt>
      <trkpt lat="48.67713" lon="1.95898">
        <ele>115.8</ele>
        <time>2013-11-17T09:19:41.000+01:00</time>
      </trkpt>
      <trkpt lat="48.67714" lon="1.95884">
        <ele>120.7</ele>
        <time>2013-11-17T09:19:49.000+01:00</time>
      </trkpt>
      <trkpt lat="48.67719" lon="1.95875">
        <ele>126.5</ele>
        <time>2013-11-17T09:19:57.000+01:00</time>
      </trkpt>
      <trkpt lat="48.67717" lon="1.95865">
        <ele>128.3</ele>
        <time>2013-11-17T09:20:04.000+01:00</time>
      </trkpt>
      <trkpt lat="48.67716" lon="1.95857">
        <ele>141</ele>
        <time>2013-11-17T09:20:10.000+01:00</time>
      </trkpt>
      <trkpt lat="48.67712" lon="1.95846">
        <ele>154.2</ele>
        <time>2013-11-17T09:20:16.000+01:00</time>
      </trkpt>
      <trkpt lat="48.67707" lon="1.95833">
        <ele>166.1</ele>
        <time>2013-11-17T09:20:23.000+01:00</time>
      </trkpt>
      <trkpt lat="48.67704" lon="1.95819">
        <ele>173.8</ele>
        <time>2013-11-17T09:20:30.000+01:00</time>
      </trkpt>
      <trkpt lat="48.67704" lon="1.95806">
        <ele>174.4</ele>
        <time>2013-11-17T09:20:37.000+01:00</time>
      </trkpt>
      <trkpt lat="48.67711" lon="1.95799">
        <ele>168.7</ele>
        <time>2013-11-17T09:20:44.000+01:00</time>
      </trkpt>
      <trkpt lat="48.6772" lon="1.95797">
        <ele>157.7</ele>
        <time>2013-11-17T09:20:49.000+01:00</time>
      </trkpt>
      <trkpt lat="48.67728" lon="1.95792">
        <ele>147.5</ele>
        <time>2013-11-17T09:20:53.000+01:00</time>
      </trkpt>
      <trkpt lat="48.67735" lon="1.95786">
        <ele>134.9</ele>
        <time>2013-11-17T09:20:58.000+01:00</time>
      </trkpt>
      <trkpt lat="48.67744" lon="1.95781">
        <ele>127.5</ele>
        <time>2013-11-17T09:21:03.000+01:00</time>
      </trkpt>
      <trkpt lat="48.67743" lon="1.9577">
        <ele>132.9</ele>
        <time>2013-11-17T09:21:10.000+01:00</time>
      </trkpt>
      <trkpt lat="48.67747" lon="1.95762">
        <ele>123.4</ele>
        <time>2013-11-17T09:21:15.000+01:00</time>
      </trkpt>
      <trkpt lat="48.67757" lon="1.9576">
        <ele>116.6</ele>
        <time>2013-11-17T09:21:19.000+01:00</time>
      </trkpt>
      <trkpt lat="48.67765" lon="1.95754">
        <ele>108.1</ele>
        <time>2013-11-17T09:21:24.000+01:00</time>
      </trkpt>
      <trkpt lat="48.67774" lon="1.95749">
        <ele>100.7</ele>
        <time>2013-11-17T09:21:30.000+01:00</time>
      </trkpt>
      <trkpt lat="48.6778" lon="1.95744">
        <ele>104.2</ele>
        <time>2013-11-17T09:21:36.000+01:00</time>
      </trkpt>
      <trkpt lat="48.67781" lon="1.95735">
        <ele>118.4</ele>
        <time>2013-11-17T09:21:47.000+01:00</time>
      </trkpt>
      <trkpt lat="48.67787" lon="1.95729">
        <ele>118.2</ele>
        <time>2013-11-17T09:21:56.000+01:00</time>
      </trkpt>
      <trkpt lat="48.67795" lon="1.95725">
        <ele>106.6</ele>
        <time>2013-11-17T09:22:04.000+01:00</time>
      </trkpt>
      <trkpt lat="48.67802" lon="1.95718">
        <ele>103.9</ele>
        <time>2013-11-17T09:22:10.000+01:00</time>
      </trkpt>
      <trkpt lat="48.67799" lon="1.95706">
        <ele>115.8</ele>
        <time>2013-11-17T09:22:19.000+01:00</time>
      </trkpt>
      <trkpt lat="48.67795" lon="1.95695">
        <ele>127.4</ele>
        <time>2013-11-17T09:22:24.000+01:00</time>
      </trkpt>
      <trkpt lat="48.67796" lon="1.95685">
        <ele>127.7</ele>
        <time>2013-11-17T09:22:30.000+01:00</time>
      </trkpt>
      <trkpt lat="48.67803" lon="1.95678">
        <ele>120.2</ele>
        <time>2013-11-17T09:22:37.000+01:00</time>
      </trkpt>
      <trkpt lat="48.67811" lon="1.95675">
        <ele>112.1</ele>
        <time>2013-11-17T09:22:50.000+01:00</time>
      </trkpt>
      <trkpt lat="48.6782" lon="1.95674">
        <ele>102.5</ele>
        <time>2013-11-17T09:22:57.000+01:00</time>
      </trkpt>
      <trkpt lat="48.67829" lon="1.95668">
        <ele>97.2</ele>
        <time>2013-11-17T09:23:04.000+01:00</time>
      </trkpt>
      <trkpt lat="48.67834" lon="1.95658">
        <ele>100.5</ele>
        <time>2013-11-17T09:23:10.000+01:00</time>
      </trkpt>
      <trkpt lat="48.67837" lon="1.95652">
        <ele>101.7</ele>
        <time>2013-11-17T09:23:20.000+01:00</time>
      </trkpt>
      <trkpt lat="48.67841" lon="1.95645">
        <ele>104.9</ele>
        <time>2013-11-17T09:23:33.000+01:00</time>
      </trkpt>
      <trkpt lat="48.67838" lon="1.95635">
        <ele>119.4</ele>
        <time>2013-11-17T09:23:44.000+01:00</time>
      </trkpt>
      <trkpt lat="48.6784" lon="1.95624">
        <ele>123.6</ele>
        <time>2013-11-17T09:23:53.000+01:00</time>
      </trkpt>
      <trkpt lat="48.67834" lon="1.95614">
        <ele>137.3</ele>
        <time>2013-11-17T09:23:59.000+01:00</time>
      </trkpt>
      <trkpt lat="48.67838" lon="1.95602">
        <ele>127.7</ele>
        <time>2013-11-17T09:24:05.000+01:00</time>
      </trkpt>
      <trkpt lat="48.67835" lon="1.95588">
        <ele>135.6</ele>
        <time>2013-11-17T09:24:12.000+01:00</time>
      </trkpt>
      <trkpt lat="48.67837" lon="1.95577">
        <ele>136</ele>
        <time>2013-11-17T09:24:21.000+01:00</time>
      </trkpt>
      <trkpt lat="48.67844" lon="1.95568">
        <ele>129.1</ele>
        <time>2013-11-17T09:24:31.000+01:00</time>
      </trkpt>
      <trkpt lat="48.67842" lon="1.95558">
        <ele>136.7</ele>
        <time>2013-11-17T09:24:39.000+01:00</time>
      </trkpt>
      <trkpt lat="48.6784" lon="1.95547">
        <ele>144.5</ele>
        <time>2013-11-17T09:24:46.000+01:00</time>
      </trkpt>
      <trkpt lat="48.6784" lon="1.95537">
        <ele>138.1</ele>
        <time>2013-11-17T09:24:53.000+01:00</time>
      </trkpt>
      <trkpt lat="48.67843" lon="1.9553">
        <ele>144.2</ele>
        <time>2013-11-17T09:24:58.000+01:00</time>
      </trkpt>
      <trkpt lat="48.67845" lon="1.95519">
        <ele>141</ele>
        <time>2013-11-17T09:25:04.000+01:00</time>
      </trkpt>
      <trkpt lat="48.6784" lon="1.95506">
        <ele>145.3</ele>
        <time>2013-11-17T09:25:09.000+01:00</time>
      </trkpt>
      <trkpt lat="48.67842" lon="1.95498">
        <ele>152.5</ele>
        <time>2013-11-17T09:25:14.000+01:00</time>
      </trkpt>
      <trkpt lat="48.6784" lon="1.95486">
        <ele>151</ele>
        <time>2013-11-17T09:25:20.000+01:00</time>
      </trkpt>
      <trkpt lat="48.67842" lon="1.95472">
        <ele>146.1</ele>
        <time>2013-11-17T09:25:30.000+01:00</time>
      </trkpt>
      <trkpt lat="48.67843" lon="1.9546">
        <ele>137.3</ele>
        <time>2013-11-17T09:25:36.000+01:00</time>
      </trkpt>
      <trkpt lat="48.67842" lon="1.95446">
        <ele>139.8</ele>
        <time>2013-11-17T09:25:43.000+01:00</time>
      </trkpt>
      <trkpt lat="48.67849" lon="1.95438">
        <ele>130.9</ele>
        <time>2013-11-17T09:25:50.000+01:00</time>
      </trkpt>
      <trkpt lat="48.67855" lon="1.95427">
        <ele>133.8</ele>
        <time>2013-11-17T09:25:57.000+01:00</time>
      </trkpt>
      <trkpt lat="48.67862" lon="1.95419">
        <ele>128.8</ele>
        <time>2013-11-17T09:26:02.000+01:00</time>
      </trkpt>
      <trkpt lat="48.67862" lon="1.95408">
        <ele>136.4</ele>
        <time>2013-11-17T09:26:09.000+01:00</time>
      </trkpt>
      <trkpt lat="48.67859" lon="1.95397">
        <ele>153.7</ele>
        <time>2013-11-17T09:26:18.000+01:00</time>
      </trkpt>
      <trkpt lat="48.67865" lon="1.9539">
        <ele>147.4</ele>
        <time>2013-11-17T09:26:23.000+01:00</time>
      </trkpt>
      <trkpt lat="48.6787" lon="1.95379">
        <ele>147.9</ele>
        <time>2013-11-17T09:26:30.000+01:00</time>
      </trkpt>
      <trkpt lat="48.67875" lon="1.95369">
        <ele>143.5</ele>
        <time>2013-11-17T09:26:37.000+01:00</time>
      </trkpt>
      <trkpt lat="48.6788" lon="1.95357">
        <ele>137.7</ele>
        <time>2013-11-17T09:26:46.000+01:00</time>
      </trkpt>
      <trkpt lat="48.67889" lon="1.95349">
        <ele>128</ele>
        <time>2013-11-17T09:26:52.000+01:00</time>
      </trkpt>
      <trkpt lat="48.67898" lon="1.95343">
        <ele>117.4</ele>
        <time>2013-11-17T09:26:57.000+01:00</time>
      </trkpt>
      <trkpt lat="48.67902" lon="1.95334">
        <ele>121.5</ele>
        <time>2013-11-17T09:27:05.000+01:00</time>
      </trkpt>
      <trkpt lat="48.67903" lon="1.95326">
        <ele>115.1</ele>
        <time>2013-11-17T09:27:10.000+01:00</time>
      </trkpt>
      <trkpt lat="48.67909" lon="1.95316">
        <ele>111.4</ele>
        <time>2013-11-17T09:27:15.000+01:00</time>
      </trkpt>
      <trkpt lat="48.67916" lon="1.95311">
        <ele>118</ele>
        <time>2013-11-17T09:27:25.000+01:00</time>
      </trkpt>
      <trkpt lat="48.6792" lon="1.95301">
        <ele>122.3</ele>
        <time>2013-11-17T09:27:35.000+01:00</time>
      </trkpt>
      <trkpt lat="48.67925" lon="1.95291">
        <ele>126.1</ele>
        <time>2013-11-17T09:27:45.000+01:00</time>
      </trkpt>
      <trkpt lat="48.67923" lon="1.95276">
        <ele>138.8</ele>
        <time>2013-11-17T09:27:55.000+01:00</time>
      </trkpt>
      <trkpt lat="48.67928" lon="1.95265">
        <ele>128.2</ele>
        <time>2013-11-17T09:28:01.000+01:00</time>
      </trkpt>
      <trkpt lat="48.6793" lon="1.95254">
        <ele>129.3</ele>
        <time>2013-11-17T09:28:08.000+01:00</time>
      </trkpt>
      <trkpt lat="48.67927" lon="1.95239">
        <ele>136.7</ele>
        <time>2013-11-17T09:28:16.000+01:00</time>
      </trkpt>
      <trkpt lat="48.67923" lon="1.95227">
        <ele>147.2</ele>
        <time>2013-11-17T09:28:23.000+01:00</time>
      </trkpt>
      <trkpt lat="48.67923" lon="1.95215">
        <ele>153</ele>
        <time>2013-11-17T09:28:32.000+01:00</time>
      </trkpt>
      <trkpt lat="48.67927" lon="1.95207">
        <ele>147.2</ele>
        <time>2013-11-17T09:28:40.000+01:00</time>
      </trkpt>
      <trkpt lat="48.6793" lon="1.95198">
        <ele>147.2</ele>
        <time>2013-11-17T09:28:47.000+01:00</time>
      </trkpt>
      <trkpt lat="48.6793" lon="1.95184">
        <ele>141</ele>
        <time>2013-11-17T09:28:54.000+01:00</time>
      </trkpt>
      <trkpt lat="48.67935" lon="1.95175">
        <ele>130.3</ele>
        <time>2013-11-17T09:29:06.000+01:00</time>
      </trkpt>
      <trkpt lat="48.6794" lon="1.95167">
        <ele>122.6</ele>
        <time>2013-11-17T09:29:13.000+01:00</time>
      </trkpt>
      <trkpt lat="48.67948" lon="1.95158">
        <ele>111.1</ele>
        <time>2013-11-17T09:29:19.000+01:00</time>
      </trkpt>
      <trkpt lat="48.67947" lon="1.95146">
        <ele>117.3</ele>
        <time>2013-11-17T09:29:28.000+01:00</time>
      </trkpt>
      <trkpt lat="48.67949" lon="1.95134">
        <ele>120.8</ele>
        <time>2013-11-17T09:29:34.000+01:00</time>
      </trkpt>
      <trkpt lat="48.67958" lon="1.95126">
        <ele>107.3</ele>
        <time>2013-11-17T09:29:40.000+01:00</time>
      </trkpt>
      <trkpt lat="48.67963" lon="1.9512">
        <ele>100.2</ele>
        <time>2013-11-17T09:29:48.000+01:00</time>
      </trkpt>
      <trkpt lat="48.67967" lon="1.95112">
        <ele>103.5</ele>
        <time>2013-11-17T09:29:55.000+01:00</time>
      </trkpt>
      <trkpt lat="48.67965" lon="1.951">
        <ele>117.5</ele>
        <time>2013-11-17T09:30:05.000+01:00</time>
      </trkpt>
      <trkpt lat="48.67962" lon="1.95088">
        <ele>126</ele>
        <time>2013-11-17T09:30:11.000+01:00</time>
      </trkpt>
      <trkpt lat="48.67954" lon="1.9508">
        <ele>143.9</ele>
        <time>2013-11-17T09:30:17.000+01:00</time>
      </trkpt>
      <trkpt lat="48.6796" lon="1.9507">
        <ele>132.4</ele>
        <time>2013-11-17T09:30:24.000+01:00</time>
      </trkpt>
      <trkpt lat="48.67964" lon="1.95062">
        <ele>138</ele>
        <time>2013-11-17T09:30:33.000+01:00</time>
      </trkpt>
      <trkpt lat="48.67971" lon="1.95052">
        <ele>132.9</ele>
        <time>2013-11-17T09:30:40.000+01:00</time>
      </trkpt>
      <trkpt lat="48.67978" lon="1.95042">
        <ele>121</ele>
        <time>2013-11-17T09:30:45.000+01:00</time>
      </trkpt>
      <trkpt lat="48.67986" lon="1.95037">
        <ele>117.1</ele>
        <time>2013-11-17T09:30:52.000+01:00</time>
      </trkpt>
      <trkpt lat="48.67994" lon="1.95032">
        <ele>116.8</ele>
        <time>2013-11-17T09:30:58.000+01:00</time>
      </trkpt>
      <trkpt lat="48.68001" lon="1.95025">
        <ele>118.9</ele>
        <time>2013-11-17T09:31:07.000+01:00</time>
      </trkpt>
      <trkpt lat="48.68005" lon="1.95013">
        <ele>120.1</ele>
        <time>2013-11-17T09:31:15.000+01:00</time>
      </trkpt>
      <trkpt lat="48.68014" lon="1.95012">
        <ele>117.8</ele>
        <time>2013-11-17T09:31:21.000+01:00</time>
      </trkpt>
      <trkpt lat="48.68023" lon="1.95006">
        <ele>111.6</ele>
        <time>2013-11-17T09:31:27.000+01:00</time>
      </trkpt>
      <trkpt lat="48.68028" lon="1.94997">
        <ele>111</ele>
        <time>2013-11-17T09:31:33.000+01:00</time>
      </trkpt>
      <trkpt lat="48.68029" lon="1.94988">
        <ele>113.2</ele>
        <time>2013-11-17T09:31:41.000+01:00</time>
      </trkpt>
      <trkpt lat="48.68032" lon="1.94981">
        <ele>120.3</ele>
        <time>2013-11-17T09:31:49.000+01:00</time>
      </trkpt>
      <trkpt lat="48.68037" lon="1.9498">
        <ele>113.9</ele>
        <time>2013-11-17T09:31:55.000+01:00</time>
      </trkpt>
      <trkpt lat="48.68044" lon="1.94975">
        <ele>122</ele>
        <time>2013-11-17T09:32:05.000+01:00</time>
      </trkpt>
      <trkpt lat="48.68053" lon="1.94977">
        <ele>132.2</ele>
        <time>2013-11-17T09:32:09.000+01:00</time>
      </trkpt>
      <trkpt lat="48.68055" lon="1.9497">
        <ele>139</ele>
        <time>2013-11-17T09:32:15.000+01:00</time>
      </trkpt>
      <trkpt lat="48.68059" lon="1.94963">
        <ele>131.2</ele>
        <time>2013-11-17T09:32:22.000+01:00</time>
      </trkpt>
      <trkpt lat="48.68064" lon="1.94961">
        <ele>130.2</ele>
        <time>2013-11-17T09:32:29.000+01:00</time>
      </trkpt>
      <trkpt lat="48.6806" lon="1.94953">
        <ele>131.3</ele>
        <time>2013-11-17T09:32:36.000+01:00</time>
      </trkpt>
      <trkpt lat="48.68063" lon="1.94952">
        <ele>126.2</ele>
        <time>2013-11-17T09:32:45.000+01:00</time>
      </trkpt>
      <trkpt lat="48.68072" lon="1.94959">
        <ele>124.5</ele>
        <time>2013-11-17T09:32:51.000+01:00</time>
      </trkpt>
      <trkpt lat="48.68071" lon="1.94954">
        <ele>130.9</ele>
        <time>2013-11-17T09:33:06.000+01:00</time>
      </trkpt>
      <trkpt lat="48.68071" lon="1.94943">
        <ele>131.7</ele>
        <time>2013-11-17T09:33:14.000+01:00</time>
      </trkpt>
      <trkpt lat="48.6808" lon="1.94939">
        <ele>128.4</ele>
        <time>2013-11-17T09:33:19.000+01:00</time>
      </trkpt>
      <trkpt lat="48.68084" lon="1.94926">
        <ele>128.3</ele>
        <time>2013-11-17T09:33:26.000+01:00</time>
      </trkpt>
      <trkpt lat="48.68079" lon="1.94916">
        <ele>140.3</ele>
        <time>2013-11-17T09:33:33.000+01:00</time>
      </trkpt>
      <trkpt lat="48.6808" lon="1.94908">
        <ele>130.7</ele>
        <time>2013-11-17T09:33:40.000+01:00</time>
      </trkpt>
      <trkpt lat="48.68075" lon="1.94899">
        <ele>143.2</ele>
        <time>2013-11-17T09:33:48.000+01:00</time>
      </trkpt>
      <trkpt lat="48.68074" lon="1.94884">
        <ele>141.8</ele>
        <time>2013-11-17T09:33:56.000+01:00</time>
      </trkpt>
      <trkpt lat="48.68077" lon="1.94871">
        <ele>133</ele>
        <time>2013-11-17T09:34:02.000+01:00</time>
      </trkpt>
      <trkpt lat="48.68079" lon="1.94861">
        <ele>121.4</ele>
        <time>2013-11-17T09:34:11.000+01:00</time>
      </trkpt>
      <trkpt lat="48.68079" lon="1.94853">
        <ele>113.2</ele>
        <time>2013-11-17T09:34:24.000+01:00</time>
      </trkpt>
      <trkpt lat="48.68084" lon="1.94852">
        <ele>112.4</ele>
        <time>2013-11-17T09:34:33.000+01:00</time>
      </trkpt>
      <trkpt lat="48.68089" lon="1.94843">
        <ele>117.2</ele>
        <time>2013-11-17T09:34:44.000+01:00</time>
      </trkpt>
      <trkpt lat="48.68091" lon="1.94835">
        <ele>127.7</ele>
        <time>2013-11-17T09:34:58.000+01:00</time>
      </trkpt>
      <trkpt lat="48.68089" lon="1.94825">
        <ele>142.3</ele>
        <time>2013-11-17T09:35:09.000+01:00</time>
      </trkpt>
      <trkpt lat="48.68096" lon="1.94816">
        <ele>146</ele>
        <time>2013-11-17T09:35:19.000+01:00</time>
      </trkpt>
      <trkpt lat="48.68101" lon="1.94806">
        <ele>146.3</ele>
        <time>2013-11-17T09:35:27.000+01:00</time>
      </trkpt>
      <trkpt lat="48.68107" lon="1.94798">
        <ele>136.1</ele>
        <time>2013-11-17T09:35:35.000+01:00</time>
      </trkpt>
      <trkpt lat="48.68113" lon="1.94791">
        <ele>132.3</ele>
        <time>2013-11-17T09:35:42.000+01:00</time>
      </trkpt>
      <trkpt lat="48.68113" lon="1.9478">
        <ele>139.6</ele>
        <time>2013-11-17T09:35:52.000+01:00</time>
      </trkpt>
      <trkpt lat="48.6811" lon="1.94771">
        <ele>153</ele>
        <time>2013-11-17T09:36:00.000+01:00</time>
      </trkpt>
      <trkpt lat="48.68115" lon="1.9476">
        <ele>141.5</ele>
        <time>2013-11-17T09:36:08.000+01:00</time>
      </trkpt>
      <trkpt lat="48.68124" lon="1.94756">
        <ele>125.5</ele>
        <time>2013-11-17T09:36:13.000+01:00</time>
      </trkpt>
      <trkpt lat="48.68128" lon="1.94745">
        <ele>120.1</ele>
        <time>2013-11-17T09:36:19.000+01:00</time>
      </trkpt>
      <trkpt lat="48.68129" lon="1.94735">
        <ele>128.9</ele>
        <time>2013-11-17T09:36:26.000+01:00</time>
      </trkpt>
      <trkpt lat="48.68129" lon="1.94722">
        <ele>142.1</ele>
        <time>2013-11-17T09:36:37.000+01:00</time>
      </trkpt>
      <trkpt lat="48.68127" lon="1.94708">
        <ele>148.5</ele>
        <time>2013-11-17T09:36:45.000+01:00</time>
      </trkpt>
      <trkpt lat="48.68125" lon="1.94694">
        <ele>150.6</ele>
        <time>2013-11-17T09:36:51.000+01:00</time>
      </trkpt>
      <trkpt lat="48.68127" lon="1.9468">
        <ele>136.7</ele>
        <time>2013-11-17T09:36:57.000+01:00</time>
      </trkpt>
      <trkpt lat="48.68131" lon="1.94668">
        <ele>130.2</ele>
        <time>2013-11-17T09:37:02.000+01:00</time>
      </trkpt>
      <trkpt lat="48.68136" lon="1.94655">
        <ele>113.3</ele>
        <time>2013-11-17T09:37:08.000+01:00</time>
      </trkpt>
      <trkpt lat="48.68134" lon="1.94642">
        <ele>118</ele>
        <time>2013-11-17T09:37:15.000+01:00</time>
      </trkpt>
      <trkpt lat="48.68134" lon="1.94629">
        <ele>116.4</ele>
        <time>2013-11-17T09:37:22.000+01:00</time>
      </trkpt>
      <trkpt lat="48.68132" lon="1.94614">
        <ele>119.9</ele>
        <time>2013-11-17T09:37:32.000+01:00</time>
      </trkpt>
      <trkpt lat="48.68128" lon="1.94603">
        <ele>121.3</ele>
        <time>2013-11-17T09:37:40.000+01:00</time>
      </trkpt>
      <trkpt lat="48.68133" lon="1.94591">
        <ele>112.6</ele>
        <time>2013-11-17T09:37:45.000+01:00</time>
      </trkpt>
      <trkpt lat="48.68129" lon="1.94577">
        <ele>121.5</ele>
        <time>2013-11-17T09:37:53.000+01:00</time>
      </trkpt>
      <trkpt lat="48.6813" lon="1.94567">
        <ele>124.2</ele>
        <time>2013-11-17T09:38:03.000+01:00</time>
      </trkpt>
      <trkpt lat="48.68137" lon="1.94558">
        <ele>111.4</ele>
        <time>2013-11-17T09:38:09.000+01:00</time>
      </trkpt>
      <trkpt lat="48.68136" lon="1.94549">
        <ele>123.7</ele>
        <time>2013-11-17T09:38:16.000+01:00</time>
      </trkpt>
      <trkpt lat="48.68134" lon="1.94536">
        <ele>133.9</ele>
        <time>2013-11-17T09:38:23.000+01:00</time>
      </trkpt>
      <trkpt lat="48.68132" lon="1.94524">
        <ele>139.5</ele>
        <time>2013-11-17T09:38:32.000+01:00</time>
      </trkpt>
      <trkpt lat="48.68138" lon="1.94515">
        <ele>134.3</ele>
        <time>2013-11-17T09:38:38.000+01:00</time>
      </trkpt>
      <trkpt lat="48.68141" lon="1.94501">
        <ele>134.2</ele>
        <time>2013-11-17T09:38:45.000+01:00</time>
      </trkpt>
      <trkpt lat="48.68149" lon="1.94492">
        <ele>130.5</ele>
        <time>2013-11-17T09:38:51.000+01:00</time>
      </trkpt>
      <trkpt lat="48.68158" lon="1.94488">
        <ele>131.7</ele>
        <time>2013-11-17T09:39:01.000+01:00</time>
      </trkpt>
      <trkpt lat="48.68165" lon="1.94479">
        <ele>126.2</ele>
        <time>2013-11-17T09:39:08.000+01:00</time>
      </trkpt>
      <trkpt lat="48.68174" lon="1.94472">
        <ele>117.2</ele>
        <time>2013-11-17T09:39:13.000+01:00</time>
      </trkpt>
      <trkpt lat="48.68178" lon="1.94463">
        <ele>116.6</ele>
        <time>2013-11-17T09:39:25.000+01:00</time>
      </trkpt>
      <trkpt lat="48.68188" lon="1.94462">
        <ele>120.4</ele>
        <time>2013-11-17T09:39:35.000+01:00</time>
      </trkpt>
      <trkpt lat="48.68196" lon="1.94457">
        <ele>120.9</ele>
        <time>2013-11-17T09:39:45.000+01:00</time>
      </trkpt>
      <trkpt lat="48.68201" lon="1.94451">
        <ele>123.2</ele>
        <time>2013-11-17T09:39:55.000+01:00</time>
      </trkpt>
      <trkpt lat="48.68211" lon="1.9445">
        <ele>129.4</ele>
        <time>2013-11-17T09:40:03.000+01:00</time>
      </trkpt>
      <trkpt lat="48.6822" lon="1.9445">
        <ele>130.2</ele>
        <time>2013-11-17T09:40:08.000+01:00</time>
      </trkpt>
      <trkpt lat="48.68226" lon="1.94449">
        <ele>131</ele>
        <time>2013-11-17T09:40:19.000+01:00</time>
      </trkpt>
      <trkpt lat="48.68227" lon="1.94436">
        <ele>134</ele>
        <time>2013-11-17T09:40:27.000+01:00</time>
      </trkpt>
      <trkpt lat="48.68236" lon="1.94428">
        <ele>128.3</ele>
        <time>2013-11-17T09:40:33.000+01:00</time>
      </trkpt>
      <trkpt lat="48.68242" lon="1.9442">
        <ele>128.7</ele>
        <time>2013-11-17T09:40:43.000+01:00</time>
      </trkpt>
      <trkpt lat="48.68245" lon="1.94408">
        <ele>134.6</ele>
        <time>2013-11-17T09:40:51.000+01:00</time>
      </trkpt>
      <trkpt lat="48.68251" lon="1.94396">
        <ele>126.6</ele>
        <time>2013-11-17T09:40:58.000+01:00</time>
      </trkpt>
      <trkpt lat="48.68258" lon="1.94386">
        <ele>119.4</ele>
        <time>2013-11-17T09:41:04.000+01:00</time>
      </trkpt>
      <trkpt lat="48.68258" lon="1.94372">
        <ele>122.3</ele>
        <time>2013-11-17T09:41:10.000+01:00</time>
      </trkpt>
      <trkpt lat="48.68258" lon="1.94359">
        <ele>126.8</ele>
        <time>2013-11-17T09:41:19.000+01:00</time>
      </trkpt>
      <trkpt lat="48.68255" lon="1.94349">
        <ele>137.4</ele>
        <time>2013-11-17T09:41:25.000+01:00</time>
      </trkpt>
      <trkpt lat="48.68263" lon="1.94343">
        <ele>127.8</ele>
        <time>2013-11-17T09:41:33.000+01:00</time>
      </trkpt>
      <trkpt lat="48.68268" lon="1.94331">
        <ele>120.4</ele>
        <time>2013-11-17T09:41:40.000+01:00</time>
      </trkpt>
      <trkpt lat="48.68273" lon="1.94322">
        <ele>119.9</ele>
        <time>2013-11-17T09:41:49.000+01:00</time>
      </trkpt>
      <trkpt lat="48.6827" lon="1.9431">
        <ele>134.9</ele>
        <time>2013-11-17T09:41:56.000+01:00</time>
      </trkpt>
      <trkpt lat="48.68273" lon="1.94296">
        <ele>143.6</ele>
        <time>2013-11-17T09:42:05.000+01:00</time>
      </trkpt>
      <trkpt lat="48.68272" lon="1.94285">
        <ele>144.7</ele>
        <time>2013-11-17T09:42:15.000+01:00</time>
      </trkpt>
      <trkpt lat="48.68278" lon="1.94274">
        <ele>134.5</ele>
        <time>2013-11-17T09:42:20.000+01:00</time>
      </trkpt>
      <trkpt lat="48.68281" lon="1.94261">
        <ele>136.6</ele>
        <time>2013-11-17T09:42:26.000+01:00</time>
      </trkpt>
      <trkpt lat="48.68288" lon="1.94249">
        <ele>120.7</ele>
        <time>2013-11-17T09:42:32.000+01:00</time>
      </trkpt>
      <trkpt lat="48.6829" lon="1.94234">
        <ele>120</ele>
        <time>2013-11-17T09:42:39.000+01:00</time>
      </trkpt>
      <trkpt lat="48.68294" lon="1.94224">
        <ele>121.1</ele>
        <time>2013-11-17T09:42:49.000+01:00</time>
      </trkpt>
      <trkpt lat="48.68293" lon="1.94221">
        <ele>120.8</ele>
        <time>2013-11-17T09:43:05.000+01:00</time>
      </trkpt>
      <trkpt lat="48.68293" lon="1.94218">
        <ele>129.2</ele>
        <time>2013-11-17T09:43:18.000+01:00</time>
      </trkpt>
      <trkpt lat="48.68297" lon="1.94216">
        <ele>131.6</ele>
        <time>2013-11-17T09:43:29.000+01:00</time>
      </trkpt>
      <trkpt lat="48.6829" lon="1.94209">
        <ele>135.2</ele>
        <time>2013-11-17T09:43:36.000+01:00</time>
      </trkpt>
      <trkpt lat="48.68295" lon="1.94209">
        <ele>136.4</ele>
        <time>2013-11-17T09:43:47.000+01:00</time>
      </trkpt>
      <trkpt lat="48.68299" lon="1.94214">
        <ele>129.6</ele>
        <time>2013-11-17T09:44:04.000+01:00</time>
      </trkpt>
      <trkpt lat="48.68304" lon="1.94216">
        <ele>130.6</ele>
        <time>2013-11-17T09:44:19.000+01:00</time>
      </trkpt>
      <trkpt lat="48.68304" lon="1.9421">
        <ele>137.6</ele>
        <time>2013-11-17T09:44:41.000+01:00</time>
      </trkpt>
      <trkpt lat="48.68295" lon="1.94204">
        <ele>137.4</ele>
        <time>2013-11-17T09:44:48.000+01:00</time>
      </trkpt>
      <trkpt lat="48.683" lon="1.94208">
        <ele>134.7</ele>
        <time>2013-11-17T09:44:59.000+01:00</time>
      </trkpt>
      <trkpt lat="48.6829" lon="1.94203">
        <ele>134.5</ele>
        <time>2013-11-17T09:45:06.000+01:00</time>
      </trkpt>
      <trkpt lat="48.68291" lon="1.94197">
        <ele>141.7</ele>
        <time>2013-11-17T09:45:18.000+01:00</time>
      </trkpt>
      <trkpt lat="48.68293" lon="1.94203">
        <ele>134.9</ele>
        <time>2013-11-17T09:45:30.000+01:00</time>
      </trkpt>
      <trkpt lat="48.68298" lon="1.9421">
        <ele>128.6</ele>
        <time>2013-11-17T09:45:46.000+01:00</time>
      </trkpt>
      <trkpt lat="48.68307" lon="1.94217">
        <ele>126.6</ele>
        <time>2013-11-17T09:45:51.000+01:00</time>
      </trkpt>
      <trkpt lat="48.68306" lon="1.94212">
        <ele>131.6</ele>
        <time>2013-11-17T09:45:59.000+01:00</time>
      </trkpt>
      <trkpt lat="48.68301" lon="1.94208">
        <ele>129.8</ele>
        <time>2013-11-17T09:46:14.000+01:00</time>
      </trkpt>
      <trkpt lat="48.68299" lon="1.94213">
        <ele>125.5</ele>
        <time>2013-11-17T09:46:38.000+01:00</time>
      </trkpt>
      <trkpt lat="48.68302" lon="1.94202">
        <ele>124.5</ele>
        <time>2013-11-17T09:46:47.000+01:00</time>
      </trkpt>
      <trkpt lat="48.68308" lon="1.94193">
        <ele>121.1</ele>
        <time>2013-11-17T09:46:54.000+01:00</time>
      </trkpt>
      <trkpt lat="48.68309" lon="1.94181">
        <ele>124.5</ele>
        <time>2013-11-17T09:47:02.000+01:00</time>
      </trkpt>
      <trkpt lat="48.6831" lon="1.94167">
        <ele>132.3</ele>
        <time>2013-11-17T09:47:11.000+01:00</time>
      </trkpt>
      <trkpt lat="48.68314" lon="1.94154">
        <ele>129.9</ele>
        <time>2013-11-17T09:47:19.000+01:00</time>
      </trkpt>
      <trkpt lat="48.68319" lon="1.94143">
        <ele>121.7</ele>
        <time>2013-11-17T09:47:25.000+01:00</time>
      </trkpt>
      <trkpt lat="48.68319" lon="1.9413">
        <ele>127.2</ele>
        <time>2013-11-17T09:47:32.000+01:00</time>
      </trkpt>
      <trkpt lat="48.68317" lon="1.94117">
        <ele>135.9</ele>
        <time>2013-11-17T09:47:40.000+01:00</time>
      </trkpt>
      <trkpt lat="48.6832" lon="1.94104">
        <ele>131.1</ele>
        <time>2013-11-17T09:47:48.000+01:00</time>
      </trkpt>
      <trkpt lat="48.68323" lon="1.9409">
        <ele>136.1</ele>
        <time>2013-11-17T09:47:58.000+01:00</time>
      </trkpt>
      <trkpt lat="48.68328" lon="1.94077">
        <ele>125.2</ele>
        <time>2013-11-17T09:48:04.000+01:00</time>
      </trkpt>
      <trkpt lat="48.68332" lon="1.94064">
        <ele>124.3</ele>
        <time>2013-11-17T09:48:10.000+01:00</time>
      </trkpt>
      <trkpt lat="48.68336" lon="1.94049">
        <ele>127.4</ele>
        <time>2013-11-17T09:48:17.000+01:00</time>
      </trkpt>
      <trkpt lat="48.68341" lon="1.94036">
        <ele>127.4</ele>
        <time>2013-11-17T09:48:25.000+01:00</time>
      </trkpt>
      <trkpt lat="48.68347" lon="1.94024">
        <ele>124.2</ele>
        <time>2013-11-17T09:48:31.000+01:00</time>
      </trkpt>
      <trkpt lat="48.68354" lon="1.94014">
        <ele>122.2</ele>
        <time>2013-11-17T09:48:38.000+01:00</time>
      </trkpt>
      <trkpt lat="48.6836" lon="1.94004">
        <ele>128.4</ele>
        <time>2013-11-17T09:48:50.000+01:00</time>
      </trkpt>
      <trkpt lat="48.68362" lon="1.93993">
        <ele>129.8</ele>
        <time>2013-11-17T09:48:57.000+01:00</time>
      </trkpt>
      <trkpt lat="48.68369" lon="1.93983">
        <ele>125.2</ele>
        <time>2013-11-17T09:49:07.000+01:00</time>
      </trkpt>
      <trkpt lat="48.68377" lon="1.9398">
        <ele>121</ele>
        <time>2013-11-17T09:49:27.000+01:00</time>
      </trkpt>
      <trkpt lat="48.68382" lon="1.93972">
        <ele>132.5</ele>
        <time>2013-11-17T09:49:48.000+01:00</time>
      </trkpt>
      <trkpt lat="48.68388" lon="1.93961">
        <ele>129.9</ele>
        <time>2013-11-17T09:49:56.000+01:00</time>
      </trkpt>
      <trkpt lat="48.68395" lon="1.93953">
        <ele>126.2</ele>
        <time>2013-11-17T09:50:04.000+01:00</time>
      </trkpt>
      <trkpt lat="48.68402" lon="1.93945">
        <ele>123.4</ele>
        <time>2013-11-17T09:50:12.000+01:00</time>
      </trkpt>
      <trkpt lat="48.68411" lon="1.93943">
        <ele>140.8</ele>
        <time>2013-11-17T09:50:29.000+01:00</time>
      </trkpt>
      <trkpt lat="48.68419" lon="1.93934">
        <ele>129</ele>
        <time>2013-11-17T09:50:35.000+01:00</time>
      </trkpt>
      <trkpt lat="48.68424" lon="1.93922">
        <ele>122.8</ele>
        <time>2013-11-17T09:50:42.000+01:00</time>
      </trkpt>
      <trkpt lat="48.6843" lon="1.9391">
        <ele>118.4</ele>
        <time>2013-11-17T09:50:49.000+01:00</time>
      </trkpt>
      <trkpt lat="48.68434" lon="1.93897">
        <ele>130.2</ele>
        <time>2013-11-17T09:50:58.000+01:00</time>
      </trkpt>
      <trkpt lat="48.68438" lon="1.93885">
        <ele>126.4</ele>
        <time>2013-11-17T09:51:06.000+01:00</time>
      </trkpt>
      <trkpt lat="48.68446" lon="1.93877">
        <ele>123.2</ele>
        <time>2013-11-17T09:51:17.000+01:00</time>
      </trkpt>
      <trkpt lat="48.68445" lon="1.9387">
        <ele>127.1</ele>
        <time>2013-11-17T09:51:43.000+01:00</time>
      </trkpt>
      <trkpt lat="48.68453" lon="1.93862">
        <ele>121.3</ele>
        <time>2013-11-17T09:51:54.000+01:00</time>
      </trkpt>
      <trkpt lat="48.68458" lon="1.93856">
        <ele>125.4</ele>
        <time>2013-11-17T09:52:06.000+01:00</time>
      </trkpt>
      <trkpt lat="48.68463" lon="1.93849">
        <ele>120.6</ele>
        <time>2013-11-17T09:52:20.000+01:00</time>
      </trkpt>
      <trkpt lat="48.68462" lon="1.93848">
        <ele>138.8</ele>
        <time>2013-11-17T09:52:32.000+01:00</time>
      </trkpt>
      <trkpt lat="48.68468" lon="1.93843">
        <ele>141.7</ele>
        <time>2013-11-17T09:52:46.000+01:00</time>
      </trkpt>
      <trkpt lat="48.68475" lon="1.93835">
        <ele>140.8</ele>
        <time>2013-11-17T09:52:57.000+01:00</time>
      </trkpt>
      <trkpt lat="48.68482" lon="1.93824">
        <ele>135.5</ele>
        <time>2013-11-17T09:53:03.000+01:00</time>
      </trkpt>
      <trkpt lat="48.68485" lon="1.93812">
        <ele>121.1</ele>
        <time>2013-11-17T09:53:09.000+01:00</time>
      </trkpt>
      <trkpt lat="48.68491" lon="1.93801">
        <ele>109.1</ele>
        <time>2013-11-17T09:53:15.000+01:00</time>
      </trkpt>
      <trkpt lat="48.68495" lon="1.9379">
        <ele>107.4</ele>
        <time>2013-11-17T09:53:21.000+01:00</time>
      </trkpt>
      <trkpt lat="48.68496" lon="1.93776">
        <ele>112.7</ele>
        <time>2013-11-17T09:53:29.000+01:00</time>
      </trkpt>
      <trkpt lat="48.68496" lon="1.93764">
        <ele>118.3</ele>
        <time>2013-11-17T09:53:41.000+01:00</time>
      </trkpt>
      <trkpt lat="48.68501" lon="1.93757">
        <ele>118.6</ele>
        <time>2013-11-17T09:53:56.000+01:00</time>
      </trkpt>
      <trkpt lat="48.685" lon="1.93745">
        <ele>137.5</ele>
        <time>2013-11-17T09:54:11.000+01:00</time>
      </trkpt>
      <trkpt lat="48.68501" lon="1.93734">
        <ele>133.8</ele>
        <time>2013-11-17T09:54:22.000+01:00</time>
      </trkpt>
      <trkpt lat="48.68504" lon="1.9372">
        <ele>120.2</ele>
        <time>2013-11-17T09:54:28.000+01:00</time>
      </trkpt>
      <trkpt lat="48.68509" lon="1.93708">
        <ele>114.9</ele>
        <time>2013-11-17T09:54:35.000+01:00</time>
      </trkpt>
      <trkpt lat="48.6851" lon="1.93695">
        <ele>114.6</ele>
        <time>2013-11-17T09:54:43.000+01:00</time>
      </trkpt>
      <trkpt lat="48.6851" lon="1.93681">
        <ele>123.3</ele>
        <time>2013-11-17T09:54:52.000+01:00</time>
      </trkpt>
      <trkpt lat="48.68511" lon="1.93666">
        <ele>131.3</ele>
        <time>2013-11-17T09:55:01.000+01:00</time>
      </trkpt>
      <trkpt lat="48.68514" lon="1.93654">
        <ele>134.3</ele>
        <time>2013-11-17T09:55:09.000+01:00</time>
      </trkpt>
      <trkpt lat="48.68519" lon="1.93642">
        <ele>132.9</ele>
        <time>2013-11-17T09:55:17.000+01:00</time>
      </trkpt>
      <trkpt lat="48.68524" lon="1.93631">
        <ele>126.9</ele>
        <time>2013-11-17T09:55:23.000+01:00</time>
      </trkpt>
      <trkpt lat="48.68529" lon="1.9362">
        <ele>121.3</ele>
        <time>2013-11-17T09:55:30.000+01:00</time>
      </trkpt>
      <trkpt lat="48.68535" lon="1.93609">
        <ele>131.1</ele>
        <time>2013-11-17T09:55:38.000+01:00</time>
      </trkpt>
      <trkpt lat="48.68542" lon="1.93601">
        <ele>122.9</ele>
        <time>2013-11-17T09:55:45.000+01:00</time>
      </trkpt>
      <trkpt lat="48.68547" lon="1.93592">
        <ele>132.7</ele>
        <time>2013-11-17T09:55:55.000+01:00</time>
      </trkpt>
      <trkpt lat="48.6855" lon="1.93578">
        <ele>146.9</ele>
        <time>2013-11-17T09:56:05.000+01:00</time>
      </trkpt>
      <trkpt lat="48.68554" lon="1.93565">
        <ele>153.3</ele>
        <time>2013-11-17T09:56:15.000+01:00</time>
      </trkpt>
      <trkpt lat="48.68555" lon="1.93551">
        <ele>151.2</ele>
        <time>2013-11-17T09:56:24.000+01:00</time>
      </trkpt>
      <trkpt lat="48.68559" lon="1.93537">
        <ele>141.8</ele>
        <time>2013-11-17T09:56:31.000+01:00</time>
      </trkpt>
      <trkpt lat="48.68561" lon="1.93521">
        <ele>132.9</ele>
        <time>2013-11-17T09:56:38.000+01:00</time>
      </trkpt>
      <trkpt lat="48.68565" lon="1.93508">
        <ele>126.6</ele>
        <time>2013-11-17T09:56:44.000+01:00</time>
      </trkpt>
      <trkpt lat="48.68569" lon="1.93498">
        <ele>137.8</ele>
        <time>2013-11-17T09:56:55.000+01:00</time>
      </trkpt>
      <trkpt lat="48.68576" lon="1.93488">
        <ele>140.1</ele>
        <time>2013-11-17T09:57:02.000+01:00</time>
      </trkpt>
      <trkpt lat="48.68582" lon="1.93476">
        <ele>137.7</ele>
        <time>2013-11-17T09:57:10.000+01:00</time>
      </trkpt>
      <trkpt lat="48.68588" lon="1.93466">
        <ele>143.4</ele>
        <time>2013-11-17T09:57:22.000+01:00</time>
      </trkpt>
      <trkpt lat="48.68595" lon="1.93457">
        <ele>153.9</ele>
        <time>2013-11-17T09:57:35.000+01:00</time>
      </trkpt>
      <trkpt lat="48.68599" lon="1.93445">
        <ele>153</ele>
        <time>2013-11-17T09:57:44.000+01:00</time>
      </trkpt>
      <trkpt lat="48.68603" lon="1.93432">
        <ele>157.5</ele>
        <time>2013-11-17T09:57:53.000+01:00</time>
      </trkpt>
      <trkpt lat="48.68608" lon="1.93419">
        <ele>155.1</ele>
        <time>2013-11-17T09:58:02.000+01:00</time>
      </trkpt>
      <trkpt lat="48.68617" lon="1.93408">
        <ele>146.2</ele>
        <time>2013-11-17T09:58:09.000+01:00</time>
      </trkpt>
      <trkpt lat="48.68624" lon="1.93399">
        <ele>138.9</ele>
        <time>2013-11-17T09:58:15.000+01:00</time>
      </trkpt>
      <trkpt lat="48.68632" lon="1.93394">
        <ele>147.3</ele>
        <time>2013-11-17T09:58:24.000+01:00</time>
      </trkpt>
      <trkpt lat="48.68641" lon="1.93387">
        <ele>141.2</ele>
        <time>2013-11-17T09:58:31.000+01:00</time>
      </trkpt>
      <trkpt lat="48.6865" lon="1.93382">
        <ele>141.8</ele>
        <time>2013-11-17T09:58:41.000+01:00</time>
      </trkpt>
      <trkpt lat="48.68657" lon="1.93376">
        <ele>143.9</ele>
        <time>2013-11-17T09:58:49.000+01:00</time>
      </trkpt>
      <trkpt lat="48.68664" lon="1.93358">
        <ele>127</ele>
        <time>2013-11-17T09:58:59.000+01:00</time>
      </trkpt>
      <trkpt lat="48.68664" lon="1.93345">
        <ele>119.6</ele>
        <time>2013-11-17T09:59:08.000+01:00</time>
      </trkpt>
      <trkpt lat="48.6866" lon="1.93332">
        <ele>128.6</ele>
        <time>2013-11-17T09:59:17.000+01:00</time>
      </trkpt>
      <trkpt lat="48.68653" lon="1.93324">
        <ele>134.9</ele>
        <time>2013-11-17T09:59:24.000+01:00</time>
      </trkpt>
      <trkpt lat="48.6865" lon="1.93311">
        <ele>130.1</ele>
        <time>2013-11-17T09:59:31.000+01:00</time>
      </trkpt>
      <trkpt lat="48.68648" lon="1.93297">
        <ele>124.6</ele>
        <time>2013-11-17T09:59:38.000+01:00</time>
      </trkpt>
      <trkpt lat="48.68644" lon="1.93284">
        <ele>126.1</ele>
        <time>2013-11-17T09:59:46.000+01:00</time>
      </trkpt>
      <trkpt lat="48.68639" lon="1.93274">
        <ele>138.9</ele>
        <time>2013-11-17T09:59:57.000+01:00</time>
      </trkpt>
      <trkpt lat="48.68638" lon="1.93261">
        <ele>138.9</ele>
        <time>2013-11-17T10:00:05.000+01:00</time>
      </trkpt>
      <trkpt lat="48.68637" lon="1.93247">
        <ele>140.5</ele>
        <time>2013-11-17T10:00:12.000+01:00</time>
      </trkpt>
      <trkpt lat="48.68639" lon="1.93236">
        <ele>146.6</ele>
        <time>2013-11-17T10:00:26.000+01:00</time>
      </trkpt>
      <trkpt lat="48.68643" lon="1.93222">
        <ele>144.8</ele>
        <time>2013-11-17T10:00:33.000+01:00</time>
      </trkpt>
      <trkpt lat="48.68644" lon="1.93208">
        <ele>154</ele>
        <time>2013-11-17T10:00:42.000+01:00</time>
      </trkpt>
      <trkpt lat="48.68647" lon="1.93195">
        <ele>147.9</ele>
        <time>2013-11-17T10:00:49.000+01:00</time>
      </trkpt>
      <trkpt lat="48.6865" lon="1.9318">
        <ele>137.5</ele>
        <time>2013-11-17T10:00:55.000+01:00</time>
      </trkpt>
      <trkpt lat="48.68652" lon="1.93167">
        <ele>138.2</ele>
        <time>2013-11-17T10:01:03.000+01:00</time>
      </trkpt>
      <trkpt lat="48.68654" lon="1.93155">
        <ele>147.1</ele>
        <time>2013-11-17T10:01:14.000+01:00</time>
      </trkpt>
      <trkpt lat="48.68657" lon="1.93142">
        <ele>142.2</ele>
        <time>2013-11-17T10:01:22.000+01:00</time>
      </trkpt>
      <trkpt lat="48.68662" lon="1.93128">
        <ele>128.9</ele>
        <time>2013-11-17T10:01:27.000+01:00</time>
      </trkpt>
      <trkpt lat="48.68664" lon="1.93115">
        <ele>125.1</ele>
        <time>2013-11-17T10:01:34.000+01:00</time>
      </trkpt>
      <trkpt lat="48.68665" lon="1.93101">
        <ele>128.9</ele>
        <time>2013-11-17T10:01:44.000+01:00</time>
      </trkpt>
      <trkpt lat="48.68664" lon="1.93087">
        <ele>138.4</ele>
        <time>2013-11-17T10:01:52.000+01:00</time>
      </trkpt>
      <trkpt lat="48.68664" lon="1.93074">
        <ele>141.3</ele>
        <time>2013-11-17T10:02:02.000+01:00</time>
      </trkpt>
      <trkpt lat="48.68661" lon="1.9306">
        <ele>153.1</ele>
        <time>2013-11-17T10:02:12.000+01:00</time>
      </trkpt>
      <trkpt lat="48.68664" lon="1.93047">
        <ele>146.3</ele>
        <time>2013-11-17T10:02:17.000+01:00</time>
      </trkpt>
      <trkpt lat="48.68667" lon="1.93035">
        <ele>150.2</ele>
        <time>2013-11-17T10:02:27.000+01:00</time>
      </trkpt>
      <trkpt lat="48.68668" lon="1.93021">
        <ele>152.1</ele>
        <time>2013-11-17T10:02:34.000+01:00</time>
      </trkpt>
      <trkpt lat="48.68673" lon="1.93008">
        <ele>146</ele>
        <time>2013-11-17T10:02:40.000+01:00</time>
      </trkpt>
      <trkpt lat="48.68675" lon="1.92993">
        <ele>144.7</ele>
        <time>2013-11-17T10:02:46.000+01:00</time>
      </trkpt>
      <trkpt lat="48.68679" lon="1.92979">
        <ele>143.1</ele>
        <time>2013-11-17T10:02:57.000+01:00</time>
      </trkpt>
      <trkpt lat="48.68682" lon="1.92966">
        <ele>151.3</ele>
        <time>2013-11-17T10:03:07.000+01:00</time>
      </trkpt>
      <trkpt lat="48.68686" lon="1.92953">
        <ele>156.8</ele>
        <time>2013-11-17T10:03:13.000+01:00</time>
      </trkpt>
      <trkpt lat="48.68688" lon="1.92938">
        <ele>158.5</ele>
        <time>2013-11-17T10:03:19.000+01:00</time>
      </trkpt>
      <trkpt lat="48.68694" lon="1.92929">
        <ele>156.1</ele>
        <time>2013-11-17T10:03:27.000+01:00</time>
      </trkpt>
      <trkpt lat="48.687" lon="1.92918">
        <ele>147</ele>
        <time>2013-11-17T10:03:32.000+01:00</time>
      </trkpt>
      <trkpt lat="48.68706" lon="1.92907">
        <ele>148.1</ele>
        <time>2013-11-17T10:03:38.000+01:00</time>
      </trkpt>
      <trkpt lat="48.68712" lon="1.92897">
        <ele>149.2</ele>
        <time>2013-11-17T10:03:48.000+01:00</time>
      </trkpt>
      <trkpt lat="48.68718" lon="1.92886">
        <ele>147.6</ele>
        <time>2013-11-17T10:03:55.000+01:00</time>
      </trkpt>
      <trkpt lat="48.68724" lon="1.92874">
        <ele>147.7</ele>
        <time>2013-11-17T10:04:02.000+01:00</time>
      </trkpt>
      <trkpt lat="48.68727" lon="1.92861">
        <ele>152.4</ele>
        <time>2013-11-17T10:04:10.000+01:00</time>
      </trkpt>
      <trkpt lat="48.68732" lon="1.92848">
        <ele>153.6</ele>
        <time>2013-11-17T10:04:17.000+01:00</time>
      </trkpt>
      <trkpt lat="48.68738" lon="1.92837">
        <ele>159.5</ele>
        <time>2013-11-17T10:04:26.000+01:00</time>
      </trkpt>
      <trkpt lat="48.68744" lon="1.92825">
        <ele>157.9</ele>
        <time>2013-11-17T10:04:35.000+01:00</time>
      </trkpt>
      <trkpt lat="48.6875" lon="1.92814">
        <ele>153.3</ele>
        <time>2013-11-17T10:04:40.000+01:00</time>
      </trkpt>
      <trkpt lat="48.68756" lon="1.92802">
        <ele>150</ele>
        <time>2013-11-17T10:04:47.000+01:00</time>
      </trkpt>
      <trkpt lat="48.6876" lon="1.92788">
        <ele>149.8</ele>
        <time>2013-11-17T10:04:56.000+01:00</time>
      </trkpt>
      <trkpt lat="48.68765" lon="1.92773">
        <ele>140.3</ele>
        <time>2013-11-17T10:05:02.000+01:00</time>
      </trkpt>
      <trkpt lat="48.68771" lon="1.9276">
        <ele>129.7</ele>
        <time>2013-11-17T10:05:09.000+01:00</time>
      </trkpt>
      <trkpt lat="48.68774" lon="1.92746">
        <ele>140.5</ele>
        <time>2013-11-17T10:05:19.000+01:00</time>
      </trkpt>
      <trkpt lat="48.68774" lon="1.92733">
        <ele>164.6</ele>
        <time>2013-11-17T10:05:30.000+01:00</time>
      </trkpt>
      <trkpt lat="48.68776" lon="1.92718">
        <ele>160.2</ele>
        <time>2013-11-17T10:05:36.000+01:00</time>
      </trkpt>
      <trkpt lat="48.6878" lon="1.92705">
        <ele>155.8</ele>
        <time>2013-11-17T10:05:42.000+01:00</time>
      </trkpt>
      <trkpt lat="48.68785" lon="1.92692">
        <ele>159.5</ele>
        <time>2013-11-17T10:05:49.000+01:00</time>
      </trkpt>
      <trkpt lat="48.6879" lon="1.92681">
        <ele>161.4</ele>
        <time>2013-11-17T10:05:58.000+01:00</time>
      </trkpt>
      <trkpt lat="48.68796" lon="1.92671">
        <ele>156.3</ele>
        <time>2013-11-17T10:06:04.000+01:00</time>
      </trkpt>
      <trkpt lat="48.68803" lon="1.92661">
        <ele>161.1</ele>
        <time>2013-11-17T10:06:11.000+01:00</time>
      </trkpt>
      <trkpt lat="48.68811" lon="1.92651">
        <ele>153.3</ele>
        <time>2013-11-17T10:06:17.000+01:00</time>
      </trkpt>
      <trkpt lat="48.6882" lon="1.92643">
        <ele>153.5</ele>
        <time>2013-11-17T10:06:23.000+01:00</time>
      </trkpt>
      <trkpt lat="48.68826" lon="1.92633">
        <ele>151.5</ele>
        <time>2013-11-17T10:06:32.000+01:00</time>
      </trkpt>
      <trkpt lat="48.68833" lon="1.92622">
        <ele>137.3</ele>
        <time>2013-11-17T10:06:40.000+01:00</time>
      </trkpt>
      <trkpt lat="48.68838" lon="1.92611">
        <ele>122.8</ele>
        <time>2013-11-17T10:06:47.000+01:00</time>
      </trkpt>
      <trkpt lat="48.68838" lon="1.92601">
        <ele>119.4</ele>
        <time>2013-11-17T10:06:57.000+01:00</time>
      </trkpt>
      <trkpt lat="48.68843" lon="1.92603">
        <ele>135.7</ele>
        <time>2013-11-17T10:07:23.000+01:00</time>
      </trkpt>
      <trkpt lat="48.68845" lon="1.92605">
        <ele>136</ele>
        <time>2013-11-17T10:07:52.000+01:00</time>
      </trkpt>
      <trkpt lat="48.68843" lon="1.92597">
        <ele>150.3</ele>
        <time>2013-11-17T10:08:22.000+01:00</time>
      </trkpt>
      <trkpt lat="48.68843" lon="1.92598">
        <ele>150.3</ele>
        <time>2013-11-17T10:08:53.000+01:00</time>
      </trkpt>
      <trkpt lat="48.6885" lon="1.92605">
        <ele>147</ele>
        <time>2013-11-17T10:09:13.000+01:00</time>
      </trkpt>
      <trkpt lat="48.68843" lon="1.92606">
        <ele>134.7</ele>
        <time>2013-11-17T10:09:29.000+01:00</time>
      </trkpt>
      <trkpt lat="48.68844" lon="1.92601">
        <ele>139.5</ele>
        <time>2013-11-17T10:09:43.000+01:00</time>
      </trkpt>
      <trkpt lat="48.68845" lon="1.92601">
        <ele>141</ele>
        <time>2013-11-17T10:10:08.000+01:00</time>
      </trkpt>
      <trkpt lat="48.68851" lon="1.92601">
        <ele>148.2</ele>
        <time>2013-11-17T10:10:21.000+01:00</time>
      </trkpt>
      <trkpt lat="48.68845" lon="1.92596">
        <ele>154.5</ele>
        <time>2013-11-17T10:10:32.000+01:00</time>
      </trkpt>
      <trkpt lat="48.68841" lon="1.92587">
        <ele>153.3</ele>
        <time>2013-11-17T10:10:50.000+01:00</time>
      </trkpt>
      <trkpt lat="48.68838" lon="1.92592">
        <ele>140.6</ele>
        <time>2013-11-17T10:11:09.000+01:00</time>
      </trkpt>
      <trkpt lat="48.68844" lon="1.92599">
        <ele>135.2</ele>
        <time>2013-11-17T10:11:26.000+01:00</time>
      </trkpt>
      <trkpt lat="48.6884" lon="1.92588">
        <ele>131</ele>
        <time>2013-11-17T10:11:41.000+01:00</time>
      </trkpt>
      <trkpt lat="48.68834" lon="1.92579">
        <ele>125.5</ele>
        <time>2013-11-17T10:11:50.000+01:00</time>
      </trkpt>
      <trkpt lat="48.68826" lon="1.9257">
        <ele>127.9</ele>
        <time>2013-11-17T10:12:01.000+01:00</time>
      </trkpt>
      <trkpt lat="48.68818" lon="1.92562">
        <ele>130.5</ele>
        <time>2013-11-17T10:12:09.000+01:00</time>
      </trkpt>
      <trkpt lat="48.68814" lon="1.9255">
        <ele>137.3</ele>
        <time>2013-11-17T10:12:17.000+01:00</time>
      </trkpt>
      <trkpt lat="48.68816" lon="1.92539">
        <ele>143.2</ele>
        <time>2013-11-17T10:12:25.000+01:00</time>
      </trkpt>
      <trkpt lat="48.68809" lon="1.92531">
        <ele>135.6</ele>
        <time>2013-11-17T10:12:35.000+01:00</time>
      </trkpt>
      <trkpt lat="48.68807" lon="1.92517">
        <ele>127.5</ele>
        <time>2013-11-17T10:12:44.000+01:00</time>
      </trkpt>
      <trkpt lat="48.68805" lon="1.92503">
        <ele>135.7</ele>
        <time>2013-11-17T10:12:52.000+01:00</time>
      </trkpt>
      <trkpt lat="48.68803" lon="1.9249">
        <ele>139.3</ele>
        <time>2013-11-17T10:13:03.000+01:00</time>
      </trkpt>
      <trkpt lat="48.68802" lon="1.92476">
        <ele>142.8</ele>
        <time>2013-11-17T10:13:11.000+01:00</time>
      </trkpt>
      <trkpt lat="48.68804" lon="1.92466">
        <ele>147.6</ele>
        <time>2013-11-17T10:13:24.000+01:00</time>
      </trkpt>
      <trkpt lat="48.68807" lon="1.92457">
        <ele>145.3</ele>
        <time>2013-11-17T10:13:44.000+01:00</time>
      </trkpt>
      <trkpt lat="48.68812" lon="1.92447">
        <ele>144.9</ele>
        <time>2013-11-17T10:14:11.000+01:00</time>
      </trkpt>
      <trkpt lat="48.68815" lon="1.92437">
        <ele>138.1</ele>
        <time>2013-11-17T10:14:22.000+01:00</time>
      </trkpt>
      <trkpt lat="48.68823" lon="1.92432">
        <ele>133.4</ele>
        <time>2013-11-17T10:14:34.000+01:00</time>
      </trkpt>
      <trkpt lat="48.68829" lon="1.92423">
        <ele>127.9</ele>
        <time>2013-11-17T10:14:43.000+01:00</time>
      </trkpt>
      <trkpt lat="48.68833" lon="1.92419">
        <ele>115</ele>
        <time>2013-11-17T10:14:58.000+01:00</time>
      </trkpt>
      <trkpt lat="48.68841" lon="1.92417">
        <ele>119.6</ele>
        <time>2013-11-17T10:15:07.000+01:00</time>
      </trkpt>
      <trkpt lat="48.68847" lon="1.9241">
        <ele>121.9</ele>
        <time>2013-11-17T10:15:25.000+01:00</time>
      </trkpt>
      <trkpt lat="48.68856" lon="1.92412">
        <ele>131.2</ele>
        <time>2013-11-17T10:15:34.000+01:00</time>
      </trkpt>
      <trkpt lat="48.68861" lon="1.92404">
        <ele>138</ele>
        <time>2013-11-17T10:15:49.000+01:00</time>
      </trkpt>
      <trkpt lat="48.68866" lon="1.92394">
        <ele>135.4</ele>
        <time>2013-11-17T10:16:03.000+01:00</time>
      </trkpt>
      <trkpt lat="48.68874" lon="1.92385">
        <ele>124.7</ele>
        <time>2013-11-17T10:16:10.000+01:00</time>
      </trkpt>
      <trkpt lat="48.68881" lon="1.92379">
        <ele>126.5</ele>
        <time>2013-11-17T10:16:21.000+01:00</time>
      </trkpt>
      <trkpt lat="48.68891" lon="1.92376">
        <ele>144.5</ele>
        <time>2013-11-17T10:16:31.000+01:00</time>
      </trkpt>
      <trkpt lat="48.689" lon="1.92371">
        <ele>156.2</ele>
        <time>2013-11-17T10:16:40.000+01:00</time>
      </trkpt>
      <trkpt lat="48.68906" lon="1.92362">
        <ele>153.8</ele>
        <time>2013-11-17T10:16:47.000+01:00</time>
      </trkpt>
      <trkpt lat="48.68913" lon="1.92353">
        <ele>152.8</ele>
        <time>2013-11-17T10:16:59.000+01:00</time>
      </trkpt>
      <trkpt lat="48.68917" lon="1.9234">
        <ele>152.6</ele>
        <time>2013-11-17T10:17:08.000+01:00</time>
      </trkpt>
      <trkpt lat="48.68921" lon="1.92329">
        <ele>153.6</ele>
        <time>2013-11-17T10:17:23.000+01:00</time>
      </trkpt>
      <trkpt lat="48.68924" lon="1.92316">
        <ele>145.7</ele>
        <time>2013-11-17T10:17:29.000+01:00</time>
      </trkpt>
      <trkpt lat="48.68928" lon="1.92304">
        <ele>143.6</ele>
        <time>2013-11-17T10:17:37.000+01:00</time>
      </trkpt>
      <trkpt lat="48.68934" lon="1.92293">
        <ele>148</ele>
        <time>2013-11-17T10:17:52.000+01:00</time>
      </trkpt>
      <trkpt lat="48.68936" lon="1.92281">
        <ele>156.4</ele>
        <time>2013-11-17T10:18:07.000+01:00</time>
      </trkpt>
      <trkpt lat="48.68938" lon="1.92267">
        <ele>151.9</ele>
        <time>2013-11-17T10:18:17.000+01:00</time>
      </trkpt>
      <trkpt lat="48.6894" lon="1.92254">
        <ele>153</ele>
        <time>2013-11-17T10:18:30.000+01:00</time>
      </trkpt>
      <trkpt lat="48.68944" lon="1.92241">
        <ele>150.2</ele>
        <time>2013-11-17T10:18:39.000+01:00</time>
      </trkpt>
      <trkpt lat="48.68946" lon="1.92227">
        <ele>157.1</ele>
        <time>2013-11-17T10:18:49.000+01:00</time>
      </trkpt>
      <trkpt lat="48.6895" lon="1.92214">
        <ele>156.2</ele>
        <time>2013-11-17T10:18:57.000+01:00</time>
      </trkpt>
      <trkpt lat="48.68952" lon="1.922">
        <ele>152.3</ele>
        <time>2013-11-17T10:19:03.000+01:00</time>
      </trkpt>
      <trkpt lat="48.68953" lon="1.92188">
        <ele>153.1</ele>
        <time>2013-11-17T10:19:09.000+01:00</time>
      </trkpt>
      <trkpt lat="48.68954" lon="1.92175">
        <ele>162.3</ele>
        <time>2013-11-17T10:19:18.000+01:00</time>
      </trkpt>
      <trkpt lat="48.68955" lon="1.92159">
        <ele>152.8</ele>
        <time>2013-11-17T10:19:26.000+01:00</time>
      </trkpt>
      <trkpt lat="48.68957" lon="1.92145">
        <ele>148.8</ele>
        <time>2013-11-17T10:19:33.000+01:00</time>
      </trkpt>
      <trkpt lat="48.68958" lon="1.92131">
        <ele>154.9</ele>
        <time>2013-11-17T10:19:42.000+01:00</time>
      </trkpt>
      <trkpt lat="48.68955" lon="1.92119">
        <ele>151.9</ele>
        <time>2013-11-17T10:19:49.000+01:00</time>
      </trkpt>
      <trkpt lat="48.68955" lon="1.92103">
        <ele>128.4</ele>
        <time>2013-11-17T10:19:57.000+01:00</time>
      </trkpt>
      <trkpt lat="48.68952" lon="1.92091">
        <ele>102.7</ele>
        <time>2013-11-17T10:20:14.000+01:00</time>
      </trkpt>
      <trkpt lat="48.68954" lon="1.92084">
        <ele>104</ele>
        <time>2013-11-17T10:20:33.000+01:00</time>
      </trkpt>
      <trkpt lat="48.68962" lon="1.92084">
        <ele>106.9</ele>
        <time>2013-11-17T10:20:43.000+01:00</time>
      </trkpt>
      <trkpt lat="48.68971" lon="1.92091">
        <ele>102.4</ele>
        <time>2013-11-17T10:20:51.000+01:00</time>
      </trkpt>
      <trkpt lat="48.68975" lon="1.92092">
        <ele>102.6</ele>
        <time>2013-11-17T10:21:02.000+01:00</time>
      </trkpt>
      <trkpt lat="48.68966" lon="1.92091">
        <ele>110.1</ele>
        <time>2013-11-17T10:21:11.000+01:00</time>
      </trkpt>
      <trkpt lat="48.68957" lon="1.92087">
        <ele>119.7</ele>
        <time>2013-11-17T10:21:22.000+01:00</time>
      </trkpt>
      <trkpt lat="48.68951" lon="1.92084">
        <ele>116.3</ele>
        <time>2013-11-17T10:21:49.000+01:00</time>
      </trkpt>
      <trkpt lat="48.68952" lon="1.92086">
        <ele>116.4</ele>
        <time>2013-11-17T10:22:12.000+01:00</time>
      </trkpt>
      <trkpt lat="48.68958" lon="1.92086">
        <ele>119.2</ele>
        <time>2013-11-17T10:22:29.000+01:00</time>
      </trkpt>
      <trkpt lat="48.68965" lon="1.92081">
        <ele>126.6</ele>
        <time>2013-11-17T10:22:48.000+01:00</time>
      </trkpt>
      <trkpt lat="48.68971" lon="1.9207">
        <ele>116.3</ele>
        <time>2013-11-17T10:22:56.000+01:00</time>
      </trkpt>
      <trkpt lat="48.68976" lon="1.92061">
        <ele>120.7</ele>
        <time>2013-11-17T10:23:09.000+01:00</time>
      </trkpt>
      <trkpt lat="48.6898" lon="1.92058">
        <ele>137.2</ele>
        <time>2013-11-17T10:23:31.000+01:00</time>
      </trkpt>
      <trkpt lat="48.68983" lon="1.92047">
        <ele>150.4</ele>
        <time>2013-11-17T10:23:48.000+01:00</time>
      </trkpt>
      <trkpt lat="48.68983" lon="1.92035">
        <ele>149.8</ele>
        <time>2013-11-17T10:24:00.000+01:00</time>
      </trkpt>
      <trkpt lat="48.68985" lon="1.92027">
        <ele>130.3</ele>
        <time>2013-11-17T10:24:09.000+01:00</time>
      </trkpt>
      <trkpt lat="48.68993" lon="1.92023">
        <ele>131.1</ele>
        <time>2013-11-17T10:24:25.000+01:00</time>
      </trkpt>
      <trkpt lat="48.68995" lon="1.92013">
        <ele>131.7</ele>
        <time>2013-11-17T10:24:41.000+01:00</time>
      </trkpt>
      <trkpt lat="48.68992" lon="1.92001">
        <ele>124.6</ele>
        <time>2013-11-17T10:24:52.000+01:00</time>
      </trkpt>
      <trkpt lat="48.68999" lon="1.91993">
        <ele>119.9</ele>
        <time>2013-11-17T10:25:09.000+01:00</time>
      </trkpt>
      <trkpt lat="48.69006" lon="1.91988">
        <ele>125.2</ele>
        <time>2013-11-17T10:25:19.000+01:00</time>
      </trkpt>
      <trkpt lat="48.69012" lon="1.91981">
        <ele>120.1</ele>
        <time>2013-11-17T10:25:31.000+01:00</time>
      </trkpt>
      <trkpt lat="48.69018" lon="1.91979">
        <ele>123.5</ele>
        <time>2013-11-17T10:25:46.000+01:00</time>
      </trkpt>
      <trkpt lat="48.69023" lon="1.91977">
        <ele>127.6</ele>
        <time>2013-11-17T10:25:58.000+01:00</time>
      </trkpt>
      <trkpt lat="48.69028" lon="1.91979">
        <ele>131.4</ele>
        <time>2013-11-17T10:26:11.000+01:00</time>
      </trkpt>
      <trkpt lat="48.69029" lon="1.91972">
        <ele>124</ele>
        <time>2013-11-17T10:26:39.000+01:00</time>
      </trkpt>
      <trkpt lat="48.69031" lon="1.91966">
        <ele>128</ele>
        <time>2013-11-17T10:26:58.000+01:00</time>
      </trkpt>
      <trkpt lat="48.69037" lon="1.91968">
        <ele>128.1</ele>
        <time>2013-11-17T10:27:10.000+01:00</time>
      </trkpt>
      <trkpt lat="48.69044" lon="1.91963">
        <ele>137.7</ele>
        <time>2013-11-17T10:27:26.000+01:00</time>
      </trkpt>
      <trkpt lat="48.69047" lon="1.91954">
        <ele>134.2</ele>
        <time>2013-11-17T10:27:48.000+01:00</time>
      </trkpt>
      <trkpt lat="48.69052" lon="1.91943">
        <ele>144.9</ele>
        <time>2013-11-17T10:28:02.000+01:00</time>
      </trkpt>
      <trkpt lat="48.69056" lon="1.91933">
        <ele>154.5</ele>
        <time>2013-11-17T10:28:15.000+01:00</time>
      </trkpt>
      <trkpt lat="48.69062" lon="1.91923">
        <ele>164.1</ele>
        <time>2013-11-17T10:28:26.000+01:00</time>
      </trkpt>
      <trkpt lat="48.69066" lon="1.91912">
        <ele>164.5</ele>
        <time>2013-11-17T10:28:35.000+01:00</time>
      </trkpt>
      <trkpt lat="48.6907" lon="1.91897">
        <ele>159.2</ele>
        <time>2013-11-17T10:28:42.000+01:00</time>
      </trkpt>
      <trkpt lat="48.69077" lon="1.91887">
        <ele>164.8</ele>
        <time>2013-11-17T10:28:53.000+01:00</time>
      </trkpt>
      <trkpt lat="48.6908" lon="1.91873">
        <ele>158.8</ele>
        <time>2013-11-17T10:29:00.000+01:00</time>
      </trkpt>
      <trkpt lat="48.69085" lon="1.91864">
        <ele>165.4</ele>
        <time>2013-11-17T10:29:08.000+01:00</time>
      </trkpt>
      <trkpt lat="48.69092" lon="1.91854">
        <ele>168.1</ele>
        <time>2013-11-17T10:29:17.000+01:00</time>
      </trkpt>
      <trkpt lat="48.69098" lon="1.91841">
        <ele>159.8</ele>
        <time>2013-11-17T10:29:25.000+01:00</time>
      </trkpt>
      <trkpt lat="48.69103" lon="1.9183">
        <ele>156</ele>
        <time>2013-11-17T10:29:33.000+01:00</time>
      </trkpt>
      <trkpt lat="48.69109" lon="1.9182">
        <ele>159.9</ele>
        <time>2013-11-17T10:29:42.000+01:00</time>
      </trkpt>
      <trkpt lat="48.69112" lon="1.91807">
        <ele>157.3</ele>
        <time>2013-11-17T10:29:50.000+01:00</time>
      </trkpt>
      <trkpt lat="48.69118" lon="1.91794">
        <ele>159.1</ele>
        <time>2013-11-17T10:29:56.000+01:00</time>
      </trkpt>
      <trkpt lat="48.69124" lon="1.91783">
        <ele>163.1</ele>
        <time>2013-11-17T10:30:05.000+01:00</time>
      </trkpt>
      <trkpt lat="48.69128" lon="1.91771">
        <ele>159.8</ele>
        <time>2013-11-17T10:30:14.000+01:00</time>
      </trkpt>
      <trkpt lat="48.69134" lon="1.91761">
        <ele>159</ele>
        <time>2013-11-17T10:30:22.000+01:00</time>
      </trkpt>
      <trkpt lat="48.69141" lon="1.9175">
        <ele>167.1</ele>
        <time>2013-11-17T10:30:32.000+01:00</time>
      </trkpt>
      <trkpt lat="48.69143" lon="1.91736">
        <ele>161.7</ele>
        <time>2013-11-17T10:30:38.000+01:00</time>
      </trkpt>
      <trkpt lat="48.69147" lon="1.91725">
        <ele>158</ele>
        <time>2013-11-17T10:30:46.000+01:00</time>
      </trkpt>
      <trkpt lat="48.69151" lon="1.91711">
        <ele>159.4</ele>
        <time>2013-11-17T10:30:53.000+01:00</time>
      </trkpt>
      <trkpt lat="48.69156" lon="1.917">
        <ele>148.4</ele>
        <time>2013-11-17T10:30:59.000+01:00</time>
      </trkpt>
      <trkpt lat="48.69163" lon="1.91689">
        <ele>134</ele>
        <time>2013-11-17T10:31:04.000+01:00</time>
      </trkpt>
      <trkpt lat="48.69171" lon="1.9168">
        <ele>125.6</ele>
        <time>2013-11-17T10:31:11.000+01:00</time>
      </trkpt>
      <trkpt lat="48.6918" lon="1.91674">
        <ele>120.1</ele>
        <time>2013-11-17T10:31:19.000+01:00</time>
      </trkpt>
      <trkpt lat="48.69189" lon="1.91669">
        <ele>120.7</ele>
        <time>2013-11-17T10:31:28.000+01:00</time>
      </trkpt>
      <trkpt lat="48.69197" lon="1.91665">
        <ele>117.7</ele>
        <time>2013-11-17T10:31:36.000+01:00</time>
      </trkpt>
      <trkpt lat="48.69207" lon="1.91666">
        <ele>121.2</ele>
        <time>2013-11-17T10:31:46.000+01:00</time>
      </trkpt>
      <trkpt lat="48.69214" lon="1.91662">
        <ele>122</ele>
        <time>2013-11-17T10:31:55.000+01:00</time>
      </trkpt>
      <trkpt lat="48.69223" lon="1.91662">
        <ele>129.6</ele>
        <time>2013-11-17T10:32:05.000+01:00</time>
      </trkpt>
      <trkpt lat="48.6923" lon="1.91654">
        <ele>139.3</ele>
        <time>2013-11-17T10:32:15.000+01:00</time>
      </trkpt>
      <trkpt lat="48.69238" lon="1.91648">
        <ele>136.7</ele>
        <time>2013-11-17T10:32:23.000+01:00</time>
      </trkpt>
      <trkpt lat="48.69245" lon="1.91639">
        <ele>129.5</ele>
        <time>2013-11-17T10:32:33.000+01:00</time>
      </trkpt>
      <trkpt lat="48.69245" lon="1.91632">
        <ele>129.5</ele>
        <time>2013-11-17T10:32:43.000+01:00</time>
      </trkpt>
      <trkpt lat="48.69254" lon="1.91637">
        <ele>123.6</ele>
        <time>2013-11-17T10:32:52.000+01:00</time>
      </trkpt>
      <trkpt lat="48.6926" lon="1.91638">
        <ele>126.6</ele>
        <time>2013-11-17T10:33:15.000+01:00</time>
      </trkpt>
      <trkpt lat="48.69259" lon="1.91634">
        <ele>134</ele>
        <time>2013-11-17T10:33:39.000+01:00</time>
      </trkpt>
      <trkpt lat="48.69265" lon="1.91638">
        <ele>133.9</ele>
        <time>2013-11-17T10:33:50.000+01:00</time>
      </trkpt>
      <trkpt lat="48.69266" lon="1.91634">
        <ele>134.4</ele>
        <time>2013-11-17T10:34:06.000+01:00</time>
      </trkpt>
      <trkpt lat="48.69273" lon="1.91624">
        <ele>146.2</ele>
        <time>2013-11-17T10:34:18.000+01:00</time>
      </trkpt>
      <trkpt lat="48.6928" lon="1.91615">
        <ele>157.6</ele>
        <time>2013-11-17T10:34:30.000+01:00</time>
      </trkpt>
      <trkpt lat="48.69286" lon="1.91605">
        <ele>158.6</ele>
        <time>2013-11-17T10:34:40.000+01:00</time>
      </trkpt>
      <trkpt lat="48.6929" lon="1.91593">
        <ele>147.3</ele>
        <time>2013-11-17T10:34:47.000+01:00</time>
      </trkpt>
      <trkpt lat="48.69295" lon="1.91584">
        <ele>146.6</ele>
        <time>2013-11-17T10:34:55.000+01:00</time>
      </trkpt>
      <trkpt lat="48.693" lon="1.91574">
        <ele>151.2</ele>
        <time>2013-11-17T10:35:04.000+01:00</time>
      </trkpt>
      <trkpt lat="48.69306" lon="1.91564">
        <ele>151.6</ele>
        <time>2013-11-17T10:35:13.000+01:00</time>
      </trkpt>
      <trkpt lat="48.69313" lon="1.91553">
        <ele>143.2</ele>
        <time>2013-11-17T10:35:21.000+01:00</time>
      </trkpt>
      <trkpt lat="48.69321" lon="1.91547">
        <ele>143.7</ele>
        <time>2013-11-17T10:35:29.000+01:00</time>
      </trkpt>
      <trkpt lat="48.69328" lon="1.91541">
        <ele>149.4</ele>
        <time>2013-11-17T10:35:41.000+01:00</time>
      </trkpt>
      <trkpt lat="48.69334" lon="1.91532">
        <ele>147.1</ele>
        <time>2013-11-17T10:35:48.000+01:00</time>
      </trkpt>
      <trkpt lat="48.69344" lon="1.91526">
        <ele>152.5</ele>
        <time>2013-11-17T10:35:57.000+01:00</time>
      </trkpt>
      <trkpt lat="48.69352" lon="1.91522">
        <ele>151.6</ele>
        <time>2013-11-17T10:36:04.000+01:00</time>
      </trkpt>
      <trkpt lat="48.69358" lon="1.91512">
        <ele>144.7</ele>
        <time>2013-11-17T10:36:12.000+01:00</time>
      </trkpt>
      <trkpt lat="48.6936" lon="1.91505">
        <ele>132.8</ele>
        <time>2013-11-17T10:36:31.000+01:00</time>
      </trkpt>
      <trkpt lat="48.69367" lon="1.91502">
        <ele>119.4</ele>
        <time>2013-11-17T10:36:46.000+01:00</time>
      </trkpt>
      <trkpt lat="48.69367" lon="1.91497">
        <ele>118.5</ele>
        <time>2013-11-17T10:36:58.000+01:00</time>
      </trkpt>
      <trkpt lat="48.69373" lon="1.91497">
        <ele>126.7</ele>
        <time>2013-11-17T10:37:12.000+01:00</time>
      </trkpt>
      <trkpt lat="48.69382" lon="1.91499">
        <ele>133.3</ele>
        <time>2013-11-17T10:37:18.000+01:00</time>
      </trkpt>
      <trkpt lat="48.69391" lon="1.91503">
        <ele>138.4</ele>
        <time>2013-11-17T10:37:23.000+01:00</time>
      </trkpt>
      <trkpt lat="48.694" lon="1.91507">
        <ele>142.7</ele>
        <time>2013-11-17T10:37:33.000+01:00</time>
      </trkpt>
      <trkpt lat="48.69394" lon="1.91504">
        <ele>143.7</ele>
        <time>2013-11-17T10:37:48.000+01:00</time>
      </trkpt>
      <trkpt lat="48.69385" lon="1.91501">
        <ele>133.3</ele>
        <time>2013-11-17T10:37:53.000+01:00</time>
      </trkpt>
      <trkpt lat="48.69376" lon="1.91498">
        <ele>128.7</ele>
        <time>2013-11-17T10:37:59.000+01:00</time>
      </trkpt>
      <trkpt lat="48.69368" lon="1.9149">
        <ele>130.6</ele>
        <time>2013-11-17T10:38:07.000+01:00</time>
      </trkpt>
      <trkpt lat="48.69363" lon="1.9148">
        <ele>127.4</ele>
        <time>2013-11-17T10:38:13.000+01:00</time>
      </trkpt>
      <trkpt lat="48.69355" lon="1.91474">
        <ele>126.7</ele>
        <time>2013-11-17T10:38:20.000+01:00</time>
      </trkpt>
      <trkpt lat="48.69353" lon="1.91476">
        <ele>120</ele>
        <time>2013-11-17T10:38:37.000+01:00</time>
      </trkpt>
      <trkpt lat="48.69355" lon="1.91477">
        <ele>122.1</ele>
        <time>2013-11-17T10:39:00.000+01:00</time>
      </trkpt>
      <trkpt lat="48.69357" lon="1.91483">
        <ele>118</ele>
        <time>2013-11-17T10:39:18.000+01:00</time>
      </trkpt>
      <trkpt lat="48.69358" lon="1.9149">
        <ele>125.6</ele>
        <time>2013-11-17T10:39:35.000+01:00</time>
      </trkpt>
      <trkpt lat="48.69354" lon="1.91479">
        <ele>138.4</ele>
        <time>2013-11-17T10:39:45.000+01:00</time>
      </trkpt>
      <trkpt lat="48.69352" lon="1.91467">
        <ele>138.1</ele>
        <time>2013-11-17T10:39:54.000+01:00</time>
      </trkpt>
      <trkpt lat="48.69348" lon="1.91457">
        <ele>134.8</ele>
        <time>2013-11-17T10:40:09.000+01:00</time>
      </trkpt>
      <trkpt lat="48.69344" lon="1.91455">
        <ele>127.2</ele>
        <time>2013-11-17T10:40:23.000+01:00</time>
      </trkpt>
      <trkpt lat="48.69344" lon="1.91451">
        <ele>126.4</ele>
        <time>2013-11-17T10:40:43.000+01:00</time>
      </trkpt>
      <trkpt lat="48.69347" lon="1.91443">
        <ele>132.1</ele>
        <time>2013-11-17T10:40:52.000+01:00</time>
      </trkpt>
      <trkpt lat="48.69355" lon="1.91448">
        <ele>113.9</ele>
        <time>2013-11-17T10:54:34.000+01:00</time>
      </trkpt>
      <trkpt lat="48.69355" lon="1.91457">
        <ele>126.2</ele>
        <time>2013-11-17T10:54:55.000+01:00</time>
      </trkpt>
      <trkpt lat="48.69359" lon="1.91469">
        <ele>125.5</ele>
        <time>2013-11-17T10:55:06.000+01:00</time>
      </trkpt>
      <trkpt lat="48.69364" lon="1.9148">
        <ele>126</ele>
        <time>2013-11-17T10:55:15.000+01:00</time>
      </trkpt>
      <trkpt lat="48.6937" lon="1.91491">
        <ele>121.8</ele>
        <time>2013-11-17T10:55:22.000+01:00</time>
      </trkpt>
      <trkpt lat="48.69372" lon="1.91504">
        <ele>126.1</ele>
        <time>2013-11-17T10:55:32.000+01:00</time>
      </trkpt>
      <trkpt lat="48.69372" lon="1.91508">
        <ele>130.8</ele>
        <time>2013-11-17T10:55:41.000+01:00</time>
      </trkpt>
      <trkpt lat="48.69376" lon="1.91515">
        <ele>129.6</ele>
        <time>2013-11-17T10:55:51.000+01:00</time>
      </trkpt>
      <trkpt lat="48.69383" lon="1.9152">
        <ele>129.1</ele>
        <time>2013-11-17T10:55:57.000+01:00</time>
      </trkpt>
      <trkpt lat="48.6939" lon="1.91526">
        <ele>134.7</ele>
        <time>2013-11-17T10:56:09.000+01:00</time>
      </trkpt>
      <trkpt lat="48.69396" lon="1.91539">
        <ele>136.7</ele>
        <time>2013-11-17T10:56:17.000+01:00</time>
      </trkpt>
      <trkpt lat="48.69403" lon="1.91548">
        <ele>138.9</ele>
        <time>2013-11-17T10:56:27.000+01:00</time>
      </trkpt>
      <trkpt lat="48.69409" lon="1.91552">
        <ele>140.1</ele>
        <time>2013-11-17T10:56:35.000+01:00</time>
      </trkpt>
      <trkpt lat="48.69415" lon="1.91561">
        <ele>143.1</ele>
        <time>2013-11-17T10:56:44.000+01:00</time>
      </trkpt>
      <trkpt lat="48.69421" lon="1.91573">
        <ele>142.9</ele>
        <time>2013-11-17T10:56:51.000+01:00</time>
      </trkpt>
      <trkpt lat="48.69427" lon="1.91583">
        <ele>140.5</ele>
        <time>2013-11-17T10:56:55.000+01:00</time>
      </trkpt>
      <trkpt lat="48.6943" lon="1.91599">
        <ele>136.5</ele>
        <time>2013-11-17T10:57:00.000+01:00</time>
      </trkpt>
      <trkpt lat="48.69421" lon="1.91601">
        <ele>141.5</ele>
        <time>2013-11-17T10:57:07.000+01:00</time>
      </trkpt>
      <trkpt lat="48.69421" lon="1.91612">
        <ele>141.7</ele>
        <time>2013-11-17T10:57:15.000+01:00</time>
      </trkpt>
      <trkpt lat="48.69424" lon="1.91622">
        <ele>140.7</ele>
        <time>2013-11-17T10:57:20.000+01:00</time>
      </trkpt>
      <trkpt lat="48.69415" lon="1.91619">
        <ele>157</ele>
        <time>2013-11-17T10:57:26.000+01:00</time>
      </trkpt>
      <trkpt lat="48.69412" lon="1.9163">
        <ele>159.4</ele>
        <time>2013-11-17T10:57:32.000+01:00</time>
      </trkpt>
      <trkpt lat="48.69413" lon="1.91644">
        <ele>149.7</ele>
        <time>2013-11-17T10:57:39.000+01:00</time>
      </trkpt>
      <trkpt lat="48.69412" lon="1.91652">
        <ele>151.5</ele>
        <time>2013-11-17T10:57:46.000+01:00</time>
      </trkpt>
      <trkpt lat="48.69405" lon="1.91657">
        <ele>163.1</ele>
        <time>2013-11-17T10:57:54.000+01:00</time>
      </trkpt>
      <trkpt lat="48.69403" lon="1.91663">
        <ele>165.5</ele>
        <time>2013-11-17T10:58:08.000+01:00</time>
      </trkpt>
      <trkpt lat="48.69411" lon="1.91675">
        <ele>155.6</ele>
        <time>2013-11-17T10:58:14.000+01:00</time>
      </trkpt>
      <trkpt lat="48.69411" lon="1.91684">
        <ele>153.7</ele>
        <time>2013-11-17T10:58:22.000+01:00</time>
      </trkpt>
      <trkpt lat="48.69412" lon="1.91696">
        <ele>154.7</ele>
        <time>2013-11-17T10:58:33.000+01:00</time>
      </trkpt>
      <trkpt lat="48.69416" lon="1.9171">
        <ele>151.3</ele>
        <time>2013-11-17T10:58:40.000+01:00</time>
      </trkpt>
      <trkpt lat="48.69413" lon="1.91719">
        <ele>149.3</ele>
        <time>2013-11-17T10:58:46.000+01:00</time>
      </trkpt>
      <trkpt lat="48.69407" lon="1.91716">
        <ele>150.1</ele>
        <time>2013-11-17T10:58:51.000+01:00</time>
      </trkpt>
      <trkpt lat="48.69398" lon="1.9171">
        <ele>144.4</ele>
        <time>2013-11-17T10:58:58.000+01:00</time>
      </trkpt>
      <trkpt lat="48.6939" lon="1.91707">
        <ele>153.3</ele>
        <time>2013-11-17T10:59:08.000+01:00</time>
      </trkpt>
      <trkpt lat="48.69382" lon="1.91702">
        <ele>160.9</ele>
        <time>2013-11-17T10:59:13.000+01:00</time>
      </trkpt>
      <trkpt lat="48.69378" lon="1.91699">
        <ele>155.9</ele>
        <time>2013-11-17T10:59:25.000+01:00</time>
      </trkpt>
      <trkpt lat="48.69371" lon="1.91693">
        <ele>158.1</ele>
        <time>2013-11-17T10:59:32.000+01:00</time>
      </trkpt>
      <trkpt lat="48.69364" lon="1.91687">
        <ele>159.1</ele>
        <time>2013-11-17T10:59:38.000+01:00</time>
      </trkpt>
      <trkpt lat="48.69357" lon="1.91682">
        <ele>153.7</ele>
        <time>2013-11-17T10:59:48.000+01:00</time>
      </trkpt>
      <trkpt lat="48.69356" lon="1.91681">
        <ele>151.1</ele>
        <time>2013-11-17T11:00:02.000+01:00</time>
      </trkpt>
      <trkpt lat="48.6935" lon="1.91677">
        <ele>164.8</ele>
        <time>2013-11-17T11:00:18.000+01:00</time>
      </trkpt>
      <trkpt lat="48.69353" lon="1.91672">
        <ele>150</ele>
        <time>2013-11-17T11:00:36.000+01:00</time>
      </trkpt>
      <trkpt lat="48.69353" lon="1.91675">
        <ele>156.2</ele>
        <time>2013-11-17T11:00:48.000+01:00</time>
      </trkpt>
      <trkpt lat="48.69352" lon="1.91688">
        <ele>163.8</ele>
        <time>2013-11-17T11:00:58.000+01:00</time>
      </trkpt>
      <trkpt lat="48.69353" lon="1.91695">
        <ele>165.3</ele>
        <time>2013-11-17T11:01:12.000+01:00</time>
      </trkpt>
      <trkpt lat="48.69356" lon="1.91705">
        <ele>177</ele>
        <time>2013-11-17T11:01:25.000+01:00</time>
      </trkpt>
      <trkpt lat="48.69356" lon="1.91714">
        <ele>177.6</ele>
        <time>2013-11-17T11:01:39.000+01:00</time>
      </trkpt>
      <trkpt lat="48.69356" lon="1.91725">
        <ele>172.1</ele>
        <time>2013-11-17T11:01:46.000+01:00</time>
      </trkpt>
      <trkpt lat="48.69355" lon="1.91741">
        <ele>162.6</ele>
        <time>2013-11-17T11:01:52.000+01:00</time>
      </trkpt>
      <trkpt lat="48.69352" lon="1.91754">
        <ele>158.3</ele>
        <time>2013-11-17T11:02:00.000+01:00</time>
      </trkpt>
      <trkpt lat="48.69348" lon="1.91765">
        <ele>159.4</ele>
        <time>2013-11-17T11:02:10.000+01:00</time>
      </trkpt>
      <trkpt lat="48.69342" lon="1.91774">
        <ele>163.1</ele>
        <time>2013-11-17T11:02:18.000+01:00</time>
      </trkpt>
      <trkpt lat="48.69336" lon="1.91783">
        <ele>165.4</ele>
        <time>2013-11-17T11:02:26.000+01:00</time>
      </trkpt>
      <trkpt lat="48.69328" lon="1.9179">
        <ele>169.9</ele>
        <time>2013-11-17T11:02:33.000+01:00</time>
      </trkpt>
      <trkpt lat="48.69322" lon="1.91796">
        <ele>173.2</ele>
        <time>2013-11-17T11:02:40.000+01:00</time>
      </trkpt>
      <trkpt lat="48.69322" lon="1.91809">
        <ele>172.3</ele>
        <time>2013-11-17T11:02:47.000+01:00</time>
      </trkpt>
      <trkpt lat="48.69319" lon="1.91823">
        <ele>167</ele>
        <time>2013-11-17T11:02:53.000+01:00</time>
      </trkpt>
      <trkpt lat="48.69321" lon="1.91835">
        <ele>167.1</ele>
        <time>2013-11-17T11:02:59.000+01:00</time>
      </trkpt>
      <trkpt lat="48.69315" lon="1.91844">
        <ele>169.1</ele>
        <time>2013-11-17T11:03:06.000+01:00</time>
      </trkpt>
      <trkpt lat="48.69308" lon="1.9185">
        <ele>177.8</ele>
        <time>2013-11-17T11:03:15.000+01:00</time>
      </trkpt>
      <trkpt lat="48.69307" lon="1.9186">
        <ele>176.5</ele>
        <time>2013-11-17T11:03:22.000+01:00</time>
      </trkpt>
      <trkpt lat="48.6931" lon="1.91873">
        <ele>171.5</ele>
        <time>2013-11-17T11:03:26.000+01:00</time>
      </trkpt>
      <trkpt lat="48.69308" lon="1.91888">
        <ele>173</ele>
        <time>2013-11-17T11:03:33.000+01:00</time>
      </trkpt>
      <trkpt lat="48.69305" lon="1.91902">
        <ele>173.4</ele>
        <time>2013-11-17T11:03:42.000+01:00</time>
      </trkpt>
      <trkpt lat="48.69305" lon="1.91916">
        <ele>168.6</ele>
        <time>2013-11-17T11:03:47.000+01:00</time>
      </trkpt>
      <trkpt lat="48.69305" lon="1.91927">
        <ele>165.9</ele>
        <time>2013-11-17T11:03:52.000+01:00</time>
      </trkpt>
      <trkpt lat="48.69303" lon="1.9194">
        <ele>163.2</ele>
        <time>2013-11-17T11:03:59.000+01:00</time>
      </trkpt>
      <trkpt lat="48.69297" lon="1.91948">
        <ele>168.8</ele>
        <time>2013-11-17T11:04:07.000+01:00</time>
      </trkpt>
      <trkpt lat="48.69297" lon="1.91959">
        <ele>169.7</ele>
        <time>2013-11-17T11:04:15.000+01:00</time>
      </trkpt>
      <trkpt lat="48.69292" lon="1.91969">
        <ele>172.4</ele>
        <time>2013-11-17T11:04:23.000+01:00</time>
      </trkpt>
      <trkpt lat="48.69294" lon="1.91984">
        <ele>164.9</ele>
        <time>2013-11-17T11:04:28.000+01:00</time>
      </trkpt>
      <trkpt lat="48.69294" lon="1.91998">
        <ele>164.3</ele>
        <time>2013-11-17T11:04:36.000+01:00</time>
      </trkpt>
      <trkpt lat="48.69286" lon="1.92001">
        <ele>168.3</ele>
        <time>2013-11-17T11:04:44.000+01:00</time>
      </trkpt>
      <trkpt lat="48.69285" lon="1.92014">
        <ele>159.8</ele>
        <time>2013-11-17T11:04:49.000+01:00</time>
      </trkpt>
      <trkpt lat="48.69277" lon="1.92019">
        <ele>164.3</ele>
        <time>2013-11-17T11:04:55.000+01:00</time>
      </trkpt>
      <trkpt lat="48.69273" lon="1.92024">
        <ele>168.7</ele>
        <time>2013-11-17T11:05:05.000+01:00</time>
      </trkpt>
      <trkpt lat="48.69265" lon="1.92031">
        <ele>169.3</ele>
        <time>2013-11-17T11:05:12.000+01:00</time>
      </trkpt>
      <trkpt lat="48.69259" lon="1.92038">
        <ele>165.3</ele>
        <time>2013-11-17T11:05:18.000+01:00</time>
      </trkpt>
      <trkpt lat="48.69256" lon="1.92048">
        <ele>163</ele>
        <time>2013-11-17T11:05:27.000+01:00</time>
      </trkpt>
      <trkpt lat="48.69247" lon="1.92056">
        <ele>161.7</ele>
        <time>2013-11-17T11:05:34.000+01:00</time>
      </trkpt>
      <trkpt lat="48.69242" lon="1.9206">
        <ele>164.5</ele>
        <time>2013-11-17T11:05:42.000+01:00</time>
      </trkpt>
      <trkpt lat="48.69234" lon="1.92057">
        <ele>167.3</ele>
        <time>2013-11-17T11:05:47.000+01:00</time>
      </trkpt>
      <trkpt lat="48.69225" lon="1.92054">
        <ele>176.2</ele>
        <time>2013-11-17T11:05:52.000+01:00</time>
      </trkpt>
      <trkpt lat="48.69215" lon="1.92054">
        <ele>176.5</ele>
        <time>2013-11-17T11:05:58.000+01:00</time>
      </trkpt>
      <trkpt lat="48.69205" lon="1.92053">
        <ele>179.4</ele>
        <time>2013-11-17T11:06:04.000+01:00</time>
      </trkpt>
      <trkpt lat="48.69197" lon="1.92053">
        <ele>176.3</ele>
        <time>2013-11-17T11:06:14.000+01:00</time>
      </trkpt>
      <trkpt lat="48.6919" lon="1.92053">
        <ele>162.3</ele>
        <time>2013-11-17T11:06:27.000+01:00</time>
      </trkpt>
      <trkpt lat="48.69182" lon="1.92057">
        <ele>153.9</ele>
        <time>2013-11-17T11:06:38.000+01:00</time>
      </trkpt>
      <trkpt lat="48.69174" lon="1.9206">
        <ele>155.6</ele>
        <time>2013-11-17T11:06:44.000+01:00</time>
      </trkpt>
      <trkpt lat="48.69167" lon="1.9207">
        <ele>154</ele>
        <time>2013-11-17T11:06:53.000+01:00</time>
      </trkpt>
      <trkpt lat="48.6916" lon="1.92078">
        <ele>154.6</ele>
        <time>2013-11-17T11:07:00.000+01:00</time>
      </trkpt>
      <trkpt lat="48.69155" lon="1.9209">
        <ele>152.7</ele>
        <time>2013-11-17T11:07:07.000+01:00</time>
      </trkpt>
      <trkpt lat="48.69152" lon="1.92098">
        <ele>153.7</ele>
        <time>2013-11-17T11:07:17.000+01:00</time>
      </trkpt>
      <trkpt lat="48.69149" lon="1.92104">
        <ele>162.2</ele>
        <time>2013-11-17T11:07:27.000+01:00</time>
      </trkpt>
      <trkpt lat="48.69141" lon="1.92109">
        <ele>173.8</ele>
        <time>2013-11-17T11:07:36.000+01:00</time>
      </trkpt>
      <trkpt lat="48.69135" lon="1.92117">
        <ele>177.2</ele>
        <time>2013-11-17T11:07:44.000+01:00</time>
      </trkpt>
      <trkpt lat="48.69135" lon="1.92131">
        <ele>177.2</ele>
        <time>2013-11-17T11:07:51.000+01:00</time>
      </trkpt>
      <trkpt lat="48.69127" lon="1.92138">
        <ele>177.5</ele>
        <time>2013-11-17T11:07:56.000+01:00</time>
      </trkpt>
      <trkpt lat="48.69128" lon="1.92152">
        <ele>176.3</ele>
        <time>2013-11-17T11:08:01.000+01:00</time>
      </trkpt>
      <trkpt lat="48.69125" lon="1.92163">
        <ele>182</ele>
        <time>2013-11-17T11:08:11.000+01:00</time>
      </trkpt>
      <trkpt lat="48.69122" lon="1.92176">
        <ele>178</ele>
        <time>2013-11-17T11:08:17.000+01:00</time>
      </trkpt>
      <trkpt lat="48.69121" lon="1.92189">
        <ele>173.1</ele>
        <time>2013-11-17T11:08:25.000+01:00</time>
      </trkpt>
      <trkpt lat="48.69123" lon="1.92204">
        <ele>169.1</ele>
        <time>2013-11-17T11:08:32.000+01:00</time>
      </trkpt>
      <trkpt lat="48.69123" lon="1.92209">
        <ele>169.2</ele>
        <time>2013-11-17T11:08:38.000+01:00</time>
      </trkpt>
      <trkpt lat="48.69122" lon="1.92217">
        <ele>166.9</ele>
        <time>2013-11-17T11:08:47.000+01:00</time>
      </trkpt>
      <trkpt lat="48.69121" lon="1.92231">
        <ele>161.3</ele>
        <time>2013-11-17T11:08:57.000+01:00</time>
      </trkpt>
      <trkpt lat="48.69121" lon="1.92243">
        <ele>163.2</ele>
        <time>2013-11-17T11:09:06.000+01:00</time>
      </trkpt>
      <trkpt lat="48.69114" lon="1.92246">
        <ele>168.3</ele>
        <time>2013-11-17T11:09:11.000+01:00</time>
      </trkpt>
      <trkpt lat="48.69115" lon="1.92252">
        <ele>171.9</ele>
        <time>2013-11-17T11:09:17.000+01:00</time>
      </trkpt>
      <trkpt lat="48.69118" lon="1.92264">
        <ele>166</ele>
        <time>2013-11-17T11:09:24.000+01:00</time>
      </trkpt>
      <trkpt lat="48.6912" lon="1.92279">
        <ele>163.4</ele>
        <time>2013-11-17T11:09:30.000+01:00</time>
      </trkpt>
      <trkpt lat="48.69118" lon="1.92291">
        <ele>170.4</ele>
        <time>2013-11-17T11:09:40.000+01:00</time>
      </trkpt>
      <trkpt lat="48.69114" lon="1.923">
        <ele>179.2</ele>
        <time>2013-11-17T11:09:48.000+01:00</time>
      </trkpt>
      <trkpt lat="48.69114" lon="1.92312">
        <ele>181</ele>
        <time>2013-11-17T11:09:56.000+01:00</time>
      </trkpt>
      <trkpt lat="48.6912" lon="1.92323">
        <ele>172.1</ele>
        <time>2013-11-17T11:10:00.000+01:00</time>
      </trkpt>
      <trkpt lat="48.6912" lon="1.92336">
        <ele>169</ele>
        <time>2013-11-17T11:10:06.000+01:00</time>
      </trkpt>
      <trkpt lat="48.6912" lon="1.9235">
        <ele>162.2</ele>
        <time>2013-11-17T11:10:12.000+01:00</time>
      </trkpt>
      <trkpt lat="48.6912" lon="1.92364">
        <ele>151.6</ele>
        <time>2013-11-17T11:10:18.000+01:00</time>
      </trkpt>
      <trkpt lat="48.6912" lon="1.92379">
        <ele>146.4</ele>
        <time>2013-11-17T11:10:25.000+01:00</time>
      </trkpt>
      <trkpt lat="48.69114" lon="1.92389">
        <ele>145.5</ele>
        <time>2013-11-17T11:10:31.000+01:00</time>
      </trkpt>
      <trkpt lat="48.69107" lon="1.92392">
        <ele>152.1</ele>
        <time>2013-11-17T11:10:36.000+01:00</time>
      </trkpt>
      <trkpt lat="48.69098" lon="1.9239">
        <ele>162.8</ele>
        <time>2013-11-17T11:10:41.000+01:00</time>
      </trkpt>
      <trkpt lat="48.69097" lon="1.92401">
        <ele>159.3</ele>
        <time>2013-11-17T11:10:48.000+01:00</time>
      </trkpt>
      <trkpt lat="48.69096" lon="1.92412">
        <ele>158.3</ele>
        <time>2013-11-17T11:10:56.000+01:00</time>
      </trkpt>
      <trkpt lat="48.69087" lon="1.92415">
        <ele>164.2</ele>
        <time>2013-11-17T11:11:03.000+01:00</time>
      </trkpt>
      <trkpt lat="48.69081" lon="1.92422">
        <ele>170.6</ele>
        <time>2013-11-17T11:11:12.000+01:00</time>
      </trkpt>
      <trkpt lat="48.6908" lon="1.92436">
        <ele>169.5</ele>
        <time>2013-11-17T11:11:20.000+01:00</time>
      </trkpt>
      <trkpt lat="48.69077" lon="1.92443">
        <ele>173.5</ele>
        <time>2013-11-17T11:11:27.000+01:00</time>
      </trkpt>
      <trkpt lat="48.69073" lon="1.92455">
        <ele>174.1</ele>
        <time>2013-11-17T11:11:33.000+01:00</time>
      </trkpt>
      <trkpt lat="48.69069" lon="1.92468">
        <ele>173.5</ele>
        <time>2013-11-17T11:11:42.000+01:00</time>
      </trkpt>
      <trkpt lat="48.6907" lon="1.92481">
        <ele>167.8</ele>
        <time>2013-11-17T11:11:46.000+01:00</time>
      </trkpt>
      <trkpt lat="48.69068" lon="1.92494">
        <ele>169</ele>
        <time>2013-11-17T11:11:53.000+01:00</time>
      </trkpt>
      <trkpt lat="48.69065" lon="1.9251">
        <ele>163.2</ele>
        <time>2013-11-17T11:12:01.000+01:00</time>
      </trkpt>
      <trkpt lat="48.69064" lon="1.92524">
        <ele>156.9</ele>
        <time>2013-11-17T11:12:06.000+01:00</time>
      </trkpt>
      <trkpt lat="48.69058" lon="1.92535">
        <ele>162.1</ele>
        <time>2013-11-17T11:12:13.000+01:00</time>
      </trkpt>
      <trkpt lat="48.69053" lon="1.92544">
        <ele>157.5</ele>
        <time>2013-11-17T11:12:18.000+01:00</time>
      </trkpt>
      <trkpt lat="48.6905" lon="1.92558">
        <ele>159</ele>
        <time>2013-11-17T11:12:25.000+01:00</time>
      </trkpt>
      <trkpt lat="48.6904" lon="1.92559">
        <ele>169.8</ele>
        <time>2013-11-17T11:12:31.000+01:00</time>
      </trkpt>
      <trkpt lat="48.69038" lon="1.92571">
        <ele>160.2</ele>
        <time>2013-11-17T11:12:41.000+01:00</time>
      </trkpt>
      <trkpt lat="48.69039" lon="1.92582">
        <ele>163</ele>
        <time>2013-11-17T11:12:52.000+01:00</time>
      </trkpt>
      <trkpt lat="48.69042" lon="1.9259">
        <ele>170.2</ele>
        <time>2013-11-17T11:13:02.000+01:00</time>
      </trkpt>
      <trkpt lat="48.69047" lon="1.92593">
        <ele>177.2</ele>
        <time>2013-11-17T11:13:15.000+01:00</time>
      </trkpt>
      <trkpt lat="48.69055" lon="1.92603">
        <ele>176.5</ele>
        <time>2013-11-17T11:13:22.000+01:00</time>
      </trkpt>
      <trkpt lat="48.69064" lon="1.92608">
        <ele>178.9</ele>
        <time>2013-11-17T11:13:30.000+01:00</time>
      </trkpt>
      <trkpt lat="48.69072" lon="1.9261">
        <ele>185</ele>
        <time>2013-11-17T11:13:41.000+01:00</time>
      </trkpt>
      <trkpt lat="48.6908" lon="1.92616">
        <ele>183.1</ele>
        <time>2013-11-17T11:13:48.000+01:00</time>
      </trkpt>
      <trkpt lat="48.69088" lon="1.92626">
        <ele>174.4</ele>
        <time>2013-11-17T11:13:54.000+01:00</time>
      </trkpt>
      <trkpt lat="48.69097" lon="1.92634">
        <ele>168.4</ele>
        <time>2013-11-17T11:13:58.000+01:00</time>
      </trkpt>
      <trkpt lat="48.69106" lon="1.92642">
        <ele>160.5</ele>
        <time>2013-11-17T11:14:04.000+01:00</time>
      </trkpt>
      <trkpt lat="48.69113" lon="1.92649">
        <ele>154.5</ele>
        <time>2013-11-17T11:14:11.000+01:00</time>
      </trkpt>
      <trkpt lat="48.69121" lon="1.92659">
        <ele>154.2</ele>
        <time>2013-11-17T11:14:21.000+01:00</time>
      </trkpt>
      <trkpt lat="48.69127" lon="1.92659">
        <ele>157.7</ele>
        <time>2013-11-17T11:14:30.000+01:00</time>
      </trkpt>
      <trkpt lat="48.69136" lon="1.92664">
        <ele>161</ele>
        <time>2013-11-17T11:14:37.000+01:00</time>
      </trkpt>
      <trkpt lat="48.69143" lon="1.92666">
        <ele>170.2</ele>
        <time>2013-11-17T11:14:48.000+01:00</time>
      </trkpt>
      <trkpt lat="48.6915" lon="1.92675">
        <ele>167.8</ele>
        <time>2013-11-17T11:14:54.000+01:00</time>
      </trkpt>
      <trkpt lat="48.69156" lon="1.92686">
        <ele>168.1</ele>
        <time>2013-11-17T11:15:01.000+01:00</time>
      </trkpt>
      <trkpt lat="48.69161" lon="1.92697">
        <ele>166.3</ele>
        <time>2013-11-17T11:15:07.000+01:00</time>
      </trkpt>
      <trkpt lat="48.69167" lon="1.92711">
        <ele>162.7</ele>
        <time>2013-11-17T11:15:14.000+01:00</time>
      </trkpt>
      <trkpt lat="48.69171" lon="1.92723">
        <ele>159.4</ele>
        <time>2013-11-17T11:15:24.000+01:00</time>
      </trkpt>
      <trkpt lat="48.69176" lon="1.92735">
        <ele>165.8</ele>
        <time>2013-11-17T11:15:34.000+01:00</time>
      </trkpt>
      <trkpt lat="48.69183" lon="1.92732">
        <ele>177.2</ele>
        <time>2013-11-17T11:15:40.000+01:00</time>
      </trkpt>
      <trkpt lat="48.69179" lon="1.92738">
        <ele>175.6</ele>
        <time>2013-11-17T11:15:46.000+01:00</time>
      </trkpt>
      <trkpt lat="48.69173" lon="1.92752">
        <ele>173.3</ele>
        <time>2013-11-17T11:15:49.000+01:00</time>
      </trkpt>
      <trkpt lat="48.69176" lon="1.92762">
        <ele>163.5</ele>
        <time>2013-11-17T11:15:55.000+01:00</time>
      </trkpt>
      <trkpt lat="48.69171" lon="1.92766">
        <ele>165.3</ele>
        <time>2013-11-17T11:16:07.000+01:00</time>
      </trkpt>
      <trkpt lat="48.69163" lon="1.92771">
        <ele>165.9</ele>
        <time>2013-11-17T11:16:18.000+01:00</time>
      </trkpt>
      <trkpt lat="48.69154" lon="1.92772">
        <ele>170.9</ele>
        <time>2013-11-17T11:16:25.000+01:00</time>
      </trkpt>
      <trkpt lat="48.69143" lon="1.92775">
        <ele>173.2</ele>
        <time>2013-11-17T11:16:37.000+01:00</time>
      </trkpt>
      <trkpt lat="48.69134" lon="1.92775">
        <ele>173.8</ele>
        <time>2013-11-17T11:16:44.000+01:00</time>
      </trkpt>
      <trkpt lat="48.69125" lon="1.92778">
        <ele>168.7</ele>
        <time>2013-11-17T11:16:49.000+01:00</time>
      </trkpt>
      <trkpt lat="48.69117" lon="1.92782">
        <ele>168.4</ele>
        <time>2013-11-17T11:16:56.000+01:00</time>
      </trkpt>
      <trkpt lat="48.69107" lon="1.92782">
        <ele>170.9</ele>
        <time>2013-11-17T11:17:03.000+01:00</time>
      </trkpt>
      <trkpt lat="48.69098" lon="1.92781">
        <ele>171.7</ele>
        <time>2013-11-17T11:17:11.000+01:00</time>
      </trkpt>
      <trkpt lat="48.69089" lon="1.92783">
        <ele>169.9</ele>
        <time>2013-11-17T11:17:19.000+01:00</time>
      </trkpt>
      <trkpt lat="48.69079" lon="1.92786">
        <ele>161.6</ele>
        <time>2013-11-17T11:17:28.000+01:00</time>
      </trkpt>
      <trkpt lat="48.69071" lon="1.92792">
        <ele>158.1</ele>
        <time>2013-11-17T11:17:39.000+01:00</time>
      </trkpt>
      <trkpt lat="48.69063" lon="1.92801">
        <ele>155.9</ele>
        <time>2013-11-17T11:17:48.000+01:00</time>
      </trkpt>
      <trkpt lat="48.69055" lon="1.92806">
        <ele>157.3</ele>
        <time>2013-11-17T11:17:56.000+01:00</time>
      </trkpt>
      <trkpt lat="48.69047" lon="1.92815">
        <ele>158.7</ele>
        <time>2013-11-17T11:18:04.000+01:00</time>
      </trkpt>
      <trkpt lat="48.69038" lon="1.92821">
        <ele>160.8</ele>
        <time>2013-11-17T11:18:10.000+01:00</time>
      </trkpt>
      <trkpt lat="48.69029" lon="1.92824">
        <ele>157.1</ele>
        <time>2013-11-17T11:18:18.000+01:00</time>
      </trkpt>
      <trkpt lat="48.69017" lon="1.92822">
        <ele>153.5</ele>
        <time>2013-11-17T11:18:26.000+01:00</time>
      </trkpt>
      <trkpt lat="48.69008" lon="1.92821">
        <ele>154.7</ele>
        <time>2013-11-17T11:18:34.000+01:00</time>
      </trkpt>
      <trkpt lat="48.68998" lon="1.9282">
        <ele>148.9</ele>
        <time>2013-11-17T11:18:39.000+01:00</time>
      </trkpt>
      <trkpt lat="48.68991" lon="1.92813">
        <ele>152.5</ele>
        <time>2013-11-17T11:18:46.000+01:00</time>
      </trkpt>
      <trkpt lat="48.68981" lon="1.9281">
        <ele>157.9</ele>
        <time>2013-11-17T11:18:54.000+01:00</time>
      </trkpt>
      <trkpt lat="48.68973" lon="1.92804">
        <ele>157.6</ele>
        <time>2013-11-17T11:18:59.000+01:00</time>
      </trkpt>
      <trkpt lat="48.68966" lon="1.92796">
        <ele>163.2</ele>
        <time>2013-11-17T11:19:10.000+01:00</time>
      </trkpt>
      <trkpt lat="48.68959" lon="1.92789">
        <ele>162.7</ele>
        <time>2013-11-17T11:19:15.000+01:00</time>
      </trkpt>
      <trkpt lat="48.68951" lon="1.92781">
        <ele>160.9</ele>
        <time>2013-11-17T11:19:20.000+01:00</time>
      </trkpt>
      <trkpt lat="48.68942" lon="1.92773">
        <ele>159.9</ele>
        <time>2013-11-17T11:19:26.000+01:00</time>
      </trkpt>
      <trkpt lat="48.68936" lon="1.92762">
        <ele>164.8</ele>
        <time>2013-11-17T11:19:35.000+01:00</time>
      </trkpt>
      <trkpt lat="48.68929" lon="1.92752">
        <ele>163.9</ele>
        <time>2013-11-17T11:19:42.000+01:00</time>
      </trkpt>
      <trkpt lat="48.68931" lon="1.92738">
        <ele>160.3</ele>
        <time>2013-11-17T11:19:47.000+01:00</time>
      </trkpt>
      <trkpt lat="48.6893" lon="1.92726">
        <ele>155.5</ele>
        <time>2013-11-17T11:19:53.000+01:00</time>
      </trkpt>
      <trkpt lat="48.68922" lon="1.92718">
        <ele>157.8</ele>
        <time>2013-11-17T11:20:00.000+01:00</time>
      </trkpt>
      <trkpt lat="48.68916" lon="1.9271">
        <ele>156</ele>
        <time>2013-11-17T11:20:07.000+01:00</time>
      </trkpt>
      <trkpt lat="48.68908" lon="1.92705">
        <ele>153.2</ele>
        <time>2013-11-17T11:20:11.000+01:00</time>
      </trkpt>
      <trkpt lat="48.68901" lon="1.92697">
        <ele>152.5</ele>
        <time>2013-11-17T11:20:18.000+01:00</time>
      </trkpt>
      <trkpt lat="48.68897" lon="1.92686">
        <ele>151.1</ele>
        <time>2013-11-17T11:20:24.000+01:00</time>
      </trkpt>
      <trkpt lat="48.68891" lon="1.92675">
        <ele>155.2</ele>
        <time>2013-11-17T11:20:31.000+01:00</time>
      </trkpt>
      <trkpt lat="48.68886" lon="1.92667">
        <ele>150.7</ele>
        <time>2013-11-17T11:20:36.000+01:00</time>
      </trkpt>
      <trkpt lat="48.68879" lon="1.92655">
        <ele>144.2</ele>
        <time>2013-11-17T11:20:45.000+01:00</time>
      </trkpt>
      <trkpt lat="48.68872" lon="1.92646">
        <ele>142.2</ele>
        <time>2013-11-17T11:20:52.000+01:00</time>
      </trkpt>
      <trkpt lat="48.68865" lon="1.92638">
        <ele>137.4</ele>
        <time>2013-11-17T11:20:59.000+01:00</time>
      </trkpt>
      <trkpt lat="48.68856" lon="1.92634">
        <ele>139.4</ele>
        <time>2013-11-17T11:21:06.000+01:00</time>
      </trkpt>
      <trkpt lat="48.6885" lon="1.92629">
        <ele>137.2</ele>
        <time>2013-11-17T11:21:15.000+01:00</time>
      </trkpt>
      <trkpt lat="48.68841" lon="1.92626">
        <ele>136.7</ele>
        <time>2013-11-17T11:21:21.000+01:00</time>
      </trkpt>
      <trkpt lat="48.68832" lon="1.9263">
        <ele>129.7</ele>
        <time>2013-11-17T11:21:28.000+01:00</time>
      </trkpt>
      <trkpt lat="48.68827" lon="1.92624">
        <ele>122.5</ele>
        <time>2013-11-17T11:21:45.000+01:00</time>
      </trkpt>
      <trkpt lat="48.68827" lon="1.9262">
        <ele>117.9</ele>
        <time>2013-11-17T11:22:03.000+01:00</time>
      </trkpt>
      <trkpt lat="48.68822" lon="1.92627">
        <ele>129.5</ele>
        <time>2013-11-17T11:22:17.000+01:00</time>
      </trkpt>
      <trkpt lat="48.68824" lon="1.9262">
        <ele>126.2</ele>
        <time>2013-11-17T11:22:36.000+01:00</time>
      </trkpt>
      <trkpt lat="48.68824" lon="1.92629">
        <ele>120.9</ele>
        <time>2013-11-17T11:22:49.000+01:00</time>
      </trkpt>
      <trkpt lat="48.68819" lon="1.92639">
        <ele>120.2</ele>
        <time>2013-11-17T11:22:57.000+01:00</time>
      </trkpt>
      <trkpt lat="48.68813" lon="1.92649">
        <ele>121.6</ele>
        <time>2013-11-17T11:23:07.000+01:00</time>
      </trkpt>
      <trkpt lat="48.68807" lon="1.9266">
        <ele>122.3</ele>
        <time>2013-11-17T11:23:14.000+01:00</time>
      </trkpt>
      <trkpt lat="48.68798" lon="1.92669">
        <ele>123</ele>
        <time>2013-11-17T11:23:21.000+01:00</time>
      </trkpt>
      <trkpt lat="48.68791" lon="1.92677">
        <ele>126.7</ele>
        <time>2013-11-17T11:23:28.000+01:00</time>
      </trkpt>
      <trkpt lat="48.68792" lon="1.9269">
        <ele>127.4</ele>
        <time>2013-11-17T11:23:37.000+01:00</time>
      </trkpt>
      <trkpt lat="48.6879" lon="1.92704">
        <ele>127.8</ele>
        <time>2013-11-17T11:23:45.000+01:00</time>
      </trkpt>
      <trkpt lat="48.68789" lon="1.92717">
        <ele>127.9</ele>
        <time>2013-11-17T11:23:52.000+01:00</time>
      </trkpt>
      <trkpt lat="48.68789" lon="1.92729">
        <ele>125.8</ele>
        <time>2013-11-17T11:23:59.000+01:00</time>
      </trkpt>
      <trkpt lat="48.68785" lon="1.92742">
        <ele>124.1</ele>
        <time>2013-11-17T11:24:06.000+01:00</time>
      </trkpt>
      <trkpt lat="48.68782" lon="1.92756">
        <ele>120.4</ele>
        <time>2013-11-17T11:24:13.000+01:00</time>
      </trkpt>
      <trkpt lat="48.68775" lon="1.92768">
        <ele>121</ele>
        <time>2013-11-17T11:24:20.000+01:00</time>
      </trkpt>
      <trkpt lat="48.6877" lon="1.92781">
        <ele>119.8</ele>
        <time>2013-11-17T11:24:27.000+01:00</time>
      </trkpt>
      <trkpt lat="48.68764" lon="1.9279">
        <ele>122.1</ele>
        <time>2013-11-17T11:24:34.000+01:00</time>
      </trkpt>
      <trkpt lat="48.68754" lon="1.928">
        <ele>121.8</ele>
        <time>2013-11-17T11:24:39.000+01:00</time>
      </trkpt>
      <trkpt lat="48.68748" lon="1.92811">
        <ele>121.8</ele>
        <time>2013-11-17T11:24:45.000+01:00</time>
      </trkpt>
      <trkpt lat="48.68744" lon="1.92823">
        <ele>119.7</ele>
        <time>2013-11-17T11:24:52.000+01:00</time>
      </trkpt>
      <trkpt lat="48.6874" lon="1.92834">
        <ele>120.2</ele>
        <time>2013-11-17T11:24:59.000+01:00</time>
      </trkpt>
      <trkpt lat="48.68736" lon="1.92847">
        <ele>120.2</ele>
        <time>2013-11-17T11:25:07.000+01:00</time>
      </trkpt>
      <trkpt lat="48.68733" lon="1.92858">
        <ele>121.9</ele>
        <time>2013-11-17T11:25:16.000+01:00</time>
      </trkpt>
      <trkpt lat="48.68727" lon="1.9287">
        <ele>120.7</ele>
        <time>2013-11-17T11:25:21.000+01:00</time>
      </trkpt>
      <trkpt lat="48.68722" lon="1.92882">
        <ele>120.7</ele>
        <time>2013-11-17T11:25:28.000+01:00</time>
      </trkpt>
      <trkpt lat="48.68716" lon="1.92895">
        <ele>118.9</ele>
        <time>2013-11-17T11:25:35.000+01:00</time>
      </trkpt>
      <trkpt lat="48.68712" lon="1.92907">
        <ele>117.7</ele>
        <time>2013-11-17T11:25:42.000+01:00</time>
      </trkpt>
      <trkpt lat="48.68707" lon="1.92918">
        <ele>120.1</ele>
        <time>2013-11-17T11:25:49.000+01:00</time>
      </trkpt>
      <trkpt lat="48.687" lon="1.92927">
        <ele>124.8</ele>
        <time>2013-11-17T11:25:58.000+01:00</time>
      </trkpt>
      <trkpt lat="48.68695" lon="1.92936">
        <ele>125.2</ele>
        <time>2013-11-17T11:26:06.000+01:00</time>
      </trkpt>
      <trkpt lat="48.68693" lon="1.9295">
        <ele>126.1</ele>
        <time>2013-11-17T11:26:15.000+01:00</time>
      </trkpt>
      <trkpt lat="48.68693" lon="1.92963">
        <ele>124.8</ele>
        <time>2013-11-17T11:26:22.000+01:00</time>
      </trkpt>
      <trkpt lat="48.68686" lon="1.92973">
        <ele>125.9</ele>
        <time>2013-11-17T11:26:28.000+01:00</time>
      </trkpt>
      <trkpt lat="48.68685" lon="1.92984">
        <ele>127.1</ele>
        <time>2013-11-17T11:26:34.000+01:00</time>
      </trkpt>
      <trkpt lat="48.68687" lon="1.92994">
        <ele>132.2</ele>
        <time>2013-11-17T11:26:41.000+01:00</time>
      </trkpt>
      <trkpt lat="48.68682" lon="1.93005">
        <ele>130.7</ele>
        <time>2013-11-17T11:26:48.000+01:00</time>
      </trkpt>
      <trkpt lat="48.68678" lon="1.93018">
        <ele>129.7</ele>
        <time>2013-11-17T11:26:56.000+01:00</time>
      </trkpt>
      <trkpt lat="48.68675" lon="1.93031">
        <ele>127.5</ele>
        <time>2013-11-17T11:27:03.000+01:00</time>
      </trkpt>
      <trkpt lat="48.68675" lon="1.93044">
        <ele>128.6</ele>
        <time>2013-11-17T11:27:13.000+01:00</time>
      </trkpt>
      <trkpt lat="48.68672" lon="1.93056">
        <ele>126.6</ele>
        <time>2013-11-17T11:27:19.000+01:00</time>
      </trkpt>
      <trkpt lat="48.68671" lon="1.9307">
        <ele>128.9</ele>
        <time>2013-11-17T11:27:27.000+01:00</time>
      </trkpt>
      <trkpt lat="48.6867" lon="1.93082">
        <ele>135</ele>
        <time>2013-11-17T11:27:36.000+01:00</time>
      </trkpt>
      <trkpt lat="48.68668" lon="1.93095">
        <ele>139.1</ele>
        <time>2013-11-17T11:27:44.000+01:00</time>
      </trkpt>
      <trkpt lat="48.68666" lon="1.93109">
        <ele>141.9</ele>
        <time>2013-11-17T11:27:51.000+01:00</time>
      </trkpt>
      <trkpt lat="48.68665" lon="1.93123">
        <ele>141.2</ele>
        <time>2013-11-17T11:27:58.000+01:00</time>
      </trkpt>
      <trkpt lat="48.6866" lon="1.93135">
        <ele>142.3</ele>
        <time>2013-11-17T11:28:06.000+01:00</time>
      </trkpt>
      <trkpt lat="48.68663" lon="1.93149">
        <ele>134.8</ele>
        <time>2013-11-17T11:28:11.000+01:00</time>
      </trkpt>
      <trkpt lat="48.68661" lon="1.93164">
        <ele>131.6</ele>
        <time>2013-11-17T11:28:18.000+01:00</time>
      </trkpt>
      <trkpt lat="48.68658" lon="1.93178">
        <ele>133.5</ele>
        <time>2013-11-17T11:28:25.000+01:00</time>
      </trkpt>
      <trkpt lat="48.68655" lon="1.93192">
        <ele>133.6</ele>
        <time>2013-11-17T11:28:34.000+01:00</time>
      </trkpt>
      <trkpt lat="48.68657" lon="1.93204">
        <ele>130.4</ele>
        <time>2013-11-17T11:28:40.000+01:00</time>
      </trkpt>
      <trkpt lat="48.68653" lon="1.93217">
        <ele>131.1</ele>
        <time>2013-11-17T11:28:47.000+01:00</time>
      </trkpt>
      <trkpt lat="48.68651" lon="1.93229">
        <ele>129</ele>
        <time>2013-11-17T11:28:54.000+01:00</time>
      </trkpt>
      <trkpt lat="48.68648" lon="1.93242">
        <ele>126.8</ele>
        <time>2013-11-17T11:29:03.000+01:00</time>
      </trkpt>
      <trkpt lat="48.68643" lon="1.93254">
        <ele>129</ele>
        <time>2013-11-17T11:29:11.000+01:00</time>
      </trkpt>
      <trkpt lat="48.68645" lon="1.93268">
        <ele>128.6</ele>
        <time>2013-11-17T11:29:19.000+01:00</time>
      </trkpt>
      <trkpt lat="48.68649" lon="1.93279">
        <ele>121.2</ele>
        <time>2013-11-17T11:29:26.000+01:00</time>
      </trkpt>
      <trkpt lat="48.68651" lon="1.93294">
        <ele>123.5</ele>
        <time>2013-11-17T11:29:35.000+01:00</time>
      </trkpt>
      <trkpt lat="48.68658" lon="1.93305">
        <ele>121.5</ele>
        <time>2013-11-17T11:29:42.000+01:00</time>
      </trkpt>
      <trkpt lat="48.68664" lon="1.93317">
        <ele>113.4</ele>
        <time>2013-11-17T11:29:49.000+01:00</time>
      </trkpt>
      <trkpt lat="48.68669" lon="1.93329">
        <ele>114.9</ele>
        <time>2013-11-17T11:29:56.000+01:00</time>
      </trkpt>
      <trkpt lat="48.68671" lon="1.93344">
        <ele>118.6</ele>
        <time>2013-11-17T11:30:02.000+01:00</time>
      </trkpt>
      <trkpt lat="48.68665" lon="1.93357">
        <ele>121.2</ele>
        <time>2013-11-17T11:30:07.000+01:00</time>
      </trkpt>
      <trkpt lat="48.68659" lon="1.93369">
        <ele>126.4</ele>
        <time>2013-11-17T11:30:13.000+01:00</time>
      </trkpt>
      <trkpt lat="48.68652" lon="1.93378">
        <ele>126.2</ele>
        <time>2013-11-17T11:30:18.000+01:00</time>
      </trkpt>
      <trkpt lat="48.68642" lon="1.93384">
        <ele>128.4</ele>
        <time>2013-11-17T11:30:24.000+01:00</time>
      </trkpt>
      <trkpt lat="48.68635" lon="1.93392">
        <ele>125.1</ele>
        <time>2013-11-17T11:30:32.000+01:00</time>
      </trkpt>
      <trkpt lat="48.68626" lon="1.93398">
        <ele>120.8</ele>
        <time>2013-11-17T11:30:38.000+01:00</time>
      </trkpt>
      <trkpt lat="48.6862" lon="1.93408">
        <ele>117.3</ele>
        <time>2013-11-17T11:30:46.000+01:00</time>
      </trkpt>
      <trkpt lat="48.68613" lon="1.93417">
        <ele>120</ele>
        <time>2013-11-17T11:30:54.000+01:00</time>
      </trkpt>
      <trkpt lat="48.68607" lon="1.93427">
        <ele>122.5</ele>
        <time>2013-11-17T11:31:01.000+01:00</time>
      </trkpt>
      <trkpt lat="48.68601" lon="1.93437">
        <ele>124.1</ele>
        <time>2013-11-17T11:31:08.000+01:00</time>
      </trkpt>
      <trkpt lat="48.68596" lon="1.9345">
        <ele>122.6</ele>
        <time>2013-11-17T11:31:15.000+01:00</time>
      </trkpt>
      <trkpt lat="48.68592" lon="1.93462">
        <ele>121.1</ele>
        <time>2013-11-17T11:31:22.000+01:00</time>
      </trkpt>
      <trkpt lat="48.68586" lon="1.93474">
        <ele>116.5</ele>
        <time>2013-11-17T11:31:31.000+01:00</time>
      </trkpt>
      <trkpt lat="48.6858" lon="1.93485">
        <ele>114.5</ele>
        <time>2013-11-17T11:31:37.000+01:00</time>
      </trkpt>
      <trkpt lat="48.68575" lon="1.93498">
        <ele>113.8</ele>
        <time>2013-11-17T11:31:44.000+01:00</time>
      </trkpt>
      <trkpt lat="48.68572" lon="1.93512">
        <ele>115.4</ele>
        <time>2013-11-17T11:31:52.000+01:00</time>
      </trkpt>
      <trkpt lat="48.68571" lon="1.93525">
        <ele>115.8</ele>
        <time>2013-11-17T11:32:00.000+01:00</time>
      </trkpt>
      <trkpt lat="48.68569" lon="1.93538">
        <ele>115.8</ele>
        <time>2013-11-17T11:32:06.000+01:00</time>
      </trkpt>
      <trkpt lat="48.68565" lon="1.93551">
        <ele>117.4</ele>
        <time>2013-11-17T11:32:13.000+01:00</time>
      </trkpt>
      <trkpt lat="48.68563" lon="1.93565">
        <ele>119.6</ele>
        <time>2013-11-17T11:32:19.000+01:00</time>
      </trkpt>
      <trkpt lat="48.68558" lon="1.93576">
        <ele>117.3</ele>
        <time>2013-11-17T11:32:25.000+01:00</time>
      </trkpt>
      <trkpt lat="48.68552" lon="1.93589">
        <ele>118.5</ele>
        <time>2013-11-17T11:32:32.000+01:00</time>
      </trkpt>
      <trkpt lat="48.68546" lon="1.936">
        <ele>116</ele>
        <time>2013-11-17T11:32:39.000+01:00</time>
      </trkpt>
      <trkpt lat="48.6854" lon="1.93611">
        <ele>116.2</ele>
        <time>2013-11-17T11:32:45.000+01:00</time>
      </trkpt>
      <trkpt lat="48.68536" lon="1.93623">
        <ele>112.9</ele>
        <time>2013-11-17T11:32:53.000+01:00</time>
      </trkpt>
      <trkpt lat="48.68532" lon="1.93635">
        <ele>112.2</ele>
        <time>2013-11-17T11:32:59.000+01:00</time>
      </trkpt>
      <trkpt lat="48.68526" lon="1.93646">
        <ele>112.5</ele>
        <time>2013-11-17T11:33:05.000+01:00</time>
      </trkpt>
      <trkpt lat="48.68521" lon="1.93658">
        <ele>112</ele>
        <time>2013-11-17T11:33:11.000+01:00</time>
      </trkpt>
      <trkpt lat="48.68519" lon="1.93671">
        <ele>111.9</ele>
        <time>2013-11-17T11:33:19.000+01:00</time>
      </trkpt>
      <trkpt lat="48.68517" lon="1.93684">
        <ele>107.6</ele>
        <time>2013-11-17T11:33:25.000+01:00</time>
      </trkpt>
      <trkpt lat="48.68518" lon="1.93699">
        <ele>107.4</ele>
        <time>2013-11-17T11:33:33.000+01:00</time>
      </trkpt>
      <trkpt lat="48.68512" lon="1.9371">
        <ele>110.4</ele>
        <time>2013-11-17T11:33:39.000+01:00</time>
      </trkpt>
      <trkpt lat="48.6851" lon="1.93723">
        <ele>112.8</ele>
        <time>2013-11-17T11:33:45.000+01:00</time>
      </trkpt>
      <trkpt lat="48.68507" lon="1.93737">
        <ele>114.9</ele>
        <time>2013-11-17T11:33:52.000+01:00</time>
      </trkpt>
      <trkpt lat="48.68507" lon="1.93752">
        <ele>110.3</ele>
        <time>2013-11-17T11:33:59.000+01:00</time>
      </trkpt>
      <trkpt lat="48.68503" lon="1.93765">
        <ele>107.5</ele>
        <time>2013-11-17T11:34:05.000+01:00</time>
      </trkpt>
      <trkpt lat="48.68503" lon="1.9378">
        <ele>106.8</ele>
        <time>2013-11-17T11:34:12.000+01:00</time>
      </trkpt>
      <trkpt lat="48.685" lon="1.93792">
        <ele>110.2</ele>
        <time>2013-11-17T11:34:20.000+01:00</time>
      </trkpt>
      <trkpt lat="48.68494" lon="1.93786">
        <ele>119.3</ele>
        <time>2013-11-17T11:34:30.000+01:00</time>
      </trkpt>
      <trkpt lat="48.68496" lon="1.93799">
        <ele>114.4</ele>
        <time>2013-11-17T11:34:37.000+01:00</time>
      </trkpt>
      <trkpt lat="48.68489" lon="1.93811">
        <ele>113.1</ele>
        <time>2013-11-17T11:34:43.000+01:00</time>
      </trkpt>
      <trkpt lat="48.68483" lon="1.93824">
        <ele>111</ele>
        <time>2013-11-17T11:34:50.000+01:00</time>
      </trkpt>
      <trkpt lat="48.68475" lon="1.93834">
        <ele>108.2</ele>
        <time>2013-11-17T11:34:57.000+01:00</time>
      </trkpt>
      <trkpt lat="48.68469" lon="1.93844">
        <ele>107.7</ele>
        <time>2013-11-17T11:35:04.000+01:00</time>
      </trkpt>
      <trkpt lat="48.68462" lon="1.93853">
        <ele>107.1</ele>
        <time>2013-11-17T11:35:10.000+01:00</time>
      </trkpt>
      <trkpt lat="48.68456" lon="1.93864">
        <ele>111</ele>
        <time>2013-11-17T11:35:19.000+01:00</time>
      </trkpt>
      <trkpt lat="48.68451" lon="1.93875">
        <ele>110.7</ele>
        <time>2013-11-17T11:35:27.000+01:00</time>
      </trkpt>
      <trkpt lat="48.68445" lon="1.93887">
        <ele>111.2</ele>
        <time>2013-11-17T11:35:35.000+01:00</time>
      </trkpt>
      <trkpt lat="48.68442" lon="1.93898">
        <ele>110.7</ele>
        <time>2013-11-17T11:35:43.000+01:00</time>
      </trkpt>
      <trkpt lat="48.68438" lon="1.93911">
        <ele>108.7</ele>
        <time>2013-11-17T11:35:51.000+01:00</time>
      </trkpt>
      <trkpt lat="48.68431" lon="1.93923">
        <ele>109.5</ele>
        <time>2013-11-17T11:35:59.000+01:00</time>
      </trkpt>
      <trkpt lat="48.68423" lon="1.93935">
        <ele>106.7</ele>
        <time>2013-11-17T11:36:05.000+01:00</time>
      </trkpt>
      <trkpt lat="48.68416" lon="1.93944">
        <ele>106</ele>
        <time>2013-11-17T11:36:14.000+01:00</time>
      </trkpt>
      <trkpt lat="48.6841" lon="1.93953">
        <ele>105.4</ele>
        <time>2013-11-17T11:36:20.000+01:00</time>
      </trkpt>
      <trkpt lat="48.68401" lon="1.93959">
        <ele>110.4</ele>
        <time>2013-11-17T11:36:28.000+01:00</time>
      </trkpt>
      <trkpt lat="48.68394" lon="1.93967">
        <ele>110</ele>
        <time>2013-11-17T11:36:35.000+01:00</time>
      </trkpt>
      <trkpt lat="48.68387" lon="1.93978">
        <ele>112.1</ele>
        <time>2013-11-17T11:36:42.000+01:00</time>
      </trkpt>
      <trkpt lat="48.68381" lon="1.93987">
        <ele>112.3</ele>
        <time>2013-11-17T11:36:51.000+01:00</time>
      </trkpt>
      <trkpt lat="48.68374" lon="1.93997">
        <ele>111.7</ele>
        <time>2013-11-17T11:36:57.000+01:00</time>
      </trkpt>
      <trkpt lat="48.68366" lon="1.94008">
        <ele>111</ele>
        <time>2013-11-17T11:37:03.000+01:00</time>
      </trkpt>
      <trkpt lat="48.68359" lon="1.94017">
        <ele>112.2</ele>
        <time>2013-11-17T11:37:10.000+01:00</time>
      </trkpt>
      <trkpt lat="48.68352" lon="1.94028">
        <ele>111.6</ele>
        <time>2013-11-17T11:37:17.000+01:00</time>
      </trkpt>
      <trkpt lat="48.68349" lon="1.94041">
        <ele>111.6</ele>
        <time>2013-11-17T11:37:25.000+01:00</time>
      </trkpt>
      <trkpt lat="48.68344" lon="1.94052">
        <ele>113.1</ele>
        <time>2013-11-17T11:37:34.000+01:00</time>
      </trkpt>
      <trkpt lat="48.68341" lon="1.94065">
        <ele>114</ele>
        <time>2013-11-17T11:37:43.000+01:00</time>
      </trkpt>
      <trkpt lat="48.68335" lon="1.94075">
        <ele>112.3</ele>
        <time>2013-11-17T11:37:49.000+01:00</time>
      </trkpt>
      <trkpt lat="48.68331" lon="1.94087">
        <ele>110.2</ele>
        <time>2013-11-17T11:37:56.000+01:00</time>
      </trkpt>
      <trkpt lat="48.68332" lon="1.94101">
        <ele>106.1</ele>
        <time>2013-11-17T11:38:03.000+01:00</time>
      </trkpt>
      <trkpt lat="48.68329" lon="1.94114">
        <ele>104.2</ele>
        <time>2013-11-17T11:38:10.000+01:00</time>
      </trkpt>
      <trkpt lat="48.68328" lon="1.94127">
        <ele>108.6</ele>
        <time>2013-11-17T11:38:17.000+01:00</time>
      </trkpt>
      <trkpt lat="48.68324" lon="1.9414">
        <ele>111.4</ele>
        <time>2013-11-17T11:38:23.000+01:00</time>
      </trkpt>
      <trkpt lat="48.68321" lon="1.94154">
        <ele>113</ele>
        <time>2013-11-17T11:38:30.000+01:00</time>
      </trkpt>
      <trkpt lat="48.68319" lon="1.94168">
        <ele>112</ele>
        <time>2013-11-17T11:38:36.000+01:00</time>
      </trkpt>
      <trkpt lat="48.68315" lon="1.94182">
        <ele>111.2</ele>
        <time>2013-11-17T11:38:42.000+01:00</time>
      </trkpt>
      <trkpt lat="48.68312" lon="1.94195">
        <ele>111.3</ele>
        <time>2013-11-17T11:38:48.000+01:00</time>
      </trkpt>
      <trkpt lat="48.68308" lon="1.94206">
        <ele>110.8</ele>
        <time>2013-11-17T11:38:54.000+01:00</time>
      </trkpt>
      <trkpt lat="48.68303" lon="1.94217">
        <ele>110.7</ele>
        <time>2013-11-17T11:39:01.000+01:00</time>
      </trkpt>
      <trkpt lat="48.68298" lon="1.94221">
        <ele>106.1</ele>
        <time>2013-11-17T11:39:09.000+01:00</time>
      </trkpt>
      <trkpt lat="48.68292" lon="1.94229">
        <ele>113.8</ele>
        <time>2013-11-17T11:39:39.000+01:00</time>
      </trkpt>
      <trkpt lat="48.68284" lon="1.94237">
        <ele>107.1</ele>
        <time>2013-11-17T11:39:56.000+01:00</time>
      </trkpt>
      <trkpt lat="48.68285" lon="1.94237">
        <ele>112.1</ele>
        <time>2013-11-17T11:40:07.000+01:00</time>
      </trkpt>
      <trkpt lat="48.68288" lon="1.9424">
        <ele>120.6</ele>
        <time>2013-11-17T11:40:25.000+01:00</time>
      </trkpt>
      <trkpt lat="48.68292" lon="1.94243">
        <ele>122.8</ele>
        <time>2013-11-17T11:40:45.000+01:00</time>
      </trkpt>
      <trkpt lat="48.6829" lon="1.94245">
        <ele>117.2</ele>
        <time>2013-11-17T11:41:09.000+01:00</time>
      </trkpt>
      <trkpt lat="48.68292" lon="1.94239">
        <ele>112.2</ele>
        <time>2013-11-17T11:41:22.000+01:00</time>
      </trkpt>
      <trkpt lat="48.68288" lon="1.94237">
        <ele>110.2</ele>
        <time>2013-11-17T11:41:43.000+01:00</time>
      </trkpt>
      <trkpt lat="48.68286" lon="1.94237">
        <ele>112.4</ele>
        <time>2013-11-17T11:42:25.000+01:00</time>
      </trkpt>
      <trkpt lat="48.68288" lon="1.94229">
        <ele>113.4</ele>
        <time>2013-11-17T11:42:45.000+01:00</time>
      </trkpt>
      <trkpt lat="48.68286" lon="1.94226">
        <ele>116.4</ele>
        <time>2013-11-17T11:43:23.000+01:00</time>
      </trkpt>
      <trkpt lat="48.68292" lon="1.9423">
        <ele>110.1</ele>
        <time>2013-11-17T11:43:49.000+01:00</time>
      </trkpt>
      <trkpt lat="48.68292" lon="1.94223">
        <ele>110.8</ele>
        <time>2013-11-17T11:44:04.000+01:00</time>
      </trkpt>
      <trkpt lat="48.6829" lon="1.94213">
        <ele>109</ele>
        <time>2013-11-17T11:44:19.000+01:00</time>
      </trkpt>
      <trkpt lat="48.68293" lon="1.94216">
        <ele>108.1</ele>
        <time>2013-11-17T11:44:41.000+01:00</time>
      </trkpt>
      <trkpt lat="48.68294" lon="1.9421">
        <ele>121.6</ele>
        <time>2013-11-17T11:44:58.000+01:00</time>
      </trkpt>
      <trkpt lat="48.6829" lon="1.94212">
        <ele>124.9</ele>
        <time>2013-11-17T11:45:09.000+01:00</time>
      </trkpt>
      <trkpt lat="48.68295" lon="1.94219">
        <ele>123</ele>
        <time>2013-11-17T11:45:19.000+01:00</time>
      </trkpt>
      <trkpt lat="48.6829" lon="1.9423">
        <ele>119.5</ele>
        <time>2013-11-17T11:45:28.000+01:00</time>
      </trkpt>
      <trkpt lat="48.6829" lon="1.94245">
        <ele>116.1</ele>
        <time>2013-11-17T11:45:36.000+01:00</time>
      </trkpt>
      <trkpt lat="48.68286" lon="1.94259">
        <ele>115</ele>
        <time>2013-11-17T11:45:44.000+01:00</time>
      </trkpt>
      <trkpt lat="48.68286" lon="1.94271">
        <ele>112.5</ele>
        <time>2013-11-17T11:45:50.000+01:00</time>
      </trkpt>
      <trkpt lat="48.68282" lon="1.94285">
        <ele>112.5</ele>
        <time>2013-11-17T11:45:59.000+01:00</time>
      </trkpt>
      <trkpt lat="48.68281" lon="1.94298">
        <ele>113.3</ele>
        <time>2013-11-17T11:46:08.000+01:00</time>
      </trkpt>
      <trkpt lat="48.6828" lon="1.94311">
        <ele>112.8</ele>
        <time>2013-11-17T11:46:17.000+01:00</time>
      </trkpt>
      <trkpt lat="48.68275" lon="1.94323">
        <ele>112.8</ele>
        <time>2013-11-17T11:46:24.000+01:00</time>
      </trkpt>
      <trkpt lat="48.68271" lon="1.94335">
        <ele>119.3</ele>
        <time>2013-11-17T11:46:33.000+01:00</time>
      </trkpt>
      <trkpt lat="48.68272" lon="1.94347">
        <ele>118.7</ele>
        <time>2013-11-17T11:46:41.000+01:00</time>
      </trkpt>
      <trkpt lat="48.68268" lon="1.94359">
        <ele>114.5</ele>
        <time>2013-11-17T11:46:47.000+01:00</time>
      </trkpt>
      <trkpt lat="48.68266" lon="1.94371">
        <ele>114.4</ele>
        <time>2013-11-17T11:46:55.000+01:00</time>
      </trkpt>
      <trkpt lat="48.68263" lon="1.94384">
        <ele>114.9</ele>
        <time>2013-11-17T11:47:03.000+01:00</time>
      </trkpt>
      <trkpt lat="48.68261" lon="1.94397">
        <ele>115.6</ele>
        <time>2013-11-17T11:47:11.000+01:00</time>
      </trkpt>
      <trkpt lat="48.68255" lon="1.94407">
        <ele>114.5</ele>
        <time>2013-11-17T11:47:18.000+01:00</time>
      </trkpt>
      <trkpt lat="48.68248" lon="1.94416">
        <ele>114.2</ele>
        <time>2013-11-17T11:47:25.000+01:00</time>
      </trkpt>
      <trkpt lat="48.68244" lon="1.94427">
        <ele>114.5</ele>
        <time>2013-11-17T11:47:32.000+01:00</time>
      </trkpt>
      <trkpt lat="48.68239" lon="1.94437">
        <ele>119.4</ele>
        <time>2013-11-17T11:47:39.000+01:00</time>
      </trkpt>
      <trkpt lat="48.68231" lon="1.94445">
        <ele>118.9</ele>
        <time>2013-11-17T11:47:44.000+01:00</time>
      </trkpt>
      <trkpt lat="48.68223" lon="1.94452">
        <ele>117</ele>
        <time>2013-11-17T11:47:51.000+01:00</time>
      </trkpt>
      <trkpt lat="48.68214" lon="1.94454">
        <ele>116.2</ele>
        <time>2013-11-17T11:47:57.000+01:00</time>
      </trkpt>
      <trkpt lat="48.68205" lon="1.9446">
        <ele>114.6</ele>
        <time>2013-11-17T11:48:06.000+01:00</time>
      </trkpt>
      <trkpt lat="48.68196" lon="1.94466">
        <ele>112.7</ele>
        <time>2013-11-17T11:48:14.000+01:00</time>
      </trkpt>
      <trkpt lat="48.68185" lon="1.94469">
        <ele>110.1</ele>
        <time>2013-11-17T11:48:19.000+01:00</time>
      </trkpt>
      <trkpt lat="48.68175" lon="1.94469">
        <ele>114</ele>
        <time>2013-11-17T11:48:24.000+01:00</time>
      </trkpt>
      <trkpt lat="48.68168" lon="1.94474">
        <ele>113.2</ele>
        <time>2013-11-17T11:48:36.000+01:00</time>
      </trkpt>
      <trkpt lat="48.68163" lon="1.94481">
        <ele>117.6</ele>
        <time>2013-11-17T11:48:50.000+01:00</time>
      </trkpt>
      <trkpt lat="48.68157" lon="1.94491">
        <ele>115.5</ele>
        <time>2013-11-17T11:49:00.000+01:00</time>
      </trkpt>
      <trkpt lat="48.68154" lon="1.94504">
        <ele>117.3</ele>
        <time>2013-11-17T11:49:09.000+01:00</time>
      </trkpt>
      <trkpt lat="48.68152" lon="1.94518">
        <ele>117.2</ele>
        <time>2013-11-17T11:49:20.000+01:00</time>
      </trkpt>
      <trkpt lat="48.68144" lon="1.9453">
        <ele>115.3</ele>
        <time>2013-11-17T11:49:28.000+01:00</time>
      </trkpt>
      <trkpt lat="48.68145" lon="1.94544">
        <ele>115.8</ele>
        <time>2013-11-17T11:49:35.000+01:00</time>
      </trkpt>
      <trkpt lat="48.68142" lon="1.94555">
        <ele>114.4</ele>
        <time>2013-11-17T11:49:42.000+01:00</time>
      </trkpt>
      <trkpt lat="48.68138" lon="1.94565">
        <ele>116.6</ele>
        <time>2013-11-17T11:49:49.000+01:00</time>
      </trkpt>
      <trkpt lat="48.68133" lon="1.94576">
        <ele>116.4</ele>
        <time>2013-11-17T11:49:55.000+01:00</time>
      </trkpt>
      <trkpt lat="48.68133" lon="1.94591">
        <ele>118.1</ele>
        <time>2013-11-17T11:50:05.000+01:00</time>
      </trkpt>
      <trkpt lat="48.68131" lon="1.94604">
        <ele>122.8</ele>
        <time>2013-11-17T11:50:12.000+01:00</time>
      </trkpt>
      <trkpt lat="48.68134" lon="1.94616">
        <ele>123.9</ele>
        <time>2013-11-17T11:50:20.000+01:00</time>
      </trkpt>
      <trkpt lat="48.68133" lon="1.94629">
        <ele>127.1</ele>
        <time>2013-11-17T11:50:30.000+01:00</time>
      </trkpt>
      <trkpt lat="48.68131" lon="1.94641">
        <ele>130.6</ele>
        <time>2013-11-17T11:50:38.000+01:00</time>
      </trkpt>
      <trkpt lat="48.68131" lon="1.94656">
        <ele>129</ele>
        <time>2013-11-17T11:50:46.000+01:00</time>
      </trkpt>
      <trkpt lat="48.68133" lon="1.94671">
        <ele>125.6</ele>
        <time>2013-11-17T11:50:53.000+01:00</time>
      </trkpt>
      <trkpt lat="48.68134" lon="1.94686">
        <ele>122.5</ele>
        <time>2013-11-17T11:51:00.000+01:00</time>
      </trkpt>
      <trkpt lat="48.68133" lon="1.947">
        <ele>118.2</ele>
        <time>2013-11-17T11:51:06.000+01:00</time>
      </trkpt>
      <trkpt lat="48.68134" lon="1.94714">
        <ele>118.2</ele>
        <time>2013-11-17T11:51:13.000+01:00</time>
      </trkpt>
      <trkpt lat="48.6813" lon="1.94726">
        <ele>123.3</ele>
        <time>2013-11-17T11:51:22.000+01:00</time>
      </trkpt>
      <trkpt lat="48.68128" lon="1.94739">
        <ele>122.7</ele>
        <time>2013-11-17T11:51:30.000+01:00</time>
      </trkpt>
      <trkpt lat="48.68123" lon="1.94752">
        <ele>121</ele>
        <time>2013-11-17T11:51:38.000+01:00</time>
      </trkpt>
      <trkpt lat="48.6812" lon="1.94765">
        <ele>122</ele>
        <time>2013-11-17T11:51:48.000+01:00</time>
      </trkpt>
      <trkpt lat="48.68118" lon="1.94775">
        <ele>127.5</ele>
        <time>2013-11-17T11:51:57.000+01:00</time>
      </trkpt>
      <trkpt lat="48.68115" lon="1.94787">
        <ele>124</ele>
        <time>2013-11-17T11:52:05.000+01:00</time>
      </trkpt>
      <trkpt lat="48.6811" lon="1.94795">
        <ele>112.1</ele>
        <time>2013-11-17T11:52:17.000+01:00</time>
      </trkpt>
      <trkpt lat="48.68104" lon="1.94805">
        <ele>106.9</ele>
        <time>2013-11-17T11:52:28.000+01:00</time>
      </trkpt>
      <trkpt lat="48.68104" lon="1.94809">
        <ele>111</ele>
        <time>2013-11-17T11:52:42.000+01:00</time>
      </trkpt>
      <trkpt lat="48.6811" lon="1.94818">
        <ele>129.3</ele>
        <time>2013-11-17T11:52:54.000+01:00</time>
      </trkpt>
      <trkpt lat="48.68113" lon="1.94817">
        <ele>135</ele>
        <time>2013-11-17T11:53:04.000+01:00</time>
      </trkpt>
      <trkpt lat="48.68115" lon="1.94813">
        <ele>132.3</ele>
        <time>2013-11-17T11:53:24.000+01:00</time>
      </trkpt>
      <trkpt lat="48.68117" lon="1.9481">
        <ele>119.3</ele>
        <time>2013-11-17T11:53:35.000+01:00</time>
      </trkpt>
      <trkpt lat="48.68116" lon="1.94823">
        <ele>115.4</ele>
        <time>2013-11-17T11:53:44.000+01:00</time>
      </trkpt>
      <trkpt lat="48.68108" lon="1.94831">
        <ele>114.9</ele>
        <time>2013-11-17T11:53:52.000+01:00</time>
      </trkpt>
      <trkpt lat="48.68102" lon="1.9484">
        <ele>110.6</ele>
        <time>2013-11-17T11:53:57.000+01:00</time>
      </trkpt>
      <trkpt lat="48.68095" lon="1.94849">
        <ele>111</ele>
        <time>2013-11-17T11:54:04.000+01:00</time>
      </trkpt>
      <trkpt lat="48.68091" lon="1.94858">
        <ele>110.5</ele>
        <time>2013-11-17T11:54:15.000+01:00</time>
      </trkpt>
      <trkpt lat="48.68088" lon="1.94869">
        <ele>109</ele>
        <time>2013-11-17T11:54:25.000+01:00</time>
      </trkpt>
      <trkpt lat="48.68087" lon="1.94883">
        <ele>108.2</ele>
        <time>2013-11-17T11:54:32.000+01:00</time>
      </trkpt>
      <trkpt lat="48.68086" lon="1.94896">
        <ele>114.7</ele>
        <time>2013-11-17T11:54:40.000+01:00</time>
      </trkpt>
      <trkpt lat="48.68086" lon="1.94911">
        <ele>118.2</ele>
        <time>2013-11-17T11:54:49.000+01:00</time>
      </trkpt>
      <trkpt lat="48.68082" lon="1.94924">
        <ele>126.3</ele>
        <time>2013-11-17T11:54:57.000+01:00</time>
      </trkpt>
      <trkpt lat="48.68079" lon="1.94937">
        <ele>133.2</ele>
        <time>2013-11-17T11:55:04.000+01:00</time>
      </trkpt>
      <trkpt lat="48.68076" lon="1.94948">
        <ele>127.4</ele>
        <time>2013-11-17T11:55:09.000+01:00</time>
      </trkpt>
      <trkpt lat="48.68071" lon="1.94959">
        <ele>126.1</ele>
        <time>2013-11-17T11:55:15.000+01:00</time>
      </trkpt>
      <trkpt lat="48.68071" lon="1.94973">
        <ele>120.5</ele>
        <time>2013-11-17T11:55:24.000+01:00</time>
      </trkpt>
      <trkpt lat="48.68071" lon="1.94986">
        <ele>111.7</ele>
        <time>2013-11-17T11:55:34.000+01:00</time>
      </trkpt>
      <trkpt lat="48.68063" lon="1.94991">
        <ele>111.6</ele>
        <time>2013-11-17T11:55:44.000+01:00</time>
      </trkpt>
      <trkpt lat="48.68058" lon="1.95002">
        <ele>117.5</ele>
        <time>2013-11-17T11:55:53.000+01:00</time>
      </trkpt>
      <trkpt lat="48.68055" lon="1.95011">
        <ele>123</ele>
        <time>2013-11-17T11:56:04.000+01:00</time>
      </trkpt>
      <trkpt lat="48.6805" lon="1.95022">
        <ele>122.5</ele>
        <time>2013-11-17T11:56:12.000+01:00</time>
      </trkpt>
      <trkpt lat="48.68044" lon="1.95032">
        <ele>123.8</ele>
        <time>2013-11-17T11:56:20.000+01:00</time>
      </trkpt>
      <trkpt lat="48.68037" lon="1.95037">
        <ele>126.7</ele>
        <time>2013-11-17T11:56:28.000+01:00</time>
      </trkpt>
      <trkpt lat="48.6803" lon="1.95048">
        <ele>123.8</ele>
        <time>2013-11-17T11:56:36.000+01:00</time>
      </trkpt>
      <trkpt lat="48.68023" lon="1.95055">
        <ele>123.3</ele>
        <time>2013-11-17T11:56:41.000+01:00</time>
      </trkpt>
      <trkpt lat="48.68015" lon="1.95064">
        <ele>121.4</ele>
        <time>2013-11-17T11:56:48.000+01:00</time>
      </trkpt>
      <trkpt lat="48.68008" lon="1.95075">
        <ele>119.1</ele>
        <time>2013-11-17T11:56:56.000+01:00</time>
      </trkpt>
      <trkpt lat="48.68008" lon="1.95089">
        <ele>115.4</ele>
        <time>2013-11-17T11:57:03.000+01:00</time>
      </trkpt>
      <trkpt lat="48.68003" lon="1.95101">
        <ele>112.8</ele>
        <time>2013-11-17T11:57:10.000+01:00</time>
      </trkpt>
      <trkpt lat="48.67998" lon="1.95112">
        <ele>111.7</ele>
        <time>2013-11-17T11:57:17.000+01:00</time>
      </trkpt>
      <trkpt lat="48.67997" lon="1.9512">
        <ele>121</ele>
        <time>2013-11-17T11:57:28.000+01:00</time>
      </trkpt>
      <trkpt lat="48.6799" lon="1.9513">
        <ele>115.1</ele>
        <time>2013-11-17T11:57:36.000+01:00</time>
      </trkpt>
      <trkpt lat="48.67982" lon="1.95141">
        <ele>120.2</ele>
        <time>2013-11-17T11:57:44.000+01:00</time>
      </trkpt>
      <trkpt lat="48.6798" lon="1.95154">
        <ele>122</ele>
        <time>2013-11-17T11:57:53.000+01:00</time>
      </trkpt>
      <trkpt lat="48.67983" lon="1.95166">
        <ele>122.6</ele>
        <time>2013-11-17T11:58:00.000+01:00</time>
      </trkpt>
      <trkpt lat="48.67976" lon="1.95174">
        <ele>125.2</ele>
        <time>2013-11-17T11:58:06.000+01:00</time>
      </trkpt>
      <trkpt lat="48.67975" lon="1.95188">
        <ele>120.6</ele>
        <time>2013-11-17T11:58:14.000+01:00</time>
      </trkpt>
      <trkpt lat="48.67977" lon="1.95201">
        <ele>119.2</ele>
        <time>2013-11-17T11:58:20.000+01:00</time>
      </trkpt>
      <trkpt lat="48.67979" lon="1.95214">
        <ele>122.2</ele>
        <time>2013-11-17T11:58:26.000+01:00</time>
      </trkpt>
      <trkpt lat="48.67977" lon="1.95225">
        <ele>124.4</ele>
        <time>2013-11-17T11:58:33.000+01:00</time>
      </trkpt>
      <trkpt lat="48.67972" lon="1.95237">
        <ele>126.3</ele>
        <time>2013-11-17T11:58:40.000+01:00</time>
      </trkpt>
      <trkpt lat="48.67967" lon="1.95248">
        <ele>129.4</ele>
        <time>2013-11-17T11:58:48.000+01:00</time>
      </trkpt>
      <trkpt lat="48.67966" lon="1.95261">
        <ele>128.7</ele>
        <time>2013-11-17T11:58:53.000+01:00</time>
      </trkpt>
      <trkpt lat="48.67964" lon="1.95275">
        <ele>130.7</ele>
        <time>2013-11-17T11:58:59.000+01:00</time>
      </trkpt>
      <trkpt lat="48.67963" lon="1.95289">
        <ele>125.6</ele>
        <time>2013-11-17T11:59:06.000+01:00</time>
      </trkpt>
      <trkpt lat="48.67957" lon="1.953">
        <ele>122.5</ele>
        <time>2013-11-17T11:59:11.000+01:00</time>
      </trkpt>
      <trkpt lat="48.67951" lon="1.95309">
        <ele>121.3</ele>
        <time>2013-11-17T11:59:16.000+01:00</time>
      </trkpt>
      <trkpt lat="48.67947" lon="1.95321">
        <ele>123.5</ele>
        <time>2013-11-17T11:59:23.000+01:00</time>
      </trkpt>
      <trkpt lat="48.67941" lon="1.95333">
        <ele>132.2</ele>
        <time>2013-11-17T11:59:32.000+01:00</time>
      </trkpt>
      <trkpt lat="48.67938" lon="1.95342">
        <ele>135</ele>
        <time>2013-11-17T11:59:38.000+01:00</time>
      </trkpt>
      <trkpt lat="48.6793" lon="1.95353">
        <ele>142</ele>
        <time>2013-11-17T11:59:45.000+01:00</time>
      </trkpt>
      <trkpt lat="48.67924" lon="1.95364">
        <ele>142.3</ele>
        <time>2013-11-17T11:59:50.000+01:00</time>
      </trkpt>
      <trkpt lat="48.67921" lon="1.95378">
        <ele>140.8</ele>
        <time>2013-11-17T11:59:57.000+01:00</time>
      </trkpt>
      <trkpt lat="48.67919" lon="1.95392">
        <ele>135.2</ele>
        <time>2013-11-17T12:00:04.000+01:00</time>
      </trkpt>
      <trkpt lat="48.67913" lon="1.95403">
        <ele>137.9</ele>
        <time>2013-11-17T12:00:12.000+01:00</time>
      </trkpt>
      <trkpt lat="48.6791" lon="1.95417">
        <ele>142.5</ele>
        <time>2013-11-17T12:00:20.000+01:00</time>
      </trkpt>
      <trkpt lat="48.67904" lon="1.95427">
        <ele>149.9</ele>
        <time>2013-11-17T12:00:28.000+01:00</time>
      </trkpt>
      <trkpt lat="48.67906" lon="1.95441">
        <ele>148.3</ele>
        <time>2013-11-17T12:00:33.000+01:00</time>
      </trkpt>
      <trkpt lat="48.67908" lon="1.95456">
        <ele>145.1</ele>
        <time>2013-11-17T12:00:37.000+01:00</time>
      </trkpt>
      <trkpt lat="48.67911" lon="1.95469">
        <ele>144.2</ele>
        <time>2013-11-17T12:00:46.000+01:00</time>
      </trkpt>
      <trkpt lat="48.67912" lon="1.95486">
        <ele>141.3</ele>
        <time>2013-11-17T12:00:52.000+01:00</time>
      </trkpt>
      <trkpt lat="48.67914" lon="1.95499">
        <ele>135.7</ele>
        <time>2013-11-17T12:00:59.000+01:00</time>
      </trkpt>
      <trkpt lat="48.67918" lon="1.95513">
        <ele>125.1</ele>
        <time>2013-11-17T12:01:04.000+01:00</time>
      </trkpt>
      <trkpt lat="48.67922" lon="1.95526">
        <ele>117.7</ele>
        <time>2013-11-17T12:01:09.000+01:00</time>
      </trkpt>
      <trkpt lat="48.6792" lon="1.95539">
        <ele>126.3</ele>
        <time>2013-11-17T12:01:16.000+01:00</time>
      </trkpt>
      <trkpt lat="48.67915" lon="1.95549">
        <ele>133.7</ele>
        <time>2013-11-17T12:01:23.000+01:00</time>
      </trkpt>
      <trkpt lat="48.67912" lon="1.95563">
        <ele>134.4</ele>
        <time>2013-11-17T12:01:30.000+01:00</time>
      </trkpt>
      <trkpt lat="48.6791" lon="1.95577">
        <ele>133.3</ele>
        <time>2013-11-17T12:01:37.000+01:00</time>
      </trkpt>
      <trkpt lat="48.67907" lon="1.9559">
        <ele>134.1</ele>
        <time>2013-11-17T12:01:43.000+01:00</time>
      </trkpt>
      <trkpt lat="48.67901" lon="1.95601">
        <ele>138.1</ele>
        <time>2013-11-17T12:01:49.000+01:00</time>
      </trkpt>
      <trkpt lat="48.67902" lon="1.95613">
        <ele>138.7</ele>
        <time>2013-11-17T12:01:57.000+01:00</time>
      </trkpt>
      <trkpt lat="48.67893" lon="1.95622">
        <ele>135.6</ele>
        <time>2013-11-17T12:02:03.000+01:00</time>
      </trkpt>
      <trkpt lat="48.67885" lon="1.95631">
        <ele>134.6</ele>
        <time>2013-11-17T12:02:09.000+01:00</time>
      </trkpt>
      <trkpt lat="48.67879" lon="1.9564">
        <ele>132.9</ele>
        <time>2013-11-17T12:02:15.000+01:00</time>
      </trkpt>
      <trkpt lat="48.67874" lon="1.95653">
        <ele>132.3</ele>
        <time>2013-11-17T12:02:24.000+01:00</time>
      </trkpt>
      <trkpt lat="48.67867" lon="1.95662">
        <ele>130.7</ele>
        <time>2013-11-17T12:02:30.000+01:00</time>
      </trkpt>
      <trkpt lat="48.67862" lon="1.95673">
        <ele>130.2</ele>
        <time>2013-11-17T12:02:38.000+01:00</time>
      </trkpt>
      <trkpt lat="48.67856" lon="1.95684">
        <ele>134</ele>
        <time>2013-11-17T12:02:47.000+01:00</time>
      </trkpt>
      <trkpt lat="48.67849" lon="1.9569">
        <ele>131.8</ele>
        <time>2013-11-17T12:02:53.000+01:00</time>
      </trkpt>
      <trkpt lat="48.67843" lon="1.95698">
        <ele>129.1</ele>
        <time>2013-11-17T12:03:00.000+01:00</time>
      </trkpt>
      <trkpt lat="48.67835" lon="1.95706">
        <ele>127.6</ele>
        <time>2013-11-17T12:03:06.000+01:00</time>
      </trkpt>
      <trkpt lat="48.6783" lon="1.95704">
        <ele>126.6</ele>
        <time>2013-11-17T12:03:21.000+01:00</time>
      </trkpt>
      <trkpt lat="48.67836" lon="1.95702">
        <ele>118.7</ele>
        <time>2013-11-17T12:03:34.000+01:00</time>
      </trkpt>
      <trkpt lat="48.67828" lon="1.95698">
        <ele>129.4</ele>
        <time>2013-11-17T12:03:46.000+01:00</time>
      </trkpt>
      <trkpt lat="48.6782" lon="1.95695">
        <ele>139</ele>
        <time>2013-11-17T12:03:57.000+01:00</time>
      </trkpt>
      <trkpt lat="48.67813" lon="1.95688">
        <ele>149.6</ele>
        <time>2013-11-17T12:04:05.000+01:00</time>
      </trkpt>
      <trkpt lat="48.6781" lon="1.95693">
        <ele>154</ele>
        <time>2013-11-17T12:04:17.000+01:00</time>
      </trkpt>
      <trkpt lat="48.67817" lon="1.95703">
        <ele>153.5</ele>
        <time>2013-11-17T12:04:23.000+01:00</time>
      </trkpt>
      <trkpt lat="48.67821" lon="1.95717">
        <ele>150.7</ele>
        <time>2013-11-17T12:04:28.000+01:00</time>
      </trkpt>
      <trkpt lat="48.67823" lon="1.95732">
        <ele>145.4</ele>
        <time>2013-11-17T12:04:34.000+01:00</time>
      </trkpt>
      <trkpt lat="48.67827" lon="1.95746">
        <ele>143.3</ele>
        <time>2013-11-17T12:04:42.000+01:00</time>
      </trkpt>
      <trkpt lat="48.67829" lon="1.95761">
        <ele>137.3</ele>
        <time>2013-11-17T12:04:48.000+01:00</time>
      </trkpt>
      <trkpt lat="48.67831" lon="1.95776">
        <ele>130.2</ele>
        <time>2013-11-17T12:04:55.000+01:00</time>
      </trkpt>
      <trkpt lat="48.67837" lon="1.95787">
        <ele>127.8</ele>
        <time>2013-11-17T12:05:00.000+01:00</time>
      </trkpt>
      <trkpt lat="48.67841" lon="1.95801">
        <ele>126.3</ele>
        <time>2013-11-17T12:05:07.000+01:00</time>
      </trkpt>
      <trkpt lat="48.67838" lon="1.95813">
        <ele>127.9</ele>
        <time>2013-11-17T12:05:12.000+01:00</time>
      </trkpt>
      <trkpt lat="48.67832" lon="1.95826">
        <ele>133</ele>
        <time>2013-11-17T12:05:19.000+01:00</time>
      </trkpt>
      <trkpt lat="48.67826" lon="1.95837">
        <ele>135.7</ele>
        <time>2013-11-17T12:05:26.000+01:00</time>
      </trkpt>
      <trkpt lat="48.67821" lon="1.9585">
        <ele>136.9</ele>
        <time>2013-11-17T12:05:34.000+01:00</time>
      </trkpt>
      <trkpt lat="48.67816" lon="1.95862">
        <ele>137.1</ele>
        <time>2013-11-17T12:05:41.000+01:00</time>
      </trkpt>
      <trkpt lat="48.67809" lon="1.95872">
        <ele>136.2</ele>
        <time>2013-11-17T12:05:47.000+01:00</time>
      </trkpt>
      <trkpt lat="48.67804" lon="1.95883">
        <ele>136.9</ele>
        <time>2013-11-17T12:05:53.000+01:00</time>
      </trkpt>
      <trkpt lat="48.67799" lon="1.95895">
        <ele>136.2</ele>
        <time>2013-11-17T12:05:59.000+01:00</time>
      </trkpt>
      <trkpt lat="48.67793" lon="1.95906">
        <ele>132.1</ele>
        <time>2013-11-17T12:06:05.000+01:00</time>
      </trkpt>
      <trkpt lat="48.67786" lon="1.95915">
        <ele>131.3</ele>
        <time>2013-11-17T12:06:10.000+01:00</time>
      </trkpt>
      <trkpt lat="48.6778" lon="1.95925">
        <ele>130.1</ele>
        <time>2013-11-17T12:06:16.000+01:00</time>
      </trkpt>
      <trkpt lat="48.67779" lon="1.95938">
        <ele>131.6</ele>
        <time>2013-11-17T12:06:24.000+01:00</time>
      </trkpt>
      <trkpt lat="48.67775" lon="1.9595">
        <ele>132.2</ele>
        <time>2013-11-17T12:06:31.000+01:00</time>
      </trkpt>
      <trkpt lat="48.67774" lon="1.95963">
        <ele>132.3</ele>
        <time>2013-11-17T12:06:39.000+01:00</time>
      </trkpt>
      <trkpt lat="48.67768" lon="1.95973">
        <ele>132.6</ele>
        <time>2013-11-17T12:06:45.000+01:00</time>
      </trkpt>
      <trkpt lat="48.67761" lon="1.95984">
        <ele>131.2</ele>
        <time>2013-11-17T12:06:52.000+01:00</time>
      </trkpt>
      <trkpt lat="48.67751" lon="1.95994">
        <ele>130.1</ele>
        <time>2013-11-17T12:06:57.000+01:00</time>
      </trkpt>
      <trkpt lat="48.67743" lon="1.96">
        <ele>129.6</ele>
        <time>2013-11-17T12:07:01.000+01:00</time>
      </trkpt>
      <trkpt lat="48.67735" lon="1.96008">
        <ele>128.8</ele>
        <time>2013-11-17T12:07:07.000+01:00</time>
      </trkpt>
      <trkpt lat="48.6773" lon="1.96019">
        <ele>122.7</ele>
        <time>2013-11-17T12:07:16.000+01:00</time>
      </trkpt>
      <trkpt lat="48.67722" lon="1.96029">
        <ele>120.7</ele>
        <time>2013-11-17T12:07:23.000+01:00</time>
      </trkpt>
      <trkpt lat="48.67716" lon="1.96036">
        <ele>121.6</ele>
        <time>2013-11-17T12:07:36.000+01:00</time>
      </trkpt>
      <trkpt lat="48.67712" lon="1.96048">
        <ele>116.5</ele>
        <time>2013-11-17T12:07:44.000+01:00</time>
      </trkpt>
      <trkpt lat="48.6771" lon="1.96062">
        <ele>111.3</ele>
        <time>2013-11-17T12:07:52.000+01:00</time>
      </trkpt>
      <trkpt lat="48.6771" lon="1.96074">
        <ele>106.1</ele>
        <time>2013-11-17T12:07:58.000+01:00</time>
      </trkpt>
      <trkpt lat="48.6771" lon="1.96089">
        <ele>107.1</ele>
        <time>2013-11-17T12:08:05.000+01:00</time>
      </trkpt>
      <trkpt lat="48.67707" lon="1.96103">
        <ele>109.2</ele>
        <time>2013-11-17T12:08:13.000+01:00</time>
      </trkpt>
      <trkpt lat="48.67701" lon="1.96113">
        <ele>109.4</ele>
        <time>2013-11-17T12:08:22.000+01:00</time>
      </trkpt>
      <trkpt lat="48.67693" lon="1.96123">
        <ele>110.5</ele>
        <time>2013-11-17T12:08:32.000+01:00</time>
      </trkpt>
      <trkpt lat="48.67684" lon="1.96128">
        <ele>111.5</ele>
        <time>2013-11-17T12:08:38.000+01:00</time>
      </trkpt>
      <trkpt lat="48.67679" lon="1.96133">
        <ele>108.7</ele>
        <time>2013-11-17T12:08:59.000+01:00</time>
      </trkpt>
      <trkpt lat="48.67676" lon="1.96138">
        <ele>110.3</ele>
        <time>2013-11-17T12:09:24.000+01:00</time>
      </trkpt>
      <trkpt lat="48.6767" lon="1.96129">
        <ele>119</ele>
        <time>2013-11-17T12:09:40.000+01:00</time>
      </trkpt>
      <trkpt lat="48.67667" lon="1.96123">
        <ele>128.6</ele>
        <time>2013-11-17T12:09:59.000+01:00</time>
      </trkpt>
      <trkpt lat="48.67675" lon="1.96129">
        <ele>127.6</ele>
        <time>2013-11-17T12:10:09.000+01:00</time>
      </trkpt>
      <trkpt lat="48.67681" lon="1.96144">
        <ele>124.3</ele>
        <time>2013-11-17T12:10:18.000+01:00</time>
      </trkpt>
      <trkpt lat="48.67689" lon="1.96157">
        <ele>118.8</ele>
        <time>2013-11-17T12:10:21.000+01:00</time>
      </trkpt>
      <trkpt lat="48.67692" lon="1.96169">
        <ele>122.5</ele>
        <time>2013-11-17T12:10:26.000+01:00</time>
      </trkpt>
      <trkpt lat="48.67689" lon="1.96181">
        <ele>119.5</ele>
        <time>2013-11-17T12:10:32.000+01:00</time>
      </trkpt>
      <trkpt lat="48.67691" lon="1.96192">
        <ele>114.8</ele>
        <time>2013-11-17T12:10:40.000+01:00</time>
      </trkpt>
      <trkpt lat="48.67683" lon="1.96199">
        <ele>116.9</ele>
        <time>2013-11-17T12:10:46.000+01:00</time>
      </trkpt>
      <trkpt lat="48.67676" lon="1.96207">
        <ele>118.6</ele>
        <time>2013-11-17T12:10:53.000+01:00</time>
      </trkpt>
      <trkpt lat="48.67666" lon="1.96212">
        <ele>112.1</ele>
        <time>2013-11-17T12:11:02.000+01:00</time>
      </trkpt>
      <trkpt lat="48.67657" lon="1.96215">
        <ele>100.3</ele>
        <time>2013-11-17T12:11:09.000+01:00</time>
      </trkpt>
      <trkpt lat="48.67663" lon="1.96218">
        <ele>103.9</ele>
        <time>2013-11-17T12:11:18.000+01:00</time>
      </trkpt>
      <trkpt lat="48.67669" lon="1.96226">
        <ele>116.2</ele>
        <time>2013-11-17T12:11:27.000+01:00</time>
      </trkpt>
      <trkpt lat="48.67672" lon="1.96235">
        <ele>126.3</ele>
        <time>2013-11-17T12:11:38.000+01:00</time>
      </trkpt>
      <trkpt lat="48.67677" lon="1.96246">
        <ele>141.4</ele>
        <time>2013-11-17T12:11:51.000+01:00</time>
      </trkpt>
      <trkpt lat="48.67677" lon="1.96257">
        <ele>147.4</ele>
        <time>2013-11-17T12:12:02.000+01:00</time>
      </trkpt>
      <trkpt lat="48.67682" lon="1.96268">
        <ele>149.3</ele>
        <time>2013-11-17T12:12:10.000+01:00</time>
      </trkpt>
      <trkpt lat="48.67687" lon="1.9628">
        <ele>145.7</ele>
        <time>2013-11-17T12:12:16.000+01:00</time>
      </trkpt>
      <trkpt lat="48.67691" lon="1.96293">
        <ele>144</ele>
        <time>2013-11-17T12:12:23.000+01:00</time>
      </trkpt>
      <trkpt lat="48.67693" lon="1.96308">
        <ele>141.8</ele>
        <time>2013-11-17T12:12:28.000+01:00</time>
      </trkpt>
      <trkpt lat="48.67697" lon="1.9632">
        <ele>135</ele>
        <time>2013-11-17T12:12:32.000+01:00</time>
      </trkpt>
      <trkpt lat="48.67705" lon="1.96328">
        <ele>129.6</ele>
        <time>2013-11-17T12:12:38.000+01:00</time>
      </trkpt>
      <trkpt lat="48.67713" lon="1.96337">
        <ele>129</ele>
        <time>2013-11-17T12:12:45.000+01:00</time>
      </trkpt>
      <trkpt lat="48.67721" lon="1.96344">
        <ele>129.7</ele>
        <time>2013-11-17T12:12:52.000+01:00</time>
      </trkpt>
      <trkpt lat="48.67725" lon="1.96354">
        <ele>134</ele>
        <time>2013-11-17T12:13:01.000+01:00</time>
      </trkpt>
      <trkpt lat="48.67733" lon="1.96365">
        <ele>126.8</ele>
        <time>2013-11-17T12:13:06.000+01:00</time>
      </trkpt>
      <trkpt lat="48.67738" lon="1.96376">
        <ele>126.1</ele>
        <time>2013-11-17T12:13:10.000+01:00</time>
      </trkpt>
      <trkpt lat="48.67744" lon="1.96389">
        <ele>125.3</ele>
        <time>2013-11-17T12:13:16.000+01:00</time>
      </trkpt>
      <trkpt lat="48.67753" lon="1.96395">
        <ele>122.1</ele>
        <time>2013-11-17T12:13:26.000+01:00</time>
      </trkpt>
      <trkpt lat="48.67761" lon="1.96399">
        <ele>124.2</ele>
        <time>2013-11-17T12:13:36.000+01:00</time>
      </trkpt>
      <trkpt lat="48.67769" lon="1.96405">
        <ele>119.9</ele>
        <time>2013-11-17T12:13:42.000+01:00</time>
      </trkpt>
      <trkpt lat="48.67773" lon="1.96417">
        <ele>123.8</ele>
        <time>2013-11-17T12:13:48.000+01:00</time>
      </trkpt>
      <trkpt lat="48.67776" lon="1.96428">
        <ele>122.3</ele>
        <time>2013-11-17T12:13:58.000+01:00</time>
      </trkpt>
      <trkpt lat="48.67782" lon="1.96439">
        <ele>114.4</ele>
        <time>2013-11-17T12:14:05.000+01:00</time>
      </trkpt>
      <trkpt lat="48.67786" lon="1.96447">
        <ele>114</ele>
        <time>2013-11-17T12:14:16.000+01:00</time>
      </trkpt>
      <trkpt lat="48.67796" lon="1.96452">
        <ele>118.8</ele>
        <time>2013-11-17T12:14:25.000+01:00</time>
      </trkpt>
      <trkpt lat="48.67804" lon="1.96456">
        <ele>119.4</ele>
        <time>2013-11-17T12:14:33.000+01:00</time>
      </trkpt>
      <trkpt lat="48.67812" lon="1.96457">
        <ele>119.4</ele>
        <time>2013-11-17T12:14:46.000+01:00</time>
      </trkpt>
      <trkpt lat="48.67821" lon="1.96459">
        <ele>112.2</ele>
        <time>2013-11-17T12:14:54.000+01:00</time>
      </trkpt>
      <trkpt lat="48.6783" lon="1.96462">
        <ele>108.6</ele>
        <time>2013-11-17T12:15:05.000+01:00</time>
      </trkpt>
      <trkpt lat="48.67839" lon="1.96463">
        <ele>109.5</ele>
        <time>2013-11-17T12:15:13.000+01:00</time>
      </trkpt>
      <trkpt lat="48.67848" lon="1.96463">
        <ele>104.7</ele>
        <time>2013-11-17T12:15:19.000+01:00</time>
      </trkpt>
      <trkpt lat="48.67857" lon="1.96466">
        <ele>109.6</ele>
        <time>2013-11-17T12:15:27.000+01:00</time>
      </trkpt>
      <trkpt lat="48.67863" lon="1.96473">
        <ele>119.5</ele>
        <time>2013-11-17T12:15:35.000+01:00</time>
      </trkpt>
      <trkpt lat="48.67869" lon="1.96481">
        <ele>122.2</ele>
        <time>2013-11-17T12:15:45.000+01:00</time>
      </trkpt>
      <trkpt lat="48.67878" lon="1.96481">
        <ele>122.7</ele>
        <time>2013-11-17T12:15:52.000+01:00</time>
      </trkpt>
      <trkpt lat="48.67886" lon="1.96478">
        <ele>120.1</ele>
        <time>2013-11-17T12:16:00.000+01:00</time>
      </trkpt>
      <trkpt lat="48.67893" lon="1.96487">
        <ele>116.9</ele>
        <time>2013-11-17T12:16:13.000+01:00</time>
      </trkpt>
      <trkpt lat="48.67902" lon="1.96489">
        <ele>118.1</ele>
        <time>2013-11-17T12:16:23.000+01:00</time>
      </trkpt>
      <trkpt lat="48.67911" lon="1.96493">
        <ele>121.3</ele>
        <time>2013-11-17T12:16:34.000+01:00</time>
      </trkpt>
      <trkpt lat="48.6792" lon="1.965">
        <ele>118.8</ele>
        <time>2013-11-17T12:16:40.000+01:00</time>
      </trkpt>
      <trkpt lat="48.67926" lon="1.96508">
        <ele>118.3</ele>
        <time>2013-11-17T12:16:46.000+01:00</time>
      </trkpt>
      <trkpt lat="48.67931" lon="1.96518">
        <ele>117.8</ele>
        <time>2013-11-17T12:16:51.000+01:00</time>
      </trkpt>
      <trkpt lat="48.67932" lon="1.96532">
        <ele>112</ele>
        <time>2013-11-17T12:16:58.000+01:00</time>
      </trkpt>
      <trkpt lat="48.67933" lon="1.96545">
        <ele>113.3</ele>
        <time>2013-11-17T12:17:07.000+01:00</time>
      </trkpt>
      <trkpt lat="48.67939" lon="1.96551">
        <ele>122.7</ele>
        <time>2013-11-17T12:17:20.000+01:00</time>
      </trkpt>
      <trkpt lat="48.67944" lon="1.96564">
        <ele>125.3</ele>
        <time>2013-11-17T12:17:27.000+01:00</time>
      </trkpt>
      <trkpt lat="48.67947" lon="1.96576">
        <ele>122.2</ele>
        <time>2013-11-17T12:17:35.000+01:00</time>
      </trkpt>
      <trkpt lat="48.67951" lon="1.96588">
        <ele>116.4</ele>
        <time>2013-11-17T12:17:40.000+01:00</time>
      </trkpt>
      <trkpt lat="48.67958" lon="1.96596">
        <ele>108.1</ele>
        <time>2013-11-17T12:17:49.000+01:00</time>
      </trkpt>
      <trkpt lat="48.67953" lon="1.96606">
        <ele>107.3</ele>
        <time>2013-11-17T12:17:57.000+01:00</time>
      </trkpt>
      <trkpt lat="48.67943" lon="1.96611">
        <ele>109.8</ele>
        <time>2013-11-17T12:18:04.000+01:00</time>
      </trkpt>
      <trkpt lat="48.67933" lon="1.96616">
        <ele>111.1</ele>
        <time>2013-11-17T12:18:12.000+01:00</time>
      </trkpt>
      <trkpt lat="48.67925" lon="1.96616">
        <ele>106.9</ele>
        <time>2013-11-17T12:18:27.000+01:00</time>
      </trkpt>
      <trkpt lat="48.67922" lon="1.96621">
        <ele>107</ele>
        <time>2013-11-17T12:18:38.000+01:00</time>
      </trkpt>
      <trkpt lat="48.67925" lon="1.96613">
        <ele>110.6</ele>
        <time>2013-11-17T12:18:59.000+01:00</time>
      </trkpt>
    </trkseg>
  </trk>
</gpx>